[[{"header":{"parameterUnit":"m.s-1","parameterCategory":1,"la1":31.0,"la2":29.5877,"lo1":-88.7671,"lo2":-86.6584,"dy":0.0162,"dx":0.0185,"nx":115,"ny":88,"refTime":"2026-05-21T12:00:00:Z","depth":0,"parameterNumber":2,"parameterNumberName":"U-component_of_WINDS"},"data":[0.0,0.0,0.0,0.0,0.0,0.0,0.0,0.0,0.0,0.0,0.0,0.0,0.0,0.0,0.0,0.0,0.0,0.0,0.0,0.0,0.0,0.0,0.0,0.0,0.0,0.0,0.0,0.0,0.0,0.0,0.0,0.0,0.0,0.0,0.0,0.0,0.0,0.0,0.0,0.0,0.0,0.0,0.0,0.0,0.0,0.0,0.0,0.0,0.0,0.0,0.0,0.0,0.0,0.0,0.0,0.0,0.0,0.0,0.0,0.0,0.0,0.0,0.0,0.0,0.0,0.0,0.0,0.0,0.0,0.0,0.0,0.0,0.0,0.0,0.0,0.0,0.0,0.0,0.0,0.0,0.0,0.0,0.0,0.0,0.0,0.0,0.0,0.0,0.0,0.0,0.0,0.0,0.0,0.0,0.0,0.0,0.0,0.0,0.0,0.0,0.0,0.0,0.0,0.0,0.0,0.0,0.0,0.0,0.0,0.0,0.0,0.0,0.0,0.0,0.0,0.0,0.0,0.0,0.0,0.0,0.0,0.0,0.0,0.0,0.0,0.0,0.0,0.0,0.0,0.0,0.0,0.0,0.0,0.0,0.0,0.0,0.0,0.0,0.0,0.0,0.0,0.0,0.0,0.0,0.0,0.0,0.0,0.0,0.0,0.0,0.0,0.0,0.0,0.0,0.0,0.0,0.0,0.0,0.0,0.0,0.0,0.0,0.0,0.0,0.0,0.0,0.0,0.0,0.0,0.0,0.0,0.0,0.0,0.0,0.0,0.0,0.0,0.0,0.0,0.0,0.0,0.0,0.0,0.0,0.0,0.0,0.0,0.0,0.0,0.0,0.0,0.0,0.0,0.0,0.0,0.0,0.0,0.0,0.0,0.0,0.0,0.0,0.0,0.0,0.0,0.0,0.0,0.0,0.0,0.0,0.0,0.0,0.0,0.0,0.0,0.0,0.0,0.0,0.0,0.0,0.0,0.0,0.0,0.0,0.0,0.0,0.0,0.0,0.0,0.0,0.0,0.0,0.0,0.0,0.0,0.0,0.0,0.0,0.0,0.0,0.0,0.0,0.0,0.0,0.0,0.0,0.0,0.0,0.0,0.0,0.0,0.0,0.0,0.0,0.0,0.0,0.0,0.0,0.0,0.0,0.0,0.0,0.0,0.0,0.0,0.0,0.0,0.0,0.0,0.0,0.0,0.0,0.0,0.0,0.0,0.0,0.0,0.0,0.0,0.0,0.0,0.0,0.0,0.0,0.0,0.0,0.0,0.0,0.0,0.0,0.0,0.0,0.0,0.0,0.0,0.0,0.0,0.0,0.0,0.0,0.0,0.0,0.0,0.0,0.0,0.0,0.0,0.0,0.0,0.0,0.0,0.0,0.0,0.0,0.0,0.0,0.0,0.0,0.0,0.0,0.0,0.0,0.0,0.0,0.0,0.0,0.0,0.0,0.0,0.0,0.0,0.0,0.0,0.0,0.0,0.0,0.0,0.0,0.0,0.0,0.0,0.0,0.0,0.0,0.0,0.0,0.0,0.0,0.0,0.0,0.0,0.0,0.0,0.0,0.0,0.0,0.0,0.0,0.0,0.0,0.0,0.0,0.0,0.0,0.0,0.0,0.0,0.0,0.0,0.0,0.0,0.0,0.0,0.0,0.0,0.0,0.0,0.0,0.0,0.0,0.0,0.0,0.0,0.0,0.0,0.0,0.0,0.0,0.0,0.0,0.0,0.0,0.0,0.0,0.0,0.0,0.0,0.0,0.0,0.0,0.0,0.0,0.0,0.0,0.0,0.0,0.0,0.0,0.0,0.0,0.0,0.0,0.0,0.0,0.0,0.0,0.0,0.0,0.0,0.0,0.0,0.0,0.0,0.0,0.0,0.0,0.0,0.0,0.0,0.0,0.0,0.0,0.0,0.0,0.0,0.0,0.0,0.0,0.0,0.0,0.0,0.0,0.0,0.0,0.0,0.0,0.0,0.0,0.0,0.0,0.0,0.0,0.0,0.0,0.0,0.0,0.0,0.0,0.0,0.0,0.0,0.0,0.0,0.0,0.0,0.0,0.0,0.0,0.0,0.0,0.0,0.0,0.0,0.0,0.0,0.0,0.0,0.0,0.0,0.0,0.0,0.0,0.0,0.0,0.0,0.0,0.0,0.0,0.0,0.0,0.0,0.0,0.0,0.0,0.0,0.0,0.0,0.0,0.0,0.0,0.0,0.0,0.0,0.0,0.0,0.0,0.0,0.0,0.0,0.0,0.0,0.0,0.0,0.0,0.0,0.0,0.0,0.0,0.0,0.0,0.0,0.0,0.0,0.0,0.0,0.0,0.0,0.0,0.0,0.0,0.0,0.0,0.0,0.0,0.0,0.0,0.0,0.0,0.0,0.0,0.0,0.0,0.0,0.0,0.0,0.0,0.0,0.0,0.0,0.0,0.0,0.0,0.0,0.0,0.0,0.0,0.0,0.0,0.0,0.0,0.0,0.0,0.0,0.0,0.0,0.0,0.0,0.0,0.0,0.0,0.0,0.0,0.0,0.0,0.0,0.0,0.0,0.0,0.0,0.0,0.0,0.0,0.0,0.0,0.0,0.0,0.0,0.0,0.0,0.0,0.0,0.0,0.0,0.0,0.0,0.0,0.0,0.0,0.0,0.0,0.0,0.0,0.0,0.0,0.0,0.0,0.0,0.0,0.0,0.0,0.0,0.0,0.0,0.0,0.0,0.0,0.0,0.0,0.0,0.0,0.0,0.0,0.0,0.0,0.0,0.0,0.0,0.0,0.0,0.0,0.0,0.0,0.0,0.0,0.0,0.0,0.0,0.0,0.0,0.0,0.0,0.0,0.0,0.0,0.0,0.0,0.0,0.0,0.0,0.0,0.0,0.0,0.0,0.0,0.0,0.0,0.0,0.0,0.0,0.0,0.0,0.0,0.0,0.0,0.0,0.0,0.0,0.0,0.0,0.0,0.0,0.0,0.0,0.0,0.0,0.0,0.0,0.0,0.0,0.0,0.0,0.0,0.0,0.0,0.0,0.0,0.0,0.0,0.0,0.0,0.0,0.0,0.0,0.0,0.0,0.0,0.0,0.0,0.0,0.0,0.0,0.0,0.0,0.0,0.0,0.0,0.0,0.0,0.0,0.0,0.0,0.0,0.0,0.0,0.0,0.0,0.0,0.0,0.0,0.0,0.0,0.0,0.0,0.0,0.0,0.0,0.0,0.0,0.0,0.0,0.0,0.0,0.0,0.0,0.0,0.0,0.0,0.0,0.0,0.0,0.0,0.0,0.0,0.0,0.0,0.0,0.0,0.0,0.0,0.0,0.0,0.0,0.0,0.0,0.0,0.0,0.0,0.0,0.0,0.0,0.0,0.0,0.0,0.0,0.0,0.0,0.0,0.0,0.0,0.0,0.0,0.0,0.0,0.0,0.0,0.0,0.0,0.0,0.0,0.0,0.0,0.0,0.0,0.0,0.0,0.0,0.0,0.0,0.0,0.0,0.0,0.0,0.0,0.0,0.0,0.0,0.0,0.0,0.0,0.0,0.0,0.0,0.0,0.0,0.0,0.0,0.0,0.0,0.0,0.0,0.0,0.0,0.0,0.0,0.0,0.0,0.0,0.0,0.0,0.0,0.0,0.0,0.0,0.0,0.0,0.0,0.0,0.0,0.0,0.0,0.0,0.0,0.0,0.0,0.0,0.0,0.0,0.0,0.0,0.0,0.0,0.0,0.0,0.0,0.0,0.0,0.0,0.0,0.0,0.0,0.0,0.0,0.0,0.0,0.0,0.0,0.0,0.0,0.0,0.0,0.0,0.0,0.0,0.0,0.0,0.0,0.0,0.0,0.0,0.0,0.0,0.0,0.0,0.0,0.0,0.0,0.0,0.0,0.0,0.0,0.0,0.0,0.0,0.0,0.0,0.0,0.0,0.0,0.0,0.0,0.0,0.0,0.0,0.0,0.0,0.0,0.0,0.0,0.0,0.0,0.0,0.0,0.0,0.0,0.0,0.0,0.0,0.0,0.0,0.0,0.0,0.0,0.0,0.0,0.0,0.0,0.0,0.0,0.0,0.0,0.0,0.0,0.0,0.0,0.0,0.0,0.0,0.0,0.0,0.0,0.0,0.0,0.0,0.0,0.0,0.0,0.0,0.0,0.0,0.0,0.0,0.0,0.0,0.0,0.0,0.0,0.0,0.0,0.0,0.0,0.0,0.0,0.0,0.0,0.0,0.0,0.0,0.0,0.0,0.0,0.0,0.0,0.0,0.0,0.0,0.0,-1.8709,0.0,0.0,0.0,0.0,0.0,0.0,0.0,0.0,0.0,0.0,0.0,0.0,0.0,0.0,0.0,0.0,0.0,0.0,0.0,0.0,0.0,0.0,0.0,0.0,0.0,0.0,0.0,0.0,0.0,0.0,0.0,0.0,0.0,0.0,0.0,0.0,0.0,0.0,0.0,0.0,0.0,0.0,0.0,0.0,0.0,0.0,0.0,0.0,0.0,0.0,0.0,0.0,0.0,0.0,0.0,0.0,0.0,0.0,0.0,0.0,0.0,0.0,0.0,0.0,0.0,0.0,0.0,0.0,0.0,0.0,0.0,0.0,0.0,0.0,0.0,0.0,0.0,0.0,0.0,0.0,0.0,0.0,0.0,0.0,0.0,0.0,0.0,0.0,0.0,0.0,0.0,0.0,0.0,0.0,0.0,0.0,0.0,0.0,0.0,0.0,0.0,0.0,0.0,0.0,0.0,0.0,0.0,0.0,0.0,0.0,-2.1849,-2.1007,-2.0263,-1.9789,-1.954,0.0,0.0,0.0,0.0,0.0,0.0,0.0,0.0,0.0,0.0,0.0,0.0,0.0,0.0,0.0,0.0,0.0,0.0,0.0,0.0,0.0,0.0,0.0,0.0,0.0,0.0,0.0,0.0,0.0,0.0,0.0,0.0,0.0,0.0,0.0,0.0,0.0,0.0,0.0,0.0,0.0,0.0,0.0,0.0,0.0,0.0,0.0,0.0,0.0,0.0,0.0,0.0,0.0,0.0,0.0,0.0,0.0,0.0,0.0,0.0,0.0,0.0,0.0,0.0,0.0,0.0,0.0,0.0,0.0,0.0,0.0,0.0,0.0,0.0,0.0,0.0,0.0,0.0,0.0,0.0,0.0,0.0,0.0,0.0,0.0,0.0,0.0,0.0,0.0,0.0,0.0,0.0,0.0,0.0,0.0,0.0,0.0,0.0,0.0,0.0,0.0,0.0,0.0,0.0,0.0,0.0,0.0,0.0,0.0,0.0,0.0,0.0,-2.1256,-2.0728,-2.0261,0.0,0.0,0.0,0.0,0.0,0.0,0.0,0.0,0.0,0.0,0.0,0.0,0.0,0.0,0.0,0.0,0.0,0.0,0.0,0.0,0.0,0.0,0.0,0.0,0.0,0.0,0.0,0.0,0.0,0.0,0.0,0.0,0.0,0.0,0.0,0.0,0.0,0.0,0.0,0.0,0.0,0.0,0.0,0.0,0.0,0.0,0.0,0.0,0.0,0.0,0.0,0.0,0.0,0.0,0.0,0.0,0.0,0.0,0.0,0.0,0.0,0.0,0.0,0.0,0.0,0.0,0.0,0.0,0.0,0.0,0.0,0.0,0.0,0.0,0.0,0.0,0.0,0.0,0.0,0.0,0.0,0.0,0.0,0.0,0.0,0.0,0.0,0.0,0.0,0.0,0.0,0.0,0.0,0.0,0.0,0.0,0.0,0.0,0.0,0.0,0.0,0.0,0.0,0.0,0.0,0.0,0.0,0.0,0.0,0.0,-2.1846,-2.1616,-2.1256,0.0,-2.016,0.0,0.0,0.0,0.0,0.0,0.0,0.0,0.0,0.0,0.0,0.0,0.0,0.0,0.0,0.0,0.0,0.0,0.0,0.0,0.0,0.0,0.0,0.0,0.0,0.0,0.0,0.0,0.0,0.0,0.0,0.0,0.0,0.0,0.0,0.0,0.0,0.0,0.0,0.0,0.0,0.0,0.0,0.0,0.0,0.0,0.0,0.0,0.0,0.0,0.0,0.0,0.0,0.0,0.0,0.0,0.0,0.0,0.0,0.0,0.0,0.0,0.0,0.0,0.0,0.0,0.0,0.0,0.0,0.0,0.0,0.0,0.0,0.0,0.0,0.0,0.0,0.0,0.0,0.0,0.0,0.0,0.0,0.0,0.0,0.0,0.0,0.0,0.0,0.0,0.0,0.0,0.0,0.0,0.0,0.0,0.0,0.0,0.0,0.0,0.0,0.0,0.0,0.0,0.0,0.0,0.0,0.0,0.0,0.0,0.0,-2.1647,-2.1152,-2.0811,-2.0575,0.0,0.0,0.0,0.0,0.0,0.0,0.0,0.0,0.0,0.0,0.0,0.0,0.0,0.0,0.0,0.0,0.0,0.0,0.0,0.0,0.0,0.0,0.0,0.0,0.0,0.0,0.0,0.0,0.0,0.0,0.0,0.0,0.0,0.0,0.0,0.0,0.0,0.0,0.0,0.0,0.0,0.0,0.0,0.0,0.0,0.0,0.0,0.0,0.0,0.0,0.0,0.0,0.0,0.0,0.0,0.0,0.0,0.0,0.0,0.0,0.0,0.0,0.0,0.0,0.0,0.0,0.0,0.0,0.0,0.0,0.0,0.0,0.0,0.0,0.0,0.0,0.0,0.0,0.0,0.0,0.0,0.0,0.0,0.0,0.0,0.0,0.0,0.0,0.0,0.0,0.0,0.0,0.0,0.0,0.0,0.0,0.0,0.0,0.0,0.0,0.0,0.0,0.0,0.0,0.0,0.0,0.0,0.0,0.0,0.0,-2.1706,0.0,-2.1184,-2.0803,-2.0579,-2.0512,0.0,0.0,0.0,0.0,0.0,0.0,0.0,0.0,0.0,0.0,0.0,0.0,0.0,0.0,0.0,0.0,0.0,0.0,0.0,0.0,0.0,0.0,0.0,0.0,0.0,0.0,0.0,0.0,0.0,0.0,0.0,0.0,0.0,0.0,0.0,0.0,0.0,0.0,0.0,0.0,0.0,0.0,0.0,0.0,0.0,0.0,0.0,0.0,0.0,0.0,0.0,0.0,0.0,0.0,0.0,0.0,0.0,0.0,0.0,0.0,0.0,0.0,0.0,0.0,0.0,0.0,0.0,0.0,0.0,0.0,0.0,0.0,0.0,0.0,0.0,0.0,0.0,0.0,0.0,0.0,0.0,0.0,0.0,0.0,0.0,0.0,0.0,0.0,0.0,0.0,0.0,0.0,0.0,0.0,0.0,0.0,0.0,0.0,0.0,0.0,0.0,0.0,0.0,0.0,0.0,0.0,0.0,0.0,0.0,-2.2229,-2.1628,-2.2021,-2.1596,-2.1023,0.0,0.0,0.0,0.0,0.0,0.0,0.0,0.0,0.0,0.0,0.0,0.0,0.0,0.0,0.0,0.0,0.0,0.0,0.0,0.0,0.0,0.0,0.0,0.0,0.0,0.0,0.0,0.0,0.0,0.0,0.0,0.0,0.0,0.0,0.0,0.0,0.0,0.0,0.0,0.0,0.0,0.0,0.0,0.0,0.0,0.0,0.0,0.0,0.0,0.0,0.0,0.0,0.0,0.0,0.0,0.0,0.0,0.0,0.0,0.0,0.0,0.0,0.0,0.0,0.0,0.0,0.0,0.0,0.0,0.0,0.0,0.0,0.0,0.0,0.0,0.0,0.0,0.0,0.0,0.0,0.0,0.0,0.0,0.0,0.0,0.0,0.0,0.0,0.0,0.0,0.0,0.0,0.0,0.0,0.0,0.0,0.0,0.0,0.0,0.0,0.0,0.0,0.0,0.0,0.0,0.0,0.0,0.0,0.0,-2.1846,-2.14,-2.1772,-2.2811,-2.1404,-2.0506,0.0,0.0,0.0,0.0,0.0,0.0,0.0,0.0,0.0,0.0,0.0,0.0,0.0,0.0,0.0,0.0,0.0,0.0,0.0,0.0,0.0,0.0,0.0,0.0,0.0,0.0,0.0,0.0,0.0,0.0,0.0,0.0,0.0,0.0,0.0,0.0,0.0,0.0,0.0,0.0,0.0,0.0,0.0,0.0,0.0,0.0,0.0,0.0,0.0,0.0,0.0,0.0,0.0,0.0,0.0,0.0,0.0,0.0,0.0,0.0,0.0,0.0,0.0,0.0,0.0,0.0,0.0,0.0,0.0,0.0,0.0,0.0,0.0,0.0,0.0,0.0,0.0,0.0,0.0,0.0,0.0,0.0,0.0,0.0,0.0,0.0,0.0,0.0,0.0,0.0,0.0,0.0,0.0,0.0,0.0,0.0,0.0,0.0,0.0,0.0,0.0,0.0,0.0,0.0,0.0,0.0,0.0,0.0,0.0,-2.2016,0.0,-2.2535,0.0,-2.1279,-2.0115,0.0,0.0,0.0,0.0,0.0,0.0,0.0,0.0,0.0,0.0,0.0,0.0,0.0,0.0,0.0,0.0,0.0,0.0,0.0,0.0,0.0,0.0,0.0,0.0,0.0,0.0,0.0,0.0,0.0,0.0,0.0,0.0,0.0,0.0,0.0,0.0,0.0,0.0,0.0,0.0,0.0,0.0,0.0,0.0,0.0,0.0,0.0,0.0,0.0,0.0,0.0,0.0,0.0,0.0,0.0,0.0,0.0,0.0,0.0,0.0,0.0,0.0,0.0,0.0,0.0,0.0,0.0,0.0,0.0,0.0,0.0,0.0,0.0,0.0,0.0,0.0,0.0,0.0,0.0,0.0,0.0,0.0,0.0,0.0,0.0,0.0,0.0,0.0,0.0,0.0,0.0,0.0,0.0,0.0,0.0,0.0,0.0,0.0,0.0,0.0,0.0,0.0,0.0,0.0,0.0,0.0,0.0,0.0,-2.464,-2.4743,-2.4748,-2.3772,-2.191,-2.1293,-1.9907,0.0,0.0,0.0,0.0,0.0,0.0,0.0,0.0,0.0,0.0,0.0,0.0,0.0,0.0,0.0,0.0,0.0,0.0,0.0,0.0,0.0,0.0,0.0,0.0,0.0,0.0,0.0,0.0,0.0,0.0,0.0,0.0,0.0,0.0,0.0,0.0,0.0,0.0,0.0,0.0,0.0,0.0,0.0,0.0,0.0,0.0,0.0,0.0,0.0,0.0,0.0,0.0,0.0,0.0,0.0,0.0,0.0,0.0,0.0,0.0,0.0,0.0,0.0,0.0,0.0,0.0,0.0,0.0,0.0,0.0,0.0,0.0,0.0,0.0,0.0,0.0,0.0,0.0,0.0,0.0,0.0,0.0,0.0,0.0,0.0,0.0,0.0,0.0,0.0,0.0,0.0,0.0,0.0,0.0,0.0,0.0,0.0,0.0,0.0,0.0,0.0,0.0,0.0,0.0,0.0,0.0,0.0,0.0,0.0,-2.5174,-2.3935,-2.34,-2.3643,-2.1555,-2.0095,0.0,0.0,0.0,0.0,0.0,0.0,0.0,0.0,0.0,0.0,0.0,0.0,0.0,0.0,0.0,0.0,0.0,0.0,0.0,0.0,0.0,0.0,0.0,0.0,0.0,0.0,0.0,0.0,0.0,0.0,0.0,0.0,0.0,0.0,0.0,0.0,0.0,0.0,0.0,0.0,0.0,0.0,0.0,0.0,0.0,0.0,0.0,0.0,0.0,0.0,0.0,0.0,0.0,0.0,0.0,0.0,0.0,0.0,0.0,0.0,0.0,0.0,0.0,0.0,0.0,0.0,0.0,0.0,0.0,0.0,0.0,0.0,0.0,0.0,0.0,0.0,0.0,0.0,0.0,0.0,0.0,0.0,0.0,0.0,0.0,0.0,0.0,0.0,0.0,0.0,0.0,0.0,0.0,0.0,0.0,0.0,0.0,0.0,0.0,0.0,0.0,0.0,0.0,0.0,0.0,0.0,0.0,0.0,0.0,-2.5423,-2.4324,-2.3836,-2.3973,-2.1862,-2.0371,-1.9646,0.0,0.0,0.0,0.0,0.0,0.0,0.0,0.0,0.0,0.0,0.0,0.0,0.0,0.0,0.0,0.0,0.0,0.0,0.0,0.0,0.0,0.0,0.0,0.0,0.0,0.0,0.0,0.0,0.0,0.0,0.0,0.0,0.0,0.0,0.0,0.0,0.0,0.0,0.0,0.0,0.0,0.0,0.0,0.0,0.0,0.0,0.0,0.0,0.0,0.0,0.0,0.0,0.0,0.0,0.0,0.0,0.0,0.0,0.0,0.0,0.0,0.0,0.0,0.0,0.0,0.0,0.0,0.0,0.0,0.0,0.0,0.0,0.0,0.0,0.0,0.0,0.0,0.0,0.0,0.0,0.0,0.0,0.0,0.0,0.0,0.0,0.0,0.0,0.0,0.0,0.0,0.0,0.0,0.0,0.0,0.0,0.0,0.0,0.0,0.0,0.0,0.0,0.0,0.0,0.0,0.0,0.0,0.0,-2.5515,-2.5756,-2.4981,-2.3111,-2.2253,-2.0818,0.0,0.0,0.0,0.0,0.0,0.0,0.0,0.0,0.0,0.0,0.0,0.0,0.0,0.0,0.0,0.0,0.0,0.0,0.0,0.0,0.0,0.0,0.0,0.0,0.0,0.0,0.0,0.0,0.0,0.0,0.0,0.0,0.0,0.0,0.0,0.0,0.0,0.0,0.0,0.0,0.0,0.0,0.0,0.0,0.0,0.0,0.0,0.0,0.0,0.0,0.0,0.0,0.0,0.0,0.0,0.0,0.0,0.0,0.0,0.0,0.0,0.0,0.0,0.0,0.0,0.0,0.0,0.0,0.0,0.0,0.0,0.0,0.0,0.0,0.0,0.0,0.0,0.0,0.0,0.0,0.0,0.0,0.0,0.0,0.0,0.0,0.0,0.0,0.0,0.0,0.0,0.0,0.0,0.0,0.0,0.0,0.0,0.0,0.0,0.0,0.0,0.0,0.0,0.0,0.0,0.0,0.0,0.0,0.0,-2.5574,-2.5589,-2.5277,-2.4505,-2.2947,-2.1663,0.0,0.0,0.0,0.0,0.0,0.0,0.0,0.0,0.0,0.0,0.0,0.0,0.0,0.0,0.0,0.0,0.0,0.0,0.0,0.0,0.0,0.0,0.0,0.0,0.0,0.0,0.0,0.0,0.0,0.0,0.0,0.0,0.0,0.0,0.0,0.0,0.0,0.0,0.0,0.0,0.0,0.0,0.0,0.0,0.0,0.0,0.0,0.0,0.0,0.0,0.0,0.0,0.0,0.0,0.0,0.0,0.0,0.0,0.0,0.0,0.0,0.0,0.0,0.0,0.0,0.0,0.0,0.0,0.0,0.0,0.0,0.0,0.0,0.0,0.0,0.0,0.0,0.0,0.0,0.0,0.0,0.0,0.0,0.0,0.0,0.0,0.0,0.0,0.0,0.0,0.0,0.0,0.0,0.0,0.0,0.0,0.0,0.0,0.0,0.0,0.0,0.0,0.0,0.0,0.0,0.0,0.0,0.0,-2.4998,-2.4965,-2.5153,-2.5028,-2.4475,-2.3492,-2.2505,0.0,0.0,0.0,0.0,0.0,0.0,0.0,0.0,0.0,0.0,0.0,0.0,0.0,0.0,0.0,0.0,0.0,0.0,0.0,0.0,0.0,0.0,0.0,0.0,0.0,0.0,0.0,0.0,0.0,0.0,0.0,0.0,0.0,0.0,0.0,0.0,0.0,0.0,0.0,0.0,0.0,0.0,0.0,0.0,0.0,0.0,0.0,0.0,0.0,0.0,0.0,0.0,0.0,0.0,0.0,0.0,0.0,0.0,0.0,0.0,0.0,0.0,0.0,0.0,0.0,0.0,0.0,0.0,0.0,0.0,0.0,0.0,0.0,0.0,0.0,0.0,0.0,0.0,0.0,0.0,0.0,0.0,0.0,0.0,0.0,0.0,0.0,0.0,0.0,0.0,0.0,0.0,0.0,0.0,0.0,0.0,0.0,0.0,0.0,0.0,0.0,0.0,0.0,0.0,0.0,0.0,0.0,0.0,-2.4545,-2.4009,-2.4668,-2.4548,-2.3583,-2.3758,-2.3214,0.0,0.0,0.0,0.0,0.0,0.0,0.0,0.0,0.0,0.0,0.0,0.0,0.0,0.0,0.0,0.0,0.0,0.0,0.0,0.0,0.0,0.0,0.0,0.0,0.0,0.0,0.0,0.0,0.0,0.0,0.0,0.0,0.0,0.0,0.0,0.0,0.0,0.0,0.0,0.0,0.0,0.0,0.0,0.0,0.0,0.0,0.0,0.0,0.0,0.0,0.0,0.0,0.0,0.0,0.0,0.0,0.0,0.0,0.0,0.0,0.0,0.0,0.0,0.0,0.0,0.0,0.0,0.0,0.0,0.0,0.0,0.0,0.0,0.0,0.0,0.0,0.0,0.0,0.0,0.0,0.0,0.0,0.0,0.0,0.0,0.0,0.0,0.0,0.0,0.0,0.0,0.0,0.0,0.0,0.0,0.0,0.0,0.0,0.0,0.0,0.0,0.0,0.0,0.0,0.0,0.0,0.0,0.0,-2.3912,-2.3356,-2.4421,-2.4329,-2.3017,-2.3084,-2.2848,0.0,0.0,0.0,0.0,0.0,0.0,0.0,0.0,0.0,0.0,0.0,0.0,0.0,0.0,0.0,0.0,0.0,0.0,0.0,0.0,0.0,0.0,0.0,0.0,0.0,0.0,0.0,0.0,0.0,0.0,0.0,0.0,0.0,0.0,0.0,0.0,0.0,0.0,0.0,0.0,0.0,0.0,0.0,0.0,0.0,0.0,0.0,0.0,-3.0762,0.0,0.0,0.0,0.0,0.0,0.0,0.0,0.0,0.0,0.0,0.0,0.0,0.0,0.0,0.0,0.0,0.0,0.0,0.0,0.0,0.0,0.0,0.0,0.0,0.0,0.0,0.0,0.0,0.0,0.0,0.0,0.0,0.0,0.0,0.0,0.0,0.0,0.0,0.0,0.0,0.0,0.0,0.0,0.0,0.0,0.0,0.0,0.0,0.0,0.0,0.0,0.0,0.0,0.0,0.0,0.0,0.0,0.0,0.0,-2.3125,-2.2928,-2.3972,-2.3993,-2.2889,-2.2936,-2.2694,0.0,0.0,0.0,0.0,0.0,0.0,0.0,0.0,0.0,0.0,0.0,0.0,0.0,0.0,0.0,0.0,0.0,0.0,0.0,0.0,0.0,0.0,0.0,0.0,0.0,0.0,0.0,0.0,0.0,0.0,0.0,0.0,0.0,0.0,0.0,0.0,0.0,0.0,0.0,0.0,0.0,0.0,0.0,0.0,0.0,0.0,0.0,0.0,0.0,0.0,0.0,0.0,0.0,0.0,0.0,0.0,0.0,0.0,0.0,0.0,0.0,0.0,0.0,0.0,0.0,0.0,0.0,0.0,0.0,0.0,0.0,0.0,0.0,0.0,0.0,0.0,0.0,0.0,0.0,0.0,0.0,0.0,0.0,0.0,0.0,0.0,0.0,0.0,0.0,0.0,0.0,0.0,0.0,0.0,0.0,0.0,0.0,0.0,0.0,0.0,0.0,0.0,0.0,0.0,0.0,0.0,0.0,-2.1968,-2.256,-2.2477,-2.3399,-2.3492,-2.2655,-2.2868,-2.2528,-2.1584,0.0,0.0,0.0,0.0,0.0,0.0,0.0,0.0,0.0,0.0,0.0,0.0,0.0,0.0,0.0,0.0,0.0,0.0,0.0,0.0,0.0,0.0,0.0,0.0,0.0,0.0,0.0,0.0,0.0,0.0,0.0,0.0,0.0,0.0,0.0,0.0,0.0,0.0,-3.0806,-3.2206,0.0,0.0,0.0,0.0,0.0,0.0,0.0,0.0,-3.0558,0.0,0.0,0.0,0.0,0.0,0.0,0.0,0.0,0.0,0.0,0.0,0.0,0.0,0.0,0.0,0.0,0.0,0.0,0.0,0.0,0.0,0.0,0.0,0.0,0.0,0.0,0.0,0.0,0.0,0.0,0.0,0.0,0.0,0.0,0.0,0.0,0.0,0.0,0.0,0.0,0.0,0.0,0.0,0.0,0.0,0.0,0.0,0.0,0.0,0.0,0.0,0.0,0.0,0.0,0.0,0.0,-2.0649,-2.2259,-2.2605,-2.1617,-2.2642,-2.2757,-2.1923,-2.2283,-2.1971,-2.0905,0.0,0.0,0.0,0.0,0.0,0.0,0.0,0.0,0.0,0.0,0.0,0.0,0.0,0.0,0.0,0.0,0.0,0.0,0.0,0.0,0.0,0.0,0.0,0.0,0.0,0.0,0.0,0.0,0.0,0.0,0.0,0.0,0.0,0.0,0.0,0.0,0.0,0.0,0.0,-3.1907,-3.2206,0.0,0.0,0.0,0.0,0.0,0.0,0.0,0.0,-3.0377,0.0,0.0,0.0,0.0,0.0,0.0,0.0,0.0,0.0,0.0,0.0,0.0,0.0,0.0,0.0,0.0,0.0,0.0,0.0,0.0,0.0,0.0,0.0,0.0,0.0,0.0,0.0,0.0,0.0,0.0,0.0,0.0,0.0,0.0,0.0,0.0,0.0,0.0,0.0,0.0,0.0,0.0,0.0,0.0,0.0,0.0,0.0,0.0,0.0,0.0,0.0,0.0,0.0,0.0,0.0,-2.0531,-2.1722,-2.2153,-2.1691,-2.2281,-2.2289,-2.1592,-2.209,-2.1774,0.0,0.0,0.0,0.0,0.0,0.0,0.0,0.0,0.0,0.0,0.0,0.0,0.0,0.0,0.0,0.0,0.0,0.0,0.0,0.0,0.0,0.0,0.0,0.0,0.0,0.0,0.0,0.0,0.0,0.0,0.0,0.0,0.0,0.0,0.0,0.0,0.0,0.0,0.0,0.0,-3.1452,-3.1619,-3.1711,0.0,0.0,0.0,0.0,0.0,0.0,-3.0388,-3.0398,0.0,0.0,0.0,0.0,0.0,0.0,0.0,0.0,0.0,0.0,0.0,0.0,0.0,0.0,0.0,0.0,0.0,0.0,0.0,0.0,0.0,0.0,0.0,0.0,0.0,0.0,0.0,0.0,0.0,0.0,0.0,0.0,0.0,0.0,0.0,0.0,0.0,0.0,0.0,0.0,0.0,0.0,0.0,0.0,0.0,0.0,0.0,0.0,0.0,0.0,0.0,0.0,0.0,0.0,0.0,-2.0815,-2.1535,-2.1937,-2.1887,-2.2094,-2.1901,-2.1361,-2.1921,-2.1594,0.0,0.0,0.0,0.0,0.0,0.0,0.0,0.0,0.0,0.0,0.0,0.0,0.0,0.0,0.0,0.0,0.0,0.0,0.0,0.0,0.0,0.0,0.0,0.0,0.0,0.0,0.0,0.0,0.0,0.0,0.0,0.0,0.0,0.0,0.0,0.0,0.0,0.0,0.0,0.0,0.0,-3.0986,-3.0922,-3.148,0.0,0.0,0.0,0.0,-2.9793,-2.955,0.0,0.0,0.0,0.0,0.0,0.0,0.0,0.0,0.0,0.0,0.0,0.0,0.0,0.0,0.0,0.0,0.0,0.0,0.0,0.0,0.0,0.0,0.0,0.0,0.0,0.0,0.0,0.0,0.0,0.0,0.0,0.0,0.0,0.0,0.0,0.0,0.0,0.0,0.0,0.0,0.0,0.0,0.0,0.0,0.0,0.0,0.0,0.0,0.0,0.0,0.0,0.0,0.0,0.0,0.0,0.0,-2.2501,-2.264,-2.2428,-2.1844,-2.1793,-2.1558,-2.115,-2.15,-2.1272,0.0,0.0,0.0,0.0,0.0,0.0,0.0,0.0,0.0,0.0,0.0,0.0,0.0,0.0,0.0,0.0,0.0,0.0,0.0,0.0,0.0,0.0,0.0,0.0,0.0,0.0,0.0,0.0,0.0,0.0,0.0,0.0,0.0,0.0,0.0,0.0,0.0,0.0,0.0,0.0,0.0,-2.9746,-2.9318,-2.9831,-3.0045,0.0,0.0,-2.6106,-2.7984,-2.7704,0.0,0.0,0.0,0.0,0.0,0.0,0.0,0.0,0.0,0.0,0.0,0.0,0.0,0.0,0.0,0.0,0.0,0.0,0.0,0.0,0.0,0.0,0.0,0.0,0.0,0.0,0.0,0.0,0.0,0.0,0.0,0.0,0.0,0.0,0.0,0.0,0.0,0.0,0.0,0.0,0.0,0.0,0.0,0.0,0.0,0.0,0.0,0.0,0.0,0.0,0.0,0.0,0.0,0.0,0.0,-2.2962,-2.3683,-2.3748,-2.3477,-2.2924,-2.2142,-2.1576,-2.132,-2.1599,-2.1264,0.0,0.0,0.0,0.0,0.0,0.0,0.0,0.0,0.0,0.0,0.0,0.0,0.0,0.0,0.0,0.0,0.0,0.0,0.0,0.0,0.0,0.0,0.0,0.0,0.0,0.0,0.0,0.0,0.0,0.0,0.0,0.0,0.0,0.0,0.0,0.0,0.0,0.0,0.0,0.0,0.0,0.0,-2.9286,-3.0219,0.0,0.0,0.0,-2.3348,-2.4769,0.0,0.0,0.0,0.0,0.0,0.0,0.0,0.0,0.0,0.0,0.0,0.0,0.0,0.0,0.0,0.0,0.0,0.0,0.0,0.0,0.0,0.0,0.0,0.0,0.0,0.0,0.0,0.0,0.0,0.0,0.0,0.0,0.0,0.0,0.0,0.0,0.0,0.0,0.0,0.0,0.0,0.0,0.0,0.0,0.0,0.0,0.0,0.0,0.0,0.0,0.0,0.0,0.0,0.0,0.0,0.0,0.0,-2.5239,-2.5093,-2.4701,-2.3959,-2.268,-2.1919,-2.1797,-2.1787,0.0,0.0,0.0,0.0,0.0,0.0,0.0,0.0,0.0,0.0,0.0,0.0,0.0,0.0,0.0,0.0,0.0,0.0,0.0,0.0,0.0,0.0,0.0,0.0,0.0,0.0,0.0,-2.9971,0.0,0.0,0.0,0.0,0.0,0.0,0.0,0.0,0.0,0.0,0.0,0.0,0.0,0.0,-2.805,-2.8707,-2.9995,-2.9844,0.0,0.0,-2.0859,-2.2013,-2.3524,-2.5313,0.0,0.0,0.0,0.0,0.0,0.0,0.0,0.0,0.0,0.0,0.0,0.0,0.0,0.0,0.0,0.0,0.0,0.0,0.0,0.0,0.0,0.0,0.0,0.0,0.0,0.0,0.0,0.0,0.0,0.0,0.0,0.0,0.0,0.0,0.0,0.0,0.0,0.0,0.0,0.0,0.0,0.0,0.0,0.0,0.0,0.0,0.0,0.0,0.0,0.0,0.0,0.0,0.0,0.0,0.0,-2.7636,-2.7035,-2.5985,-2.4507,-2.334,-2.2635,-2.2526,-2.2,-2.1873,0.0,0.0,0.0,0.0,0.0,0.0,0.0,0.0,0.0,0.0,0.0,0.0,0.0,0.0,0.0,0.0,0.0,0.0,0.0,0.0,0.0,0.0,0.0,0.0,0.0,0.0,0.0,0.0,0.0,0.0,0.0,0.0,0.0,0.0,0.0,0.0,0.0,0.0,0.0,0.0,0.0,-2.6355,-2.6586,-2.8111,-2.8605,0.0,0.0,-1.8967,-2.0587,-2.1463,-2.2843,-2.5394,0.0,0.0,0.0,0.0,0.0,0.0,0.0,0.0,0.0,0.0,0.0,0.0,0.0,0.0,0.0,0.0,0.0,0.0,0.0,0.0,0.0,0.0,0.0,0.0,0.0,0.0,0.0,0.0,0.0,0.0,0.0,0.0,0.0,0.0,0.0,0.0,0.0,0.0,0.0,0.0,0.0,0.0,0.0,0.0,0.0,0.0,0.0,0.0,0.0,0.0,0.0,0.0,0.0,-2.9159,-2.921,-2.8841,-2.7978,-2.6648,-2.5194,-2.4208,-2.366,-2.33,-2.3025,0.0,0.0,0.0,0.0,0.0,0.0,0.0,0.0,0.0,0.0,0.0,0.0,0.0,0.0,0.0,0.0,0.0,0.0,0.0,0.0,0.0,0.0,0.0,0.0,0.0,0.0,0.0,0.0,-3.0045,-2.8954,-2.6758,0.0,0.0,0.0,0.0,0.0,0.0,0.0,0.0,0.0,0.0,-2.5157,-2.597,-2.7087,0.0,0.0,-2.284,-2.0955,-2.0391,-2.1541,-2.3097,-2.482,-2.5704,0.0,0.0,0.0,0.0,0.0,0.0,0.0,0.0,0.0,0.0,0.0,0.0,0.0,0.0,0.0,0.0,0.0,0.0,0.0,0.0,0.0,0.0,0.0,0.0,0.0,0.0,0.0,0.0,0.0,0.0,0.0,0.0,0.0,0.0,0.0,0.0,0.0,0.0,0.0,0.0,0.0,0.0,0.0,0.0,0.0,0.0,0.0,0.0,0.0,0.0,0.0,0.0,-3.0869,-3.0501,-3.0389,-2.9623,-2.8175,-2.6697,-2.5667,-2.5138,-2.4494,-2.412,0.0,0.0,0.0,0.0,0.0,0.0,0.0,0.0,0.0,0.0,0.0,0.0,0.0,0.0,0.0,0.0,0.0,0.0,0.0,0.0,0.0,0.0,0.0,0.0,0.0,0.0,0.0,0.0,-3.0601,-2.9131,-2.5729,0.0,0.0,0.0,0.0,0.0,0.0,0.0,0.0,0.0,0.0,-2.4011,-2.4885,-2.5676,-2.582,-2.4934,-2.4223,-2.3279,-2.184,-2.236,-2.3313,-2.4447,0.0,0.0,0.0,0.0,0.0,0.0,0.0,0.0,0.0,0.0,0.0,0.0,0.0,0.0,0.0,0.0,0.0,0.0,0.0,0.0,0.0,0.0,0.0,0.0,0.0,0.0,0.0,-3.5946,0.0,0.0,-3.7087,0.0,0.0,0.0,0.0,0.0,0.0,0.0,0.0,0.0,0.0,0.0,0.0,0.0,0.0,0.0,0.0,0.0,0.0,0.0,0.0,0.0,0.0,-3.2462,-3.1686,-3.1686,-3.0753,-2.8831,-2.7478,-2.6843,-2.6941,-2.5345,-2.5087,-2.6442,0.0,0.0,0.0,0.0,0.0,0.0,0.0,0.0,0.0,0.0,0.0,0.0,0.0,0.0,0.0,0.0,0.0,0.0,0.0,0.0,0.0,0.0,0.0,0.0,0.0,0.0,-3.0999,-2.9451,-2.7585,0.0,0.0,0.0,0.0,0.0,0.0,0.0,0.0,0.0,0.0,-2.3016,-2.2797,-2.3029,-2.3751,-2.4719,-2.6121,-2.586,-2.5391,-2.5037,-2.3792,-2.3122,0.0,0.0,0.0,0.0,0.0,0.0,0.0,0.0,0.0,0.0,0.0,0.0,0.0,0.0,0.0,0.0,0.0,0.0,0.0,0.0,0.0,0.0,0.0,0.0,0.0,0.0,0.0,-3.6428,-3.6031,0.0,0.0,0.0,0.0,0.0,0.0,0.0,0.0,0.0,0.0,0.0,-4.5883,-4.6512,0.0,0.0,0.0,0.0,0.0,0.0,0.0,0.0,0.0,0.0,0.0,0.0,-3.2342,-3.1811,-3.1811,-3.0971,-2.929,-2.8177,-2.7306,-2.6671,-2.6009,-2.6109,-2.7078,0.0,0.0,0.0,0.0,0.0,0.0,0.0,0.0,0.0,0.0,0.0,0.0,0.0,0.0,0.0,0.0,0.0,0.0,0.0,0.0,0.0,0.0,0.0,0.0,0.0,-3.1947,0.0,0.0,0.0,0.0,0.0,0.0,0.0,0.0,0.0,0.0,0.0,-2.3701,-2.2877,-2.2281,-2.178,-2.1478,-2.2101,-2.2804,0.0,0.0,0.0,0.0,0.0,0.0,0.0,0.0,0.0,0.0,0.0,0.0,0.0,0.0,-2.246,-2.2617,-2.3577,-2.4193,-2.3686,0.0,0.0,0.0,0.0,0.0,0.0,0.0,0.0,0.0,0.0,0.0,0.0,0.0,0.0,-3.6856,0.0,-3.7522,0.0,0.0,0.0,0.0,0.0,0.0,0.0,0.0,-4.4131,-4.485,-4.5991,-4.6285,-4.6618,0.0,-4.6353,-4.4572,0.0,0.0,0.0,0.0,0.0,0.0,0.0,0.0,-3.2249,-3.1746,-3.1643,-3.0893,-2.955,-2.8649,-2.7852,-2.7102,-2.7024,-2.731,-2.7998,-2.8232,-2.8433,0.0,0.0,0.0,0.0,0.0,0.0,0.0,0.0,0.0,0.0,0.0,0.0,0.0,0.0,0.0,0.0,0.0,0.0,0.0,0.0,0.0,0.0,0.0,-3.1962,0.0,0.0,0.0,0.0,0.0,0.0,0.0,0.0,0.0,-2.4348,-2.3931,-2.3371,-2.2584,-2.1697,-2.1021,-2.0635,0.0,0.0,0.0,0.0,0.0,0.0,0.0,-2.4237,-2.3715,-2.3792,-2.3913,-2.4063,-2.4421,-2.4553,-2.4307,0.0,0.0,-2.0862,-2.2074,-2.2783,-2.1887,-2.1531,-2.1193,-2.054,-1.9346,-1.8353,0.0,0.0,0.0,0.0,0.0,0.0,0.0,0.0,-3.635,-3.6567,0.0,-3.7443,0.0,0.0,0.0,0.0,-4.1148,-4.1395,0.0,0.0,-4.3542,-4.4477,-4.643,-4.4841,-4.5042,-4.6763,-4.5485,-4.3899,-4.2087,-4.0622,0.0,0.0,0.0,0.0,0.0,0.0,-3.219,-3.1448,-3.1164,-3.0535,-2.9436,-2.88,-2.8462,-2.8342,-2.83,-2.8577,-2.9234,-2.9871,-2.9895,-2.9038,-2.9452,0.0,0.0,0.0,0.0,0.0,0.0,0.0,0.0,0.0,0.0,0.0,0.0,0.0,0.0,0.0,0.0,0.0,0.0,0.0,0.0,-3.057,0.0,0.0,0.0,0.0,0.0,0.0,0.0,0.0,0.0,0.0,-2.3741,-2.3496,-2.3121,-2.2407,0.0,0.0,0.0,0.0,-1.9579,-2.0223,-2.1281,-2.2512,-2.3839,-2.3904,-2.3771,-2.3742,0.0,0.0,-2.3622,-2.2212,-2.1641,-2.3317,-2.1033,-1.8958,-1.9392,-2.0458,-2.0971,-2.0124,-1.9748,-1.9418,-1.9109,-1.8052,-1.705,-3.5921,0.0,0.0,0.0,0.0,-3.6157,-3.6258,-3.5949,-3.7138,-3.7452,-3.7235,-3.8715,0.0,0.0,0.0,0.0,0.0,0.0,-4.1593,-4.2398,-4.1882,-4.2201,-4.3145,-4.2602,-4.2638,-4.3196,-4.2606,-4.1312,-3.9425,-3.7886,-3.7014,-3.6838,0.0,0.0,0.0,0.0,-2.9211,-2.9251,-2.9088,-2.8583,-2.7709,-2.754,-2.7555,-2.7742,-2.7961,-2.8778,-3.0225,-3.0364,-3.0445,-3.0552,-3.0042,0.0,0.0,0.0,0.0,0.0,0.0,0.0,0.0,0.0,0.0,0.0,0.0,0.0,0.0,0.0,0.0,0.0,0.0,0.0,-2.9465,-2.977,-2.9643,0.0,0.0,0.0,0.0,0.0,0.0,0.0,0.0,0.0,-2.2191,-2.2048,-2.1835,0.0,0.0,-2.0253,-1.9776,-1.9909,-2.015,-2.0281,-2.0617,0.0,-2.2787,-2.3257,-2.3341,-2.3048,-2.2634,-2.2261,-2.2069,-2.1482,-2.1078,-2.1338,-2.0546,-1.96,-1.8727,-1.9363,-1.9857,-1.95,-1.908,-1.8557,-1.7939,-1.7214,-1.6616,-3.478,-3.4572,-3.5131,-3.5004,-3.4553,-3.547,-3.5863,-3.601,-3.7219,-3.7793,-3.7994,-3.9302,-3.9586,-3.9134,-4.0114,0.0,0.0,0.0,-4.1148,-4.1064,-4.0832,-4.0686,-4.0566,-4.0345,-4.0055,-3.9713,-3.9377,-3.8267,-3.6458,-3.5314,-3.459,-3.4251,0.0,0.0,-3.0559,-2.8877,-2.7925,-2.7788,-2.7827,-2.7521,-2.6901,-2.7091,-2.7401,-2.7717,-2.8074,-2.9069,-3.0803,-3.0462,-3.0483,-3.1022,-3.0214,-2.9086,0.0,0.0,0.0,0.0,0.0,0.0,0.0,0.0,0.0,0.0,0.0,-2.917,-3.042,0.0,0.0,0.0,-2.837,-2.8858,-2.9398,-2.8822,0.0,0.0,0.0,0.0,0.0,0.0,0.0,-2.2441,-2.2271,-2.1929,-2.0798,-2.0448,-2.0374,-2.0486,-2.0078,-1.9652,-1.9447,0.0,-1.9627,-1.9683,-2.0065,-2.06,-2.1547,-2.2274,-2.2621,-2.2417,-2.2098,-2.1788,-2.1473,-2.1338,-2.1051,-2.0464,-2.0292,-1.9973,-1.8881,-1.9058,-1.9188,-1.8819,-1.835,-1.7846,-1.7293,-1.687,-1.64,-3.3163,-3.2568,-3.2919,-3.329,-3.3707,-3.4229,-3.52,-3.6373,-3.683,-3.7785,-3.9011,-3.947,-3.9965,-4.0535,-4.1274,0.0,-4.0864,-4.117,-4.0912,-4.0206,-4.0049,-3.9535,-3.8683,-3.8136,-3.7415,-3.6473,-3.608,-3.5035,-3.3457,-3.2847,-3.1825,-3.0342,-2.9937,-2.9271,-2.8399,-2.8102,-2.7539,-2.6713,-2.6966,-2.698,-2.671,-2.7344,-2.7847,-2.8196,-2.85,-2.9434,-3.0934,-3.0365,-3.0188,-3.0618,-3.004,-2.8868,-2.6952,0.0,0.0,0.0,0.0,0.0,0.0,0.0,0.0,0.0,0.0,0.0,0.0,0.0,0.0,0.0,-2.7369,0.0,-2.9383,-2.7761,0.0,0.0,0.0,-2.6117,-2.7898,-2.5986,-2.3808,-2.1862,0.0,0.0,-1.9564,-1.8926,-1.8877,-1.979,-1.9206,-1.8879,-1.936,-1.8825,-1.8457,-1.8808,-1.9646,-2.0292,-2.0454,-2.127,-2.1914,-2.1947,-2.1878,-2.1762,-2.1473,-2.1562,-2.1284,-2.0564,-2.0329,-2.011,-1.9671,-1.9204,-1.8735,-1.8319,-1.78,-1.738,-1.7095,-1.6933,-1.645,-3.1455,-3.1093,-3.1083,-3.1626,-3.2624,-3.4267,-3.5317,-3.602,-3.6998,-3.7982,-3.8896,-3.9822,-4.0522,-4.1084,-4.0965,-4.0793,-4.0529,-4.0058,-3.9687,-3.9367,-3.7877,-3.7313,-3.7518,-3.6056,-3.5133,-3.4588,-3.3522,-3.2285,-3.0936,-2.9768,-2.8491,-2.717,-2.6817,-2.687,-2.7225,-2.575,-2.4723,-2.4276,-2.4408,-2.5133,-2.6457,-2.761,-2.8439,-2.8923,-2.9161,-2.9631,-3.0388,-2.9951,-2.9618,-2.9464,-2.9839,-2.8967,-2.6493,-2.4845,0.0,0.0,0.0,0.0,0.0,0.0,0.0,0.0,0.0,-2.8226,-2.9861,0.0,-2.641,0.0,-2.7383,-2.7776,-2.6891,-2.6253,0.0,0.0,-2.4714,-2.445,-2.4398,-2.4298,-2.3408,-2.1302,-2.1054,-2.0428,-1.8768,-1.8264,-1.7878,-1.7481,-1.7652,-1.7914,-1.8169,-1.8073,-1.8157,-1.8728,-1.9629,-2.0292,-2.0371,-2.1226,-2.1915,-2.1904,-2.1808,-2.1662,-2.1455,-2.1571,-2.1517,-2.0961,-2.051,-2.0164,-1.9679,-1.9496,-1.9212,-1.8743,-1.8419,-1.8001,-1.7394,-1.721,-1.6794,-3.0147,-3.0161,-3.0123,-3.0889,-3.2253,-3.3868,-3.5342,-3.6686,-3.7689,-3.8649,-3.9594,-4.0658,-4.1216,-4.1335,-4.1131,-4.0598,-3.9816,-3.9399,-3.8868,-3.8211,-3.6853,-3.6168,-3.6015,-3.4328,-3.3183,-3.2548,-3.1306,-3.0222,-2.9245,-2.8109,-2.7042,-2.6021,-2.546,-2.5157,-2.5052,-2.4322,-2.3608,-2.2955,-2.357,-2.4613,-2.5996,-2.7619,-2.871,-2.92,-2.9808,-3.015,-3.0214,-3.0004,-2.9504,-2.8622,-2.8765,-2.7938,-2.5844,-2.465,-2.4265,0.0,0.0,0.0,0.0,0.0,0.0,0.0,0.0,0.0,0.0,0.0,-2.6348,-2.6762,-2.6508,-2.6256,-2.5984,-2.498,-2.4225,-2.3939,-2.3291,-2.2837,-2.2802,-2.3179,-2.261,-2.0454,-1.9513,-1.8787,-1.8038,-1.7298,-1.6617,-1.6039,-1.6235,-1.6783,-1.7599,-1.7589,-1.7453,-1.7834,-1.9231,-2.0382,-2.0555,-2.1291,-2.1834,-2.1789,-2.1752,-2.1651,-2.1437,-2.1347,-2.1239,-2.0997,-2.0501,-1.9973,-1.9679,-1.9487,-1.925,-1.8843,-1.8574,-1.8195,-1.7481,-1.7344,-1.6978,-2.9155,-2.9391,-2.9721,-3.083,-3.2427,-3.3656,-3.5415,-3.75,-3.8451,-3.9521,-4.0599,-4.1525,-4.1715,-4.1357,-4.1343,-4.0499,-3.9061,-3.8979,-3.8312,-3.7107,-3.6238,-3.537,-3.4421,-3.2795,-3.1405,-3.0285,-2.9222,-2.8359,-2.7612,-2.6882,-2.6175,-2.5542,-2.4734,-2.3693,-2.2521,-2.3165,-2.308,-2.2347,-2.3574,-2.4672,-2.5627,-2.7698,-2.8949,-2.9441,-3.0379,-3.0689,-3.0291,-3.0184,-2.9469,-2.8041,-2.7355,-2.6405,-2.5094,-2.4765,-2.4701,0.0,-2.474,0.0,0.0,0.0,0.0,0.0,0.0,0.0,0.0,-2.6573,-2.7229,-2.7503,-2.5172,-2.4192,-2.5424,-2.3812,-2.2789,-2.304,-2.1879,-2.1395,-2.2231,-2.2315,-2.15,-1.9494,-1.7855,-1.7057,-1.7372,-1.63,-1.5428,-1.5311,-1.5304,-1.5859,-1.7181,-1.7149,-1.6892,-1.6746,-1.8752,-2.0428,-2.0826,-2.1284,-2.1625,-2.1607,-2.1607,-2.1562,-2.1293,-2.1032,-2.0843,-2.0817,-2.032,-1.9737,-1.9533,-1.9263,-1.8956,-1.8604,-1.8388,-1.8033,-1.7441,-1.727,-1.6891,-2.8787,-2.8249,-2.9952,-3.1656,-3.3269,-3.4792,-3.5888,-3.6753,-3.8568,-4.0156,-4.1425,-4.1523,-4.1372,-4.1171,-4.1171,-4.0242,-3.8612,-3.8215,-3.7585,-3.6703,-3.4888,-3.3759,-3.322,-3.1416,-2.9502,-2.7692,-2.7021,-2.6032,-2.4713,-2.4187,-2.3676,-2.3237,-2.2656,-2.1765,-2.068,0.0,0.0,0.0,-2.3295,-2.4748,-2.6278,-2.8527,-2.9967,-3.063,-3.075,0.0,-3.053,-2.9801,-2.8833,-2.7656,-2.6621,0.0,0.0,0.0,0.0,0.0,0.0,0.0,0.0,0.0,0.0,0.0,-2.4248,-2.4178,-2.4323,-2.6888,-2.7673,-2.5576,-2.3527,-2.2557,-2.3021,-2.2459,-2.1766,-2.1311,-2.0605,-2.05,-2.1394,-2.0868,-2.0081,-1.9305,-1.8175,-1.7273,-1.6863,-1.6163,-1.5558,-1.5163,-1.5219,-1.5543,-1.6061,-1.6802,-1.7115,-1.6957,-1.8785,-2.0348,-2.0699,-2.0952,-2.1096,-2.1141,-2.1132,-2.1051,-2.0897,-2.0843,-2.0663,-2.0518,-2.0102,-1.96,-1.9104,-1.8696,-1.8526,-1.8473,-1.7934,-1.7354,-1.7109,-1.7072,-1.6737,-2.8802,-2.8762,-3.0468,-3.2449,0.0,-3.5617,-3.6585,-3.7535,-3.8906,-4.0099,-4.1033,-4.0983,-4.0556,-4.0014,-3.9671,-3.8774,-3.739,-3.6942,-3.6522,-3.6107,-3.4404,-3.3608,-3.3495,-3.0856,-2.8767,-2.7224,-2.5952,-2.444,-2.2845,-2.2429,-2.1891,-2.1145,-2.0401,-1.9685,-1.8985,-1.8957,-1.974,-2.1321,-2.2721,-2.4075,-2.5511,-2.7742,-2.9064,-2.9463,-3.0065,0.0,0.0,0.0,0.0,0.0,0.0,0.0,0.0,0.0,0.0,-2.4108,-2.3668,-2.3477,-2.3676,-2.2947,-2.2585,-2.297,-2.3597,-2.4221,-2.4804,-2.67,-2.6945,-2.48,-2.28,-2.1654,-2.184,-2.1485,-2.0947,-2.0383,-1.9812,-1.9669,-2.0045,-1.9477,-1.8732,-1.7989,-1.7211,-1.6655,-1.6676,-1.5812,-1.5196,-1.5001,-1.4917,-1.511,-1.5733,-1.6845,-1.7564,-1.7333,-1.8943,-2.032,-2.0473,-2.0337,-2.0473,-2.0736,-2.0736,-2.0732,-2.0778,-2.0657,-2.0482,-2.0292,-1.9973,-1.9525,-1.8958,-1.8676,-1.8484,-1.8311,-1.7864,-1.7374,-1.7091,-1.6809,-1.6264,-2.9151,-2.9782,-3.1255,-3.3309,-3.5606,-3.6302,-3.7336,-3.8559,-3.9241,0.0,0.0,-4.0232,-3.963,-3.8597,-3.8039,-3.7176,-3.6056,-3.5674,-3.5505,-3.5467,-3.4161,-3.3562,-3.3469,-3.0501,-2.8278,-2.6843,-2.4949,-2.3068,-2.1288,-2.0848,-2.0067,-1.9007,-1.7878,-1.7191,-1.6952,-1.714,-1.8359,-2.0498,-2.197,-2.332,-2.4513,-2.6473,-2.7617,-2.7804,-2.8846,-2.9117,-2.8479,-2.8538,-2.7713,-2.5857,-2.5786,-2.5243,-2.4024,-2.3988,-2.3981,-2.3863,-2.3687,-2.3287,-2.2511,-2.2209,-2.1784,-2.107,-2.269,-2.4158,-2.516,-2.5883,-2.5634,-2.4055,-2.1908,-2.0742,-2.098,-2.055,-2.0035,-1.9642,-1.9136,-1.8804,-1.86,-1.8255,-1.7557,-1.6393,-1.5811,-1.5775,-1.6229,-1.5391,-1.4688,-1.491,-1.4763,-1.479,-1.5699,-1.6968,-1.7796,-1.7879,-1.9193,-2.0292,-2.0201,-2.0027,-1.999,-2.0518,-2.0473,-2.0412,-2.0634,-2.0566,-2.0386,-2.0292,-1.9933,-1.9507,-1.8944,-1.8702,-1.8626,-1.8303,-1.794,-1.7639,-1.7145,-1.6581,-1.5823,-2.9928,-3.0294,-3.2475,-3.4303,-3.5837,-3.6973,-3.7829,-3.8574,-3.9392,-3.9896,-4.0098,-3.9589,-3.8652,-3.7461,-3.7388,-3.6577,-3.5222,-3.5177,-3.5112,-3.4927,-3.3515,-3.2385,-3.1456,-2.9634,-2.716,-2.4331,-2.3004,-2.1463,-1.9704,-1.8574,-1.7433,-1.6224,-1.47,-1.3775,-1.3622,-1.4662,-1.6533,-1.914,-2.105,-2.2876,-2.4581,-2.5459,-2.6444,-2.7381,-2.7202,-2.7343,-2.7805,-2.7245,-2.6491,-2.5621,-2.5749,-2.5095,-2.3392,-2.3614,-2.3538,-2.2941,-2.2225,-2.2026,-2.2449,-2.1032,-2.0099,-2.016,-2.1202,-2.2114,-2.2706,-2.4132,-2.4098,-2.1876,-1.9876,-1.9,-1.9502,-1.9136,-1.8772,-1.852,-1.8314,-1.7851,-1.6959,-1.7171,-1.6702,-1.4984,-1.4586,-1.4742,-1.5204,-1.4897,-1.4689,-1.488,-1.4865,-1.5127,-1.5899,-1.6869,-1.7531,-1.7927,-1.9218,-2.0096,-2.0065,-2.011,-2.0201,-2.0292,-2.0337,-2.0281,-2.0454,-2.0591,-2.0643,-2.0403,-2.0159,-1.9696,-1.8976,-1.8573,-1.8536,-1.8518,-1.8133,-1.7613,-1.7282,-1.6473,-1.5612,-3.0999,-3.186,-3.3604,-3.5218,-3.6686,-3.7558,-3.7939,-3.8033,-3.8407,-3.8649,-3.8811,-3.8494,-3.7732,-3.6715,-3.6402,-3.5711,-3.4711,-3.4509,-3.4333,-3.4095,-3.2981,-3.221,-3.1623,-2.961,-2.7351,-2.497,-2.3069,-2.093,-1.8678,-1.7281,-1.574,-1.3994,-1.2243,-1.1215,-1.1066,-1.3006,-1.5203,-1.7453,-1.988,-2.1826,-2.3202,-2.4024,-2.4767,-2.5451,-2.542,-2.5613,-2.5967,-2.5433,-2.4829,-2.4126,-2.4053,-2.3567,-2.25,-2.2568,-2.2457,-2.2006,-2.1509,-2.1247,-2.1336,-1.9749,-1.8743,-1.8684,-1.9287,-1.9328,-1.8611,-2.0573,-2.1025,-1.9309,-1.7861,-1.7337,-1.796,-1.8024,-1.7913,-1.7746,-1.7414,-1.697,-1.6433,-1.6369,-1.588,-1.4487,-1.3796,-1.3769,-1.4544,-1.4622,-1.4576,-1.4617,-1.4838,-1.5324,-1.568,-1.6484,-1.7441,-1.84,-1.9512,-2.0133,-2.011,-2.0011,-2.0056,-2.011,-1.9982,-2.0066,-2.0285,-2.0458,-2.0674,-2.1271,-2.0685,-1.9655,-1.8928,-1.8708,-1.8601,-1.8456,-1.8264,-1.7849,-1.7336,-1.6121,-1.47,-3.221,-3.3388,-3.4604,-3.593,-3.7236,-3.762,-3.7564,-3.7273,-3.7208,-3.7077,-3.6936,-3.6981,-3.6509,-3.5578,-3.5036,-3.4473,-3.396,-3.3472,-3.3352,-3.3352,-3.2373,-3.1947,-3.1752,-2.9549,-2.7539,-2.5733,-2.3342,-2.0792,-1.8297,-1.6735,-1.479,-1.251,-1.1077,-1.0267,-0.9978,-1.2309,-1.4454,-1.6313,-1.8467,-2.0209,-2.148,-2.2229,-2.27,-2.2914,-2.3314,-2.3646,-2.3752,-2.3491,-2.3113,-2.2625,-2.2274,-2.1849,-2.1409,-2.1273,-2.1103,-2.0855,-2.0518,-2.0097,-1.9451,-1.8322,-1.7498,-1.7244,-1.7523,-1.7013,-1.552,-1.6119,-1.6943,-1.6605,-1.5958,-1.5787,-1.6685,-1.7241,-1.7442,-1.7272,-1.687,-1.6454,-1.6102,-1.5869,-1.5192,-1.397,-1.2967,-1.2842,-1.3725,-1.4162,-1.4299,-1.445,-1.4995,-1.5462,-1.5499,-1.6147,-1.7415,-1.9213,-2.0182,-2.0348,-2.0246,-2.0056,-1.9965,-1.9973,-1.9891,-2.0046,-2.0306,-2.0176,-2.0441,-2.1445,-2.0721,-1.96,-1.896,-1.8866,-1.8812,-1.8681,-1.8565,-1.8218,-1.7179,-1.5643,-1.3983,-3.341,-3.4559,-3.5261,-3.6179,-3.6936,-3.6677,-3.6406,-3.6217,-3.6175,-3.5384,-3.447,-3.5012,-3.4643,-3.3552,-3.3125,-3.2738,-3.2312,-3.1882,-3.2151,-3.2716,-3.1604,-3.0895,-3.0687,-2.9023,-2.7101,-2.4994,-2.3031,-2.0964,-1.8865,-1.7218,-1.491,-1.2188,-1.214,-1.2266,-1.2054,-1.3154,-1.466,-1.6507,-1.6687,-1.7758,-1.9608,-1.9771,-1.9911,-2.014,-2.0588,-2.0964,-2.1404,-2.1476,-2.1614,-2.1649,-2.1108,-2.0558,-2.011,-1.9924,-1.96,-1.9143,-1.8746,-1.7993,-1.6979,-1.6646,-1.6411,-1.61,-1.6389,-1.5934,-1.4289,-1.1528,-1.1187,-1.3897,-1.4387,-1.4839,-1.6022,-1.6898,-1.7316,-1.7211,-1.6912,-1.644,-1.5455,-1.5488,-1.4823,-1.2539,-1.1913,-1.191,-1.2747,-1.3228,-1.3779,-1.4669,-1.5378,-1.5709,-1.557,-1.6154,-1.7895,-2.0368,-2.1212,-2.0628,-2.0201,-2.0155,-2.0181,-2.0263,-2.0263,-2.0249,-2.0343,-2.0403,-2.0551,-2.0556,-2.0237,-1.9503,-1.9062,-1.8958,-1.915,-1.8996,-1.8826,-1.8563,-1.6938,-1.5411,-1.4047,-3.3576,-3.4994,-3.5204,-3.5815,-3.6543,-3.627,-3.5744,-3.5141,-3.4612,-3.381,-3.2875,-3.274,-3.2557,-3.2321,-3.1909,-3.1356,-3.0807,-3.0495,-3.0334,-3.029,-2.9542,-2.904,-2.8676,-2.7434,-2.605,-2.468,-2.2676,-2.101,-1.9656,-1.8044,-1.685,-1.6322,-1.631,-1.6486,-1.675,-1.6924,-1.7049,-1.694,-1.6621,-1.6851,-1.75,-1.8286,-1.8891,-1.938,-1.9421,-1.9573,-1.9853,-1.9907,-1.987,-1.9874,-1.9696,-1.9314,-1.8768,-1.8641,-1.8465,-1.8067,-1.7494,-1.6662,-1.5542,-1.5096,-1.4851,-1.4645,-1.5531,-1.5759,-1.5083,-1.2893,-1.2941,-1.5595,-1.5482,-1.5317,-1.6342,-1.6619,-1.6752,-1.673,-1.6046,-1.5188,-1.4513,-1.412,-1.3298,-1.2025,-1.1089,-1.093,-1.1861,-1.2697,-1.3668,-1.4784,-1.562,-1.5994,-1.591,-1.6319,-1.8095,-2.0712,-2.1105,-2.0609,-2.0391,-2.0337,-2.034,-2.0382,-2.0412,-2.0412,-2.042,-2.0302,-2.0217,-1.9966,-1.969,-1.9352,-1.8905,-1.8874,-1.8966,-1.898,-1.8488,-1.7998,-1.7394,-1.5899,-1.4571,-3.3183,-3.451,-3.5027,-3.5625,-3.6137,-3.5654,-3.4921,-3.4031,-3.3142,-3.22,-3.1261,-3.0526,-3.0254,-3.0354,-3.0433,-3.0093,-2.9358,-2.9044,-2.8747,-2.8261,-2.7733,-2.7366,-2.7109,-2.591,-2.4964,-2.4058,-2.2329,-2.103,-2.0285,-1.9578,-1.9624,-2.0663,-2.0937,-2.1144,-2.1261,-2.0613,-1.9381,-1.783,-1.6967,-1.6337,-1.617,-1.685,-1.7602,-1.8223,-1.8292,-1.8306,-1.8362,-1.8406,-1.8432,-1.8402,-1.8411,-1.8145,-1.7605,-1.7431,-1.709,-1.6514,-1.5904,-1.5066,-1.397,-1.3486,-1.3163,-1.3262,-1.4771,-1.5914,-1.5997,-1.6515,-1.7272,-1.7896,-1.7648,-1.7451,-1.6889,-1.6723,-1.6539,-1.6411,-1.5263,-1.4296,-1.3539,-1.2875,-1.2201,-1.1336,-1.0508,-1.0372,-1.1405,-1.245,-1.3622,-1.467,-1.5656,-1.6411,-1.643,-1.6828,-1.8083,-2.0766,-2.069,-2.0482,-2.0581,-2.0529,-2.0453,-2.0454,-2.0495,-2.0523,-2.0456,-2.021,-1.9984,-1.977,-1.9382,-1.9104,-1.8874,-1.8827,-1.892,-1.8864,-1.8466,-1.7928,-1.7809,-1.6322,-1.5147,-3.2362,-3.3156,-3.5102,-3.5814,-3.5615,-3.4513,-3.3662,-3.296,-3.1863,-3.0637,-2.9376,-2.8618,-2.7761,-2.713,-2.8492,-2.8749,-2.7901,-2.7493,-2.7448,-2.7543,-2.6413,-2.606,-2.6422,-2.4887,-2.373,-2.296,-2.1791,-2.086,-2.0345,-2.1584,-2.2996,-2.4346,-2.5409,-2.5561,-2.4525,-2.316,-2.1317,-1.9074,-1.7343,-1.6148,-1.5488,-1.533,-1.5604,-1.6228,-1.6831,-1.6985,-1.6708,-1.703,-1.7398,-1.7708,-1.7351,-1.7033,-1.6722,-1.6243,-1.542,-1.4241,-1.3551,-1.2804,-1.2003,-1.1711,-1.1611,-1.1958,-1.4245,-1.6039,-1.6627,-2.0941,-2.2562,-2.0052,-2.0342,-1.991,-1.8088,-1.7337,-1.6831,-1.6126,-1.5147,-1.3898,-1.2682,-1.2253,-1.1453,-1.0517,-1.0192,-1.0529,-1.1573,-1.2499,-1.346,-1.449,-1.5443,-1.6245,-1.6927,-1.7427,-1.8567,-1.9838,-2.0417,-2.0317,-2.0352,-2.0411,-2.05,-2.059,-2.0664,-2.0649,-2.0345,-2.013,-1.9879,-1.9535,-1.916,-1.892,-1.8827,-1.8874,-1.9058,-1.9026,-1.8832,-1.849,-1.82,-1.6807,-1.5763,-2.9919,-3.2004,-3.4404,-3.5159,-3.4674,-3.3991,-3.3092,-3.1954,-3.0696,-2.9422,-2.8243,-2.7622,-2.6773,-2.5798,-2.6232,-2.6386,-2.6167,-2.579,-2.5529,-2.5286,-2.4459,-2.3919,-2.3463,-2.253,-2.1634,-2.0862,-2.0183,-1.9782,-1.9939,-2.1963,-2.4654,-2.717,-2.8197,-2.8498,-2.8032,-2.5844,-2.2897,-1.952,-1.7409,-1.5899,-1.4946,-1.4515,-1.4602,-1.5094,-1.5628,-1.602,-1.6132,-1.5985,-1.6046,-1.6394,-1.6054,-1.5717,-1.5297,-1.4675,-1.3867,-1.2906,-1.2305,-1.1674,-1.0903,-1.0694,-1.0741,-1.1024,-1.3207,-1.5632,-1.7861,-2.1501,-2.3401,-2.1957,-2.0249,-1.9291,-1.8687,-1.7512,-1.6494,-1.5748,-1.44,-1.3256,-1.2552,-1.1757,-1.0986,-1.0708,-1.0634,-1.0939,-1.1655,-1.2423,-1.3278,-1.4282,-1.5405,-1.633,-1.7156,-1.7895,-1.8843,-2.0002,-2.0694,-2.1002,-2.1011,-2.0696,-2.0562,-2.0822,-2.099,-2.1104,-2.0947,-2.0767,-2.0594,-1.9901,-1.9372,-1.8937,-1.8953,-1.8929,-1.9106,-1.9134,-1.894,-1.8784,-1.847,-1.7424,-1.6689,-2.8005,-3.0893,-3.3465,-3.4313,-3.3926,-3.342,-3.2369,-3.0971,-2.9703,-2.8395,-2.7283,-2.6568,-2.5695,-2.4749,-2.4319,-2.4056,-2.4026,-2.385,-2.3542,-2.3091,-2.2334,-2.1699,-2.1178,-2.0209,-1.9336,-1.8591,-1.8086,-1.8075,-1.8869,-2.1664,-2.4935,-2.8047,-2.8949,-2.9312,-2.8912,-2.6463,-2.2971,-1.9393,-1.7063,-1.5504,-1.4434,-1.3859,-1.3721,-1.4013,-1.4456,-1.5024,-1.5555,-1.5098,-1.4853,-1.5,-1.4906,-1.4688,-1.4318,-1.3649,-1.2972,-1.2359,-1.1983,-1.1421,-1.0761,-1.0632,-1.0656,-1.0758,-1.2778,-1.5241,-1.7938,-2.0967,-2.2544,-2.2246,-1.9915,-1.8179,-1.7925,-1.6898,-1.5878,-1.528,-1.3837,-1.2693,-1.2419,-1.1646,-1.1485,-1.181,-1.1919,-1.1999,-1.2195,-1.2705,-1.3431,-1.4327,-1.5494,-1.6442,-1.7073,-1.7939,-1.9012,-2.012,-2.1001,-2.1499,-2.1673,-2.1423,-2.1117,-2.1276,-2.1362,-2.1503,-2.1544,-2.1362,-2.1064,-2.0326,-1.9783,-1.9313,-1.9079,-1.9063,-1.91,-1.919,-1.9108,-1.8931,-1.8656,-1.8348,-1.7713,-2.6857,-2.9808,-3.2353,-3.3455,-3.3297,-3.2694,-3.1537,-3.0037,-2.8895,-2.7584,-2.6244,-2.5297,-2.4415,-2.3547,-2.2945,-2.2205,-2.1697,-2.1755,-2.1755,-2.1492,-2.0215,-1.9691,-1.9641,-1.811,-1.702,-1.6398,-1.5768,-1.6049,-1.7139,-2.0348,-2.347,-2.6092,-2.7391,-2.7396,-2.681,-2.4354,-2.159,-1.8383,-1.6242,-1.4893,-1.3899,-1.3302,-1.3013,-1.2934,-1.3332,-1.3957,-1.4683,-1.4326,-1.3936,-1.3728,-1.3784,-1.3971,-1.376,-1.3253,-1.2796,-1.2579,-1.241,-1.2068,-1.1528,-1.1358,-1.1167,-1.1193,-1.2977,-1.4902,-1.6922,-1.9796,-2.1932,-2.2087,-1.93,-1.6835,-1.654,-1.58,-1.5144,-1.4874,-1.3464,-1.2434,-1.2247,-1.2089,-1.2372,-1.3357,-1.3634,-1.3473,-1.3321,-1.3351,-1.3859,-1.4726,-1.5651,-1.6421,-1.6873,-1.7745,-1.8752,-2.0065,-2.1176,-2.1952,-2.217,-2.2252,-2.195,-2.1751,-2.177,-2.1845,-2.1811,-2.1736,-2.166,-2.1057,-2.0572,-2.0087,-1.9582,-1.9535,-1.939,-1.942,-1.9311,-1.9225,-1.9091,-1.891,-1.8736,-2.5577,-2.8286,-3.145,-3.2583,-3.2248,-3.2043,-3.0926,-2.9101,-2.7936,-2.6482,-2.507,-2.4456,-2.3598,-2.2659,-2.2139,-2.1399,-2.0302,-1.9784,-1.9749,-1.9958,-1.9134,-1.8247,-1.7503,-1.6559,-1.55,-1.4368,-1.3543,-1.3704,-1.5061,-1.7508,-2.008,-2.2296,-2.3392,-2.3644,-2.3381,-2.1394,-1.8891,-1.6296,-1.4803,-1.3749,-1.3083,-1.2603,-1.2546,-1.2939,-1.3138,-1.3213,-1.2985,-1.2687,-1.242,-1.2323,-1.2007,-1.2093,-1.2509,-1.2644,-1.2572,-1.2537,-1.2915,-1.2712,-1.1959,-1.1721,-1.1369,-1.103,-1.1973,-1.3317,-1.4929,-1.7568,-1.9796,-2.0734,-1.7592,-1.5263,-1.5897,-1.5355,-1.4668,-1.4137,-1.2944,-1.2449,-1.2909,-1.3559,-1.4581,-1.5562,-1.5307,-1.4633,-1.4107,-1.4046,-1.4563,-1.54,-1.606,-1.6605,-1.7232,-1.8122,-1.9228,-2.0489,-2.15,-2.2342,-2.2517,-2.2715,-2.2637,-2.2402,-2.2356,-2.2165,-2.2163,-2.212,-2.2043,-2.1653,-2.1171,-2.0658,-2.0211,-1.9916,-1.9758,-1.9718,-1.967,-1.9669,-1.9709,-1.9619,-1.948,-2.6212,-2.8747,-3.1713,-3.2567,-3.1915,-3.1973,-3.0658,-2.8575,-2.7629,-2.6258,-2.4691,-2.4065,-2.314,-2.1964,-2.1406,-2.0458,-1.9202,-1.817,-1.7833,-1.7982,-1.7504,-1.6709,-1.5772,-1.4407,-1.3207,-1.2016,-1.1309,-1.1532,-1.2573,-1.4864,-1.7145,-1.912,-1.9957,-2.016,-1.994,-1.8359,-1.6259,-1.4015,-1.3016,-1.2495,-1.2183,-1.1906,-1.2068,-1.2682,-1.2818,-1.2455,-1.1917,-1.1624,-1.1324,-1.1033,-1.0806,-1.117,-1.1946,-1.2155,-1.231,-1.2698,-1.3258,-1.3512,-1.2969,-1.2709,-1.2064,-1.1408,-1.1803,-1.2555,-1.3711,-1.5827,-1.8167,-1.9539,-1.7982,-1.6065,-1.5979,-1.5798,-1.4956,-1.3836,-1.297,-1.2627,-1.3253,-1.4663,-1.643,-1.7456,-1.7258,-1.6281,-1.5578,-1.5345,-1.5642,-1.6452,-1.7005,-1.712,-1.7867,-1.8668,-1.9813,-2.095,-2.203,-2.2594,-2.2904,-2.3088,-2.3297,-2.3161,-2.3011,-2.2728,-2.2558,-2.255,-2.2457,-2.1728,-2.1148,-2.0566,-2.0109,-2.0009,-1.9872,-1.9937,-1.9995,-2.0051,-2.0098,-2.0273,-2.0074,-2.8769,-3.1067,-3.3088,-3.3306,-3.2357,-3.2329,-3.0765,-2.8422,-2.7814,-2.657,-2.4888,-2.389,-2.2796,-2.1464,-2.0635,-1.953,-1.8193,-1.71,-1.6235,-1.5742,-1.5228,-1.4853,-1.4334,-1.2112,-1.0512,-0.965,-0.931,-0.968,-1.0775,-1.2912,-1.4919,-1.6775,-1.7434,-1.7465,-1.6835,-1.5544,-1.3801,-1.1913,-1.1313,-1.123,-1.1267,-1.131,-1.1581,-1.2203,-1.2275,-1.204,-1.1522,-1.1459,-1.093,-1.0016,-1.0406,-1.1059,-1.1834,-1.1875,-1.2149,-1.2896,-1.3815,-1.429,-1.4337,-1.4011,-1.3345,-1.2406,-1.2686,-1.2694,-1.2794,-1.4694,-1.7256,-1.958,-1.9416,-1.8502,-1.7133,-1.6705,-1.6057,-1.423,-1.3267,-1.2862,-1.288,-1.5037,-1.7382,-1.9444,-1.9332,-1.8095,-1.721,-1.7122,-1.7414,-1.7918,-1.8542,-1.8692,-1.8643,-1.9456,-2.0261,-2.1358,-2.2561,-2.3046,-2.3356,-2.3406,-2.3555,-2.3555,-2.3447,-2.3238,-2.2828,-2.2787,-2.2535,-2.1827,-2.1003,-2.0439,-2.0164,-2.0097,-2.0103,-2.0116,-2.019,-2.0384,-2.0472,-2.0533,-2.0192,-3.4341,-3.4973,-3.5248,-3.4457,-3.3115,-3.2467,-3.0905,-2.8774,-2.7795,-2.6431,-2.4655,-2.3313,-2.2252,-2.113,-2.0028,-1.8798,-1.7436,-1.6419,-1.5532,-1.4598,-1.3503,-1.2758,-1.2005,-1.0218,-0.9011,-0.8652,-0.8282,-0.8714,-0.9981,-1.1481,-1.324,-1.5045,-1.5038,-1.5002,-1.4672,-1.3477,-1.1957,-1.0729,-1.0635,-1.0571,-1.051,-1.0803,-1.1166,-1.1537,-1.1827,-1.187,-1.1666,-1.1967,-1.1595,-1.0534,-1.0794,-1.1214,-1.179,-1.1984,-1.2362,-1.3159,-1.4213,-1.4912,-1.4878,-1.4973,-1.4573,-1.3864,-1.4352,-1.3395,-1.1402,-1.346,-1.5899,-1.8228,-1.962,-2.0596,-2.0062,-1.8863,-1.7085,-1.4908,-1.3679,-1.2909,-1.3007,-1.4627,-1.7307,-2.0366,-1.9422,-1.8573,-1.8535,-1.8603,-1.891,-1.9531,-2.0106,-2.0552,-2.0302,-2.0393,-2.1374,-2.2026,-2.2939,-2.3464,-2.3805,-2.3755,-2.3795,-2.3805,-2.3746,-2.3696,-2.3247,-2.2846,-2.2434,-2.1827,-2.0704,-2.0034,-2.0189,-2.0322,-2.0292,-2.0194,-2.0447,-2.0585,-2.0545,-2.0526,-1.9987,-3.8956,-3.8428,-3.7195,-3.5439,-3.3479,-3.2634,-3.1099,-2.9188,-2.8056,-2.6549,-2.4713,-2.3287,-2.1896,-2.05,-1.9226,-1.7852,-1.6444,-1.5163,-1.4145,-1.3276,-1.1941,-1.1062,-1.0283,-0.8973,-0.8141,-0.7676,-0.7345,-0.7823,-0.8923,-1.0169,-1.1739,-1.3173,-1.3345,-1.334,-1.3379,-1.2155,-1.0921,-1.0093,-1.0024,-1.0025,-0.9851,-1.0168,-1.0405,-1.0662,-1.1027,-1.1479,-1.2433,-1.3147,-1.2939,-1.2082,-1.1885,-1.1954,-1.2078,-1.2201,-1.2594,-1.3185,-1.4181,-1.4958,-1.5601,-1.6152,-1.6533,-1.6569,-1.6943,-1.5176,-1.3029,-1.3747,-1.6192,-1.8394,-2.0822,-2.2311,-2.2332,-2.0297,-1.7857,-1.5981,-1.4741,-1.3674,-1.2533,-1.4032,-1.6244,-1.8226,-1.8961,-1.9042,-1.9783,-2.0142,-2.0621,-2.129,-2.1919,-2.2032,-2.1932,-2.2127,-2.2423,-2.3134,-2.3531,-2.3953,-2.4065,-2.4044,-2.3967,-2.3999,-2.3705,-2.3755,-2.3447,-2.2896,-2.2443,-2.1776,-2.0601,-1.9887,-2.0094,-2.0248,-2.0179,-2.0228,-2.055,-2.0747,-2.0676,-2.0444,-1.9898,-4.2952,-4.1583,-3.896,-3.6295,-3.3937,-3.2988,-3.1332,-2.9401,-2.8542,-2.6953,-2.4925,-2.3504,-2.1844,-1.9779,-1.8355,-1.6773,-1.5443,-1.3727,-1.244,-1.1507,-1.048,-0.9668,-0.8933,-0.8292,-0.7461,-0.6803,-0.6518,-0.7059,-0.8094,-0.9266,-1.061,-1.1925,-1.2422,-1.239,-1.2193,-1.1309,-1.0377,-0.967,-0.9658,-0.9499,-0.9301,-0.9483,-0.9664,-0.9657,-1.0473,-1.1825,-1.3367,-1.4366,-1.444,-1.3882,-1.3299,-1.2984,-1.2845,-1.272,-1.2897,-1.3331,-1.4142,-1.5109,-1.6377,-1.7657,-1.8942,-1.9655,-2.0712,-1.934,-1.6114,-1.668,-1.8354,-2.0158,-2.2606,-2.3682,-2.3289,-2.0875,-1.8858,-1.7432,-1.6758,-1.52,-1.3351,-1.3847,-1.5145,-1.5615,-1.7516,-1.9836,-2.1312,-2.2081,-2.2455,-2.3307,-2.3787,-2.3724,-2.3535,-2.3497,-2.3751,-2.4259,-2.4447,-2.4506,-2.4419,-2.4262,-2.419,-2.4162,-2.3682,-2.3506,-2.3356,-2.2896,-2.2544,-2.1827,-2.0601,-1.999,-1.9828,-1.9939,-1.999,-2.0145,-2.0454,-2.0609,-2.0731,-2.0413,-1.9948,-4.6692,-4.4293,-4.0453,-3.7645,-3.5461,-3.3389,-3.1425,-2.9706,-2.892,-2.7062,-2.4812,-2.3369,-2.1823,-2.0018,-1.7831,-1.612,-1.4731,-1.2778,-1.1199,-0.961,-0.9452,-0.8396,-0.7566,-0.7172,-0.6907,-0.6364,-0.6304,-0.6826,-0.7865,-0.9101,-1.0516,-1.1501,-1.1691,-1.1701,-1.1439,-1.0716,-0.9791,-0.9194,-0.9439,-0.9131,-0.8551,-0.8871,-0.8988,-0.8786,-1.0143,-1.2191,-1.4074,-1.5014,-1.5603,-1.5825,-1.5141,-1.4285,-1.3836,-1.3824,-1.3977,-1.4164,-1.4784,-1.5771,-1.729,-1.9133,-2.1143,-2.2639,-2.382,-2.4102,-2.2322,-2.1329,-2.208,-2.3136,-2.4172,-2.435,-2.326,-2.202,-2.0522,-1.9424,-1.8949,-1.8094,-1.6128,-1.6155,-1.6001,-1.5873,-1.8143,-2.1544,-2.4074,-2.4299,-2.473,-2.536,-2.5445,-2.5426,-2.5139,-2.4795,-2.4757,-2.4932,-2.4931,-2.49,-2.4739,-2.447,-2.4222,-2.404,-2.3641,-2.3297,-2.3147,-2.2955,-2.2544,-2.1725,-2.066,-2.0145,-1.968,-1.9828,-1.9931,-2.0138,-2.03,-2.0454,-2.0487,-2.0272,-2.0211,-4.7423,-4.4366,-4.0705,-3.7806,-3.5573,-3.3438,-3.1532,-2.9904,-2.8848,-2.6955,-2.464,-2.321,-2.1531,-1.9567,-1.725,-1.5322,-1.3435,-1.1022,-0.9114,-0.8034,-0.7786,-0.7188,-0.6339,-0.6046,-0.5837,-0.5557,-0.5897,-0.6491,-0.7383,-0.8531,-0.9716,-1.085,-1.1036,-1.115,-1.1101,-1.0428,-0.9923,-0.9649,-0.9507,-0.9087,-0.8437,-0.8314,-0.8346,-0.8259,-0.9617,-1.1498,-1.3375,-1.4719,-1.5632,-1.6303,-1.6397,-1.577,-1.49,-1.4906,-1.4948,-1.4806,-1.5237,-1.6241,-1.7817,-2.0276,-2.2757,-2.4876,-2.6498,-2.8015,-2.8282,-2.7675,-2.6523,-2.6397,-2.6082,-2.5445,-2.3785,-2.3043,-2.2176,-2.172,-2.1426,-2.0935,-2.005,-1.9496,-2.0409,-2.0663,-2.2813,-2.4645,-2.6026,-2.6669,-2.6908,-2.7464,-2.7122,-2.7012,-2.61,-2.5697,-2.52,-2.5209,-2.5255,-2.5165,-2.504,-2.47,-2.4229,-2.3885,-2.3464,-2.3247,-2.3097,-2.2846,-2.2603,-2.1733,-2.0865,-1.9835,-1.9428,-1.968,-1.9843,-1.9894,-2.005,-2.0205,-2.0326,-2.0261,-2.034,-4.6449,-4.3322,-4.0309,-3.7573,-3.516,-3.3356,-3.1419,-2.9613,-2.8428,-2.6473,-2.4302,-2.2891,-2.0959,-1.8683,-1.6489,-1.4313,-1.1765,-0.9414,-0.7538,-0.673,-0.6567,-0.6111,-0.5476,-0.5115,-0.4824,-0.4597,-0.5229,-0.5872,-0.6639,-0.7632,-0.9037,-1.0049,-1.0375,-1.0718,-1.0871,-1.0504,-1.0129,-1.0079,-0.9732,-0.9175,-0.8492,-0.8084,-0.7765,-0.7857,-0.8737,-1.0339,-1.2172,-1.3648,-1.4925,-1.5685,-1.7017,-1.6765,-1.5921,-1.5623,-1.565,-1.4976,-1.5496,-1.6584,-1.8217,-2.0919,-2.3815,-2.6289,-2.8015,-3.0432,-3.2332,-3.1693,-3.0149,-2.885,-2.7841,-2.6433,-2.4863,-2.4273,-2.3967,-2.3831,-2.3854,-2.4177,-2.4205,-2.3482,-2.6153,-2.9186,-2.7633,-2.7068,-2.8483,-2.939,-2.9426,-2.9346,-2.8936,-2.8375,-2.7452,-2.6418,-2.5815,-2.5319,-2.5311,-2.5079,-2.4943,-2.4462,-2.4005,-2.3684,-2.3288,-2.3088,-2.2946,-2.2795,-2.2544,-2.2038,-2.1173,-2.008,-1.9345,-1.9524,-1.9613,-1.968,-1.9798,-1.9998,-2.0141,-2.0198,-2.0419,-4.4156,-4.2428,-3.9897,-3.7499,-3.5216,-3.3081,-3.104,-2.9051,-2.7766,-2.5781,-2.3517,-2.2137,-2.0222,-1.78,-1.5805,-1.2995,-1.0063,-0.807,-0.6905,-0.6017,-0.577,-0.5408,-0.4828,-0.4571,-0.4308,-0.4158,-0.4713,-0.5489,-0.6298,-0.7365,-0.8726,-0.9907,-1.0303,-1.0601,-1.0881,-1.0688,-1.0327,-1.0187,-0.9861,-0.9247,-0.8435,-0.7755,-0.7403,-0.7334,-0.8131,-0.9474,-1.1062,-1.2265,-1.3351,-1.4553,-1.5623,-1.5659,-1.5257,-1.5181,-1.5171,-1.5257,-1.59,-1.6879,-1.8256,-2.1197,-2.4139,-2.6584,-2.8164,-3.0226,-3.1959,-3.2063,-3.0778,-3.0023,-2.832,-2.6607,-2.5398,-2.5136,-2.5273,-2.5473,-2.5998,-2.6696,-2.7107,-2.8329,-3.0307,-3.2982,-3.0982,-2.9208,-3.0559,-3.1463,-3.1306,-3.0868,-3.0204,-2.9668,-2.893,-2.7436,-2.609,-2.565,-2.5366,-2.5002,-2.4712,-2.4116,-2.363,-2.3394,-2.3088,-2.2896,-2.2745,-2.2695,-2.2443,-2.2089,-2.1218,-1.9941,-1.9551,-1.9551,-1.9656,-1.9814,-1.9814,-1.9791,-2.0076,-2.035,-2.0662,-4.2622,-4.066,-3.8897,-3.693,-3.4805,-3.2883,-3.0843,-2.8877,-2.7462,-2.546,-2.3327,-2.1841,-2.0009,-1.7616,-1.5729,-1.2601,-0.9193,-0.7425,-0.6341,-0.5384,-0.496,-0.472,-0.4338,-0.4258,-0.4299,-0.45,-0.5102,-0.5707,-0.6268,-0.7235,-0.8654,-0.9831,-1.0244,-1.053,-1.0899,-1.0782,-1.0523,-1.0251,-0.9877,-0.9241,-0.8223,-0.7296,-0.6658,-0.6907,-0.7461,-0.8559,-0.9928,-1.1395,-1.234,-1.338,-1.453,-1.4709,-1.4555,-1.4535,-1.478,-1.5142,-1.5858,-1.6706,-1.7888,-2.0396,-2.2583,-2.4328,-2.6231,-2.8175,-2.9715,-2.9992,-2.9797,-2.9606,-2.8673,-2.6902,-2.6026,-2.5894,-2.5966,-2.638,-2.6973,-2.7792,-2.9002,-3.0432,-3.2487,-3.4499,-3.3228,-3.2241,-3.271,-3.319,-3.3006,-3.2411,-3.1529,-3.0832,-3.0101,-2.8406,-2.6582,-2.5697,-2.5331,-2.5126,-2.4553,-2.372,-2.3272,-2.3042,-2.2736,-2.2544,-2.2493,-2.2392,-2.2493,-2.2502,-2.1317,-1.9911,-1.9894,-1.9909,-1.9901,-1.9895,-1.9919,-1.9969,-2.0212,-2.0511,-2.0774,-4.1448,-3.9211,-3.8107,-3.6355,-3.4237,-3.2635,-3.0718,-2.8779,-2.7297,-2.5257,-2.2844,-2.1761,-1.9991,-1.75,-1.5092,-1.2228,-0.8445,-0.7329,-0.6179,-0.5108,-0.4665,-0.4359,-0.433,-0.4437,-0.4736,-0.5347,-0.6091,-0.6561,-0.6795,-0.7545,-0.8751,-0.9841,-1.02,-1.0443,-1.0902,-1.0782,-1.0649,-1.0301,-0.9869,-0.9095,-0.7892,-0.6594,-0.5843,-0.6214,-0.6863,-0.7828,-0.925,-1.0679,-1.1717,-1.2512,-1.3305,-1.3839,-1.3518,-1.3664,-1.4104,-1.4709,-1.5319,-1.6169,-1.7216,-1.8867,-2.0803,-2.2393,-2.3375,-2.5325,-2.7007,-2.7771,-2.7797,-2.844,-2.8129,-2.7239,-2.6611,-2.644,-2.671,-2.7157,-2.7433,-2.7966,-2.9739,-3.1279,-3.2607,-3.3928,-3.4426,-3.4643,-3.4544,-3.4457,-3.4142,-3.3026,-3.2133,-3.1332,-3.05,-2.8828,-2.7171,-2.5916,-2.5325,-2.5161,-2.4482,-2.3297,-2.2886,-2.2656,-2.2333,-2.203,-2.203,-2.203,-2.219,-2.2207,-2.1267,-2.0151,-2.021,-2.0103,-1.9885,-1.9805,-1.9941,-1.9992,-2.0057,-2.0454,-2.0861,-4.0695,-3.9201,-3.8219,-3.6276,-3.3717,-3.2273,-3.0432,-2.8337,-2.6845,-2.4986,-2.2912,-2.1669,-1.9708,-1.7,-1.4037,-1.1481,-0.9515,-0.813,-0.6892,-0.5669,-0.5272,-0.5155,-0.5144,-0.5328,-0.5867,-0.6486,-0.731,-0.7455,-0.776,-0.836,-0.9211,-1.0256,-1.0322,-1.0443,-1.0965,-1.0656,-1.0428,-1.0072,-0.9678,-0.8646,-0.7171,-0.624,-0.6024,-0.6297,-0.6867,-0.7802,-0.909,-1.0367,-1.1295,-1.1959,-1.2148,-1.2392,-1.255,-1.2492,-1.2735,-1.3542,-1.4644,-1.5914,-1.637,-1.7754,-1.933,-2.0693,-2.179,-2.3384,-2.4851,-2.5824,-2.6346,-2.7553,-2.7575,-2.7442,-2.7248,-2.7468,-2.7799,-2.8213,-2.8591,-2.928,-3.0646,-3.1357,-3.2778,-3.4265,-3.5016,-3.5355,-3.5443,-3.537,-3.5143,-3.3912,-3.2767,-3.1881,-3.0605,-2.8824,-2.7387,-2.6017,-2.5157,-2.4968,-2.4181,-2.3047,-2.2451,-2.2206,-2.1804,-2.1471,-2.1471,-2.1471,-2.1623,-2.1442,-2.063,-2.0249,-2.0229,-2.0052,-1.9755,-1.9654,-1.9747,-1.974,-1.9739,-2.0248,-2.0858,-3.9072,-3.7857,-3.6979,-3.5249,-3.3013,-3.1574,-2.9885,-2.8111,-2.6557,-2.4947,-2.3329,-2.2169,-2.0002,-1.7096,-1.4411,-1.229,-1.0523,-0.9324,-0.7995,-0.6705,-0.6258,-0.6148,-0.6245,-0.6432,-0.693,-0.8023,-0.882,-0.9448,-0.9455,-0.9445,-0.9969,-1.0497,-1.0422,-1.0436,-1.0815,-1.0403,-1.0149,-0.9812,-0.9216,-0.8136,-0.6941,-0.6237,-0.5951,-0.6117,-0.6773,-0.7791,-0.8918,-0.9911,-1.0774,-1.1401,-1.1698,-1.2025,-1.2381,-1.2601,-1.2907,-1.3509,-1.4303,-1.4942,-1.5394,-1.6686,-1.7968,-1.9083,-2.0157,-2.1456,-2.2999,-2.4186,-2.5228,-2.6748,-2.7503,-2.7734,-2.7725,-2.7967,-2.8256,-2.8705,-2.9382,-3.0168,-3.093,-3.1535,-3.258,-3.4086,-3.5424,-3.5465,-3.5549,-3.5442,-3.493,-3.3781,-3.2627,-3.1725,-3.0238,-2.8394,-2.7047,-2.5907,-2.5194,-2.465,-2.3687,-2.2642,-2.1973,-2.159,-2.1016,-2.0779,-2.0755,-2.0798,-2.1011,-2.0968,-2.0416,-2.0197,-2.0202,-1.9967,-1.9643,-1.957,-1.9519,-1.9583,-1.9657,-2.0122,-2.0688,-3.7438,-3.622,-3.5777,-3.4456,-3.2559,-3.1143,-2.9586,-2.792,-2.6739,-2.531,-2.3826,-2.2468,-2.0303,-1.7833,-1.576,-1.3814,-1.1671,-1.067,-0.9203,-0.8044,-0.7472,-0.7393,-0.753,-0.7727,-0.8664,-0.9631,-1.0512,-1.0821,-1.0791,-1.0796,-1.0737,-1.0785,-1.0472,-1.0451,-1.0445,-1.0212,-0.9894,-0.9576,-0.8783,-0.7809,-0.6894,-0.6302,-0.6159,-0.6345,-0.6857,-0.7691,-0.879,-0.9806,-1.0599,-1.1262,-1.1731,-1.2053,-1.2328,-1.2444,-1.2723,-1.3198,-1.3702,-1.404,-1.4637,-1.5576,-1.6538,-1.7584,-1.8958,-2.0521,-2.1638,-2.2925,-2.4389,-2.5963,-2.7391,-2.7999,-2.8358,-2.8421,-2.889,-2.9275,-2.9697,-3.0564,-3.1352,-3.2031,-3.3041,-3.4669,-3.5518,-3.4965,-3.5039,-3.518,-3.4607,-3.3574,-3.2563,-3.1514,-2.9868,-2.7959,-2.6801,-2.5688,-2.5174,-2.4561,-2.3684,-2.2673,-2.1888,-2.1084,-2.0518,-2.0228,-2.03,-2.0344,-2.0498,-2.0308,-2.0072,-1.9882,-1.9769,-1.9657,-1.9539,-1.9442,-1.94,-1.945,-1.9677,-2.0089,-2.0605,-3.6073,-3.4644,-3.529,-3.4304,-3.2319,-3.139,-2.9799,-2.7927,-2.7284,-2.6063,-2.4379,-2.2539,-2.0571,-1.8657,-1.7164,-1.5348,-1.305,-1.21,-1.0527,-0.9377,-0.8904,-0.8784,-0.8936,-0.9559,-1.0434,-1.074,-1.1471,-1.1681,-1.1606,-1.1532,-1.1234,-1.077,-1.0485,-1.0397,-1.0266,-1.0015,-0.9568,-0.9169,-0.8428,-0.7767,-0.7069,-0.6625,-0.6446,-0.6684,-0.7185,-0.7949,-0.8947,-1.0037,-1.0936,-1.1606,-1.1953,-1.2104,-1.2274,-1.235,-1.2588,-1.2841,-1.3114,-1.3515,-1.4112,-1.4751,-1.5419,-1.6661,-1.8122,-1.9831,-2.0948,-2.124,-2.2743,-2.5261,-2.7078,-2.8119,-2.8612,-2.9087,-2.9535,-3.0076,-3.0553,-3.1345,-3.2112,-3.2664,-3.3778,-3.5339,-3.5612,-3.5088,-3.4388,-3.4445,-3.3824,-3.2771,-3.1407,-3.0363,-2.9287,-2.7625,-2.6509,-2.5523,-2.5098,-2.4501,-2.3822,-2.2916,-2.1814,-2.1079,-2.0529,-2.0217,-2.0042,-2.0094,-2.0034,-1.9976,-1.9807,-1.9575,-1.9402,-1.9409,-1.9379,-1.9271,-1.9282,-1.942,-1.9594,-1.9928,-2.0472,-3.6124,-3.4787,-3.4497,-3.3198,-3.1287,-3.0397,-2.9056,-2.755,-2.6722,-2.5562,-2.4123,-2.2733,-2.116,-1.9411,-1.8031,-1.6548,-1.4641,-1.3277,-1.1956,-1.1103,-1.0586,-1.0272,-1.0409,-1.0565,-1.1145,-1.1588,-1.2103,-1.2148,-1.1847,-1.18,-1.1162,-1.0638,-1.0356,-1.0254,-1.0115,-0.976,-0.9344,-0.8941,-0.8441,-0.79,-0.7226,-0.6876,-0.6696,-0.6733,-0.7469,-0.8169,-0.9055,-1.0162,-1.0971,-1.1646,-1.2217,-1.2403,-1.2468,-1.2567,-1.2733,-1.2907,-1.3146,-1.3527,-1.3967,-1.4486,-1.5089,-1.6125,-1.7269,-1.8404,-1.9976,-2.0743,-2.2483,-2.4768,-2.696,-2.8139,-2.9004,-2.9578,-3.0139,-3.0801,-3.1481,-3.223,-3.2668,-3.3169,-3.4066,-3.5493,-3.5581,-3.5235,-3.4402,-3.3663,-3.2834,-3.188,-3.0513,-2.928,-2.8413,-2.7431,-2.6345,-2.5357,-2.4812,-2.4479,-2.3863,-2.276,-2.1639,-2.1085,-2.0552,-2.0129,-1.9784,-1.9583,-1.9539,-1.9539,-1.9606,-1.9457,-1.9397,-1.9301,-1.9219,-1.9134,-1.9248,-1.948,-1.9668,-1.9825,-2.014,-3.6118,-3.4652,-3.3831,-3.2509,-3.094,-3.0026,-2.8912,-2.7693,-2.6867,-2.5475,-2.3956,-2.3288,-2.1862,-2.0026,-1.8692,-1.7084,-1.5468,-1.4087,-1.2896,-1.1929,-1.1196,-1.1054,-1.1077,-1.1306,-1.1688,-1.2174,-1.2242,-1.2133,-1.1767,-1.1529,-1.0936,-1.0365,-1.0021,-0.9842,-0.9635,-0.9344,-0.8996,-0.8641,-0.8393,-0.8023,-0.7335,-0.7228,-0.7117,-0.7186,-0.7842,-0.8474,-0.9303,-1.0283,-1.128,-1.1966,-1.2549,-1.2851,-1.2939,-1.3057,-1.3345,-1.3504,-1.3707,-1.4015,-1.4403,-1.4639,-1.4993,-1.5811,-1.5961,-1.7216,-1.8765,-2.0402,-2.2318,-2.4476,-2.6613,-2.8344,-2.9302,-3.0038,-3.0885,-3.1619,-3.2319,-3.2986,-3.2999,-3.3357,-3.4408,-3.5474,-3.5267,-3.5004,-3.4044,-3.3129,-3.2041,-3.1064,-2.985,-2.8977,-2.8597,-2.753,-2.6291,-2.5302,-2.4535,-2.4192,-2.3832,-2.2545,-2.142,-2.1243,-2.0679,-1.9907,-1.9528,-1.9358,-1.9294,-1.9398,-1.9398,-1.9435,-1.948,-1.9576,-1.9316,-1.8959,-1.9243,-1.9603,-1.9403,-1.9514,-1.9664,-3.587,-3.402,-3.3485,-3.2606,-3.1489,-3.0615,-2.968,-2.8704,-2.7898,-2.6404,-2.4546,-2.3998,-2.2399,-2.0316,-1.9063,-1.7527,-1.5609,-1.4433,-1.3144,-1.1737,-1.1469,-1.1072,-1.115,-1.1512,-1.1967,-1.2137,-1.2149,-1.1957,-1.1427,-1.109,-1.0557,-1.0071,-0.9603,-0.9236,-0.9014,-0.8694,-0.8371,-0.8084,-0.8052,-0.7832,-0.7595,-0.7549,-0.7535,-0.7877,-0.8361,-0.8958,-0.977,-1.0795,-1.1797,-1.2544,-1.3229,-1.3522,-1.3531,-1.3524,-1.3638,-1.365,-1.4029,-1.4418,-1.4824,-1.4841,-1.5113,-1.5425,-1.5632,-1.6501,-1.8207,-2.0031,-2.197,-2.4091,-2.6332,-2.8264,-2.9455,-3.0486,-3.1395,-3.2372,-3.3067,-3.3407,-3.3446,-3.3344,-3.4319,-3.5206,-3.5034,-3.4543,-3.3633,-3.2594,-3.1354,-3.0255,-2.9056,-2.8558,-2.8441,-2.7682,-2.65,-2.5439,-2.4556,-2.4094,-2.3568,-2.2245,-2.1327,-2.1196,-2.0841,-2.0094,-1.9633,-1.9512,-1.9447,-1.9323,-1.9324,-1.9428,-1.9628,-1.9879,-1.9724,-1.9598,-1.9565,-1.9704,-1.9426,-1.9231,-1.9384,-3.699,-3.5307,-3.4349,-3.3175,-3.1857,-3.0797,-3.0034,-2.9339,-2.8152,-2.6456,-2.4657,-2.4022,-2.2218,-2.0117,-1.8952,-1.7683,-1.5794,-1.438,-1.3007,-1.2524,-1.1996,-1.1731,-1.1685,-1.1766,-1.207,-1.1868,-1.1848,-1.1468,-1.0608,-1.0458,-1.0208,-0.977,-0.9312,-0.8918,-0.8672,-0.8437,-0.8286,-0.8049,-0.7987,-0.7889,-0.7666,-0.7741,-0.7987,-0.844,-0.8951,-0.9622,-1.046,-1.1556,-1.2495,-1.3245,-1.3945,-1.4278,-1.4178,-1.4137,-1.4342,-1.4112,-1.4228,-1.4474,-1.484,-1.5077,-1.5341,-1.5532,-1.5725,-1.6491,-1.8307,-1.9584,-2.1534,-2.3907,-2.6501,-2.8416,-2.969,-3.046,-3.1431,-3.2737,-3.3431,-3.3682,-3.3723,-3.3515,-3.392,-3.4824,-3.5046,-3.4401,-3.3545,-3.2622,-3.1414,-3.0703,-2.9764,-2.8771,-2.8504,-2.7853,-2.6916,-2.5747,-2.4763,-2.413,-2.3351,-2.2332,-2.166,-2.1463,-2.1103,-2.0483,-2.0073,-1.9738,-1.94,-1.924,-1.9353,-1.9428,-1.9835,-2.0241,-2.0351,-2.0392,-2.026,-1.9957,-1.9579,-1.933,-1.9135,-3.8071,-3.6478,-3.5223,-3.4053,-3.2853,-3.1661,-3.0845,-3.0119,-2.8637,-2.681,-2.5074,-2.4016,-2.1995,-1.9799,-1.8635,-1.7399,-1.5548,-1.4553,-1.3243,-1.2876,-1.2132,-1.1701,-1.171,-1.1871,-1.1663,-1.1491,-1.1301,-1.0896,-1.0334,-0.9951,-0.9638,-0.9323,-0.9089,-0.8703,-0.8366,-0.8127,-0.8111,-0.8004,-0.8019,-0.8201,-0.8222,-0.8406,-0.8619,-0.9196,-0.9781,-1.0372,-1.1369,-1.2358,-1.3314,-1.3993,-1.4518,-1.4889,-1.4717,-1.4798,-1.4833,-1.4316,-1.4225,-1.4561,-1.5028,-1.5461,-1.5903,-1.6572,-1.6313,-1.723,-1.8773,-1.994,-2.1751,-2.4101,-2.6917,-2.8663,-3.0009,-3.074,-3.192,-3.322,-3.394,-3.4217,-3.435,-3.4166,-3.4173,-3.4983,-3.5124,-3.4414,-3.3618,-3.2645,-3.1669,-3.1116,-3.0547,-2.9544,-2.8548,-2.7916,-2.7269,-2.6152,-2.521,-2.4611,-2.3828,-2.2839,-2.221,-2.1844,-2.1227,-2.0599,-2.0266,-1.9863,-1.9529,-1.9269,-1.942,-1.9687,-2.0248,-2.0557,-2.0763,-2.0865,-2.0928,-2.0471,-1.9864,-1.9395,-1.9037,-3.899,-3.7418,-3.6147,-3.531,-3.4463,-3.3134,-3.2138,-3.1184,-2.9448,-2.7677,-2.5833,-2.405,-2.1862,-1.9523,-1.8546,-1.7069,-1.5338,-1.4673,-1.3539,-1.2461,-1.2083,-1.1689,-1.1447,-1.1407,-1.1363,-1.1217,-1.0998,-1.0718,-1.0272,-0.9984,-0.9432,-0.8934,-0.9023,-0.8626,-0.8237,-0.7984,-0.7996,-0.8107,-0.8282,-0.8526,-0.8788,-0.9159,-0.9446,-0.9943,-1.0548,-1.1213,-1.2095,-1.304,-1.3881,-1.4482,-1.493,-1.4937,-1.4974,-1.5062,-1.4533,-1.4137,-1.4093,-1.4633,-1.5141,-1.5556,-1.667,-1.7396,-1.7312,-1.8604,-1.995,-2.0971,-2.2805,-2.5028,-2.7725,-2.9164,-3.0493,-3.1635,-3.275,-3.3779,-3.4684,-3.4986,-3.5157,-3.5099,-3.5026,-3.523,-3.5251,-3.4788,-3.3967,-3.3008,-3.2128,-3.1819,-3.1195,-3.0151,-2.9167,-2.813,-2.7431,-2.6673,-2.5801,-2.5206,-2.4283,-2.3166,-2.2286,-2.1669,-2.108,-2.0491,-2.0224,-1.9971,-1.9654,-1.9464,-1.9576,-1.9946,-2.0506,-2.0917,-2.1224,-2.1275,-2.1275,-2.0517,-1.9755,-1.9318,-1.8866,-4.0324,-3.9436,-3.884,-3.7517,-3.5672,-3.4209,-3.2977,-3.1766,-3.0099,-2.8049,-2.5767,-2.4232,-2.201,-1.945,-1.8543,-1.7259,-1.6066,-1.5047,-1.4202,-1.3392,-1.274,-1.236,-1.2091,-1.1882,-1.1498,-1.1065,-1.0792,-1.055,-0.9914,-0.9751,-0.9659,-0.9198,-0.9187,-0.8836,-0.8443,-0.8127,-0.8232,-0.8386,-0.8624,-0.8981,-0.9371,-0.9682,-1.0056,-1.0593,-1.12,-1.1907,-1.2912,-1.3641,-1.4332,-1.4765,-1.5024,-1.4991,-1.4382,-1.4561,-1.4353,-1.3557,-1.3804,-1.431,-1.4697,-1.5319,-1.6501,-1.8169,-1.8534,-1.9416,-2.0928,-2.2602,-2.416,-2.6239,-2.8486,-3.0119,-3.1159,-3.2145,-3.3285,-3.4266,-3.5,-3.5298,-3.548,-3.5479,-3.5354,-3.4919,-3.4963,-3.4799,-3.4032,-3.3481,-3.2695,-3.2454,-3.181,-3.0737,-2.9756,-2.8661,-2.7539,-2.68,-2.6081,-2.5412,-2.4408,-2.3237,-2.235,-2.1533,-2.0949,-2.043,-2.0018,-1.9763,-1.9631,-1.9752,-2.0031,-2.0346,-2.0771,-2.1173,-2.1632,-2.1479,-2.1336,-2.048,-1.974,-1.9406,-1.8903,-4.1677,-4.1104,-4.0541,-3.8834,-3.6496,-3.475,-3.3598,-3.2648,-3.0579,-2.8428,-2.6534,-2.4649,-2.2301,-1.9941,-1.8931,-1.7806,-1.6361,-1.5666,-1.4878,-1.4244,-1.3766,-1.3316,-1.2983,-1.2609,-1.2157,-1.1562,-1.1027,-1.0713,-1.0099,-0.9903,-0.9846,-0.953,-0.9537,-0.9158,-0.8758,-0.8506,-0.8647,-0.8953,-0.9268,-0.9532,-0.988,-1.0266,-1.0686,-1.1141,-1.1741,-1.2695,-1.3526,-1.4093,-1.4619,-1.4867,-1.4982,-1.4561,-1.3912,-1.384,-1.3586,-1.2929,-1.3331,-1.4013,-1.4677,-1.5656,-1.7108,-1.8649,-1.9855,-2.1156,-2.239,-2.3987,-2.5345,-2.6996,-2.9249,-3.1159,-3.1816,-3.2568,-3.3669,-3.4703,-3.5112,-3.5555,-3.5614,-3.5696,-3.527,-3.4653,-3.4474,-3.4401,-3.4049,-3.3624,-3.3197,-3.2833,-3.2073,-3.0874,-3.0021,-2.9204,-2.7927,-2.68,-2.619,-2.5514,-2.4446,-2.3429,-2.2381,-2.1536,-2.0952,-2.0409,-1.9893,-1.9563,-1.9443,-1.9907,-2.0576,-2.0917,-2.1326,-2.1725,-2.203,-2.1878,-2.1794,-2.1311,-2.0624,-1.9942,-1.9318,-4.2766,-4.2215,-4.1187,-3.9311,-3.7135,-3.5185,-3.4211,-3.383,-3.0991,-2.9008,-2.7571,-2.5267,-2.2775,-2.068,-1.9686,-1.8526,-1.7392,-1.6553,-1.5945,-1.5085,-1.4686,-1.4291,-1.3887,-1.3405,-1.2741,-1.2289,-1.1755,-1.1078,-1.0789,-1.0534,-1.0204,-0.9879,-0.9605,-0.9316,-0.9041,-0.8608,-0.8766,-0.9309,-0.9693,-1.0038,-1.0731,-1.116,-1.1437,-1.18,-1.2483,-1.3271,-1.3771,-1.4327,-1.49,-1.4776,-1.4482,-1.3941,-1.3397,-1.2886,-1.2452,-1.2673,-1.3112,-1.3833,-1.484,-1.5956,-1.7551,-1.9226,-2.0958,-2.2259,-2.352,-2.4586,-2.5787,-2.7946,-3.0276,-3.1807,-3.2641,-3.3326,-3.4312,-3.5052,-3.5519,-3.5731,-3.5749,-3.5547,-3.5005,-3.4508,-3.428,-3.4244,-3.4424,-3.4003,-3.358,-3.3243,-3.2327,-3.1059,-3.0298,-2.9638,-2.8436,-2.6992,-2.5999,-2.5386,-2.4825,-2.3766,-2.2443,-2.1574,-2.0859,-2.0132,-1.9416,-1.9271,-1.9222,-1.9902,-2.0674,-2.1493,-2.1979,-2.2283,-2.2485,-2.2526,-2.2416,-2.2255,-2.1645,-2.0897,-2.0089,-4.239,-4.1371,-3.992,-3.8918,-3.8161,-3.6324,-3.4918,-3.3925,-3.1351,-2.9396,-2.7762,-2.5646,-2.3543,-2.1673,-2.0659,-1.9575,-1.8677,-1.784,-1.7249,-1.6531,-1.5904,-1.5325,-1.4824,-1.411,-1.3365,-1.2513,-1.1941,-1.1514,-1.1145,-1.0868,-1.0693,-1.0632,-1.0059,-0.9422,-0.93,-0.8829,-0.8864,-0.9441,-0.9985,-1.0417,-1.1022,-1.1477,-1.1827,-1.2115,-1.2627,-1.324,-1.3741,-1.4179,-1.4299,-1.4122,-1.3673,-1.3164,-1.2666,-1.215,-1.204,-1.2378,-1.309,-1.3878,-1.4876,-1.6299,-1.7925,-1.935,-2.0961,-2.2515,-2.3791,-2.4739,-2.6442,-2.8917,-3.0926,-3.2293,-3.3404,-3.4118,-3.481,-3.536,-3.5833,-3.5827,-3.5817,-3.5324,-3.4773,-3.4483,-3.423,-3.4311,-3.4534,-3.4347,-3.3953,-3.3223,-3.2297,-3.1339,-3.0632,-2.9921,-2.8889,-2.7451,-2.5828,-2.5084,-2.4723,-2.3786,-2.2369,-2.1126,-2.0216,-1.9575,-1.893,-1.8694,-1.8631,-1.9762,-2.0676,-2.1776,-2.2535,-2.2636,-2.2828,-2.3029,-2.3111,-2.2974,-2.2824,-2.2231,-2.1336,-4.1953,-4.113,-3.9563,-3.8603,-3.7959,-3.6486,-3.5148,-3.383,-3.1712,-3.0003,-2.8444,-2.6201,-2.4224,-2.2769,-2.1753,-2.0883,-2.0003,-1.9348,-1.8514,-1.7792,-1.7184,-1.65,-1.5776,-1.5011,-1.4468,-1.3639,-1.2663,-1.2091,-1.1586,-1.1121,-1.0964,-1.0926,-1.0104,-0.9492,-0.9428,-0.8996,-0.8858,-0.9336,-1.0037,-1.0623,-1.1142,-1.158,-1.2048,-1.2324,-1.2747,-1.3298,-1.372,-1.4115,-1.4083,-1.3579,-1.2945,-1.2174,-1.1744,-1.1409,-1.1521,-1.2085,-1.2954,-1.4043,-1.5077,-1.6586,-1.8359,-1.9774,-2.1883,-2.377,-2.4426,-2.5483,-2.7155,-2.9515,-3.1665,-3.3183,-3.3856,-3.4572,-3.5201,-3.5754,-3.5826,-3.5776,-3.5588,-3.5264,-3.4874,-3.4628,-3.4477,-3.4552,-3.4607,-3.4347,-3.393,-3.3482,-3.2484,-3.1964,-3.1244,-3.0444,-2.9345,-2.8097,-2.652,-2.5283,-2.4778,-2.3599,-2.2057,-2.0866,-1.9743,-1.9138,-1.8653,-1.8077,-1.8055,-1.9465,-2.1011,-2.2627,-2.3188,-2.3279,-2.3388,-2.3637,-2.3737,-2.3759,-2.3587,-2.3438,-2.298,-4.1355,-4.0991,-3.9454,-3.8304,-3.7402,-3.6231,-3.5103,-3.3951,-3.2083,-3.0691,-2.9407,-2.6803,-2.5241,-2.4081,-2.2965,-2.2072,-2.1266,-2.0523,-1.9709,-1.8977,-1.8414,-1.7817,-1.7064,-1.6268,-1.5635,-1.4865,-1.3922,-1.298,-1.2209,-1.1901,-1.1609,-1.1087,-1.0365,-0.9618,-0.9408,-0.9142,-0.9016,-0.9509,-1.0089,-1.061,-1.1112,-1.1579,-1.2039,-1.2482,-1.2912,-1.3226,-1.3649,-1.3922,-1.3934,-1.3251,-1.2248,-1.1477,-1.1079,-1.0952,-1.1364,-1.1934,-1.3308,-1.4448,-1.572,-1.7585,-1.9042,-2.0683,-2.3151,-2.4522,-2.5054,-2.6268,-2.7921,-2.9725,-3.1889,-3.3699,-3.4376,-3.4925,-3.5556,-3.592,-3.5816,-3.5629,-3.5409,-3.5228,-3.5071,-3.4828,-3.4888,-3.4902,-3.4619,-3.436,-3.3932,-3.3473,-3.3062,-3.2651,-3.2074,-3.1213,-3.0253,-2.8951,-2.7461,-2.6293,-2.4993,-2.3792,-2.2285,-2.0927,-1.9928,-1.9076,-1.8414,-1.8174,-1.8415,-1.9406,-2.0995,-2.317,-2.3976,-2.4125,-2.4242,-2.4251,-2.4242,-2.4282,-2.4332,-2.4282,-2.4627,-4.0094,-3.9512,-3.8219,-3.7696,-3.7513,-3.628,-3.5252,-3.4239,-3.2345,-3.1079,-2.9961,-2.8034,-2.6309,-2.5296,-2.4461,-2.3568,-2.2657,-2.1823,-2.0888,-2.0099,-1.9557,-1.9073,-1.8375,-1.7378,-1.6675,-1.582,-1.502,-1.4457,-1.3421,-1.3129,-1.2699,-1.1837,-1.0895,-1.0172,-0.9644,-0.9332,-0.9132,-0.9583,-1.0073,-1.0608,-1.0989,-1.1404,-1.1664,-1.1988,-1.2199,-1.25,-1.2811,-1.307,-1.2996,-1.2519,-1.1763,-1.0992,-1.0761,-1.0909,-1.1413,-1.2337,-1.3729,-1.5156,-1.6687,-1.8381,-1.9764,-2.1229,-2.3275,-2.4512,-2.5229,-2.6278,-2.7846,-2.933,-3.1514,-3.4047,-3.4981,-3.5332,-3.5791,-3.5898,-3.5872,-3.5507,-3.5179,-3.5325,-3.5412,-3.5395,-3.5472,-3.5193,-3.4764,-3.4396,-3.3915,-3.3491,-3.3273,-3.2876,-3.2635,-3.187,-3.1079,-2.9846,-2.8499,-2.6409,-2.4702,-2.414,-2.287,-2.1393,-2.0138,-1.9524,-1.9012,-1.8534,-1.893,-1.9785,-2.1854,-2.4214,-2.4716,-2.4922,-2.4784,-2.4784,-2.4784,-2.4784,-2.4833,-2.4932,-2.5118]},{"header":{"parameterUnit":"m.s-1","parameterCategory":1,"la1":31.0,"la2":29.5877,"lo1":-88.7671,"lo2":-86.6584,"dy":0.0162,"dx":0.0185,"nx":115,"ny":88,"refTime":"2026-05-21T12:00:00:Z","depth":0,"parameterNumber":3,"parameterNumberName":"V-component_of_WINDS"},"data":[0.0,0.0,0.0,0.0,0.0,0.0,0.0,0.0,0.0,0.0,0.0,0.0,0.0,0.0,0.0,0.0,0.0,0.0,0.0,0.0,0.0,0.0,0.0,0.0,0.0,0.0,0.0,0.0,0.0,0.0,0.0,0.0,0.0,0.0,0.0,0.0,0.0,0.0,0.0,0.0,0.0,0.0,0.0,0.0,0.0,0.0,0.0,0.0,0.0,0.0,0.0,0.0,0.0,0.0,0.0,0.0,0.0,0.0,0.0,0.0,0.0,0.0,0.0,0.0,0.0,0.0,0.0,0.0,0.0,0.0,0.0,0.0,0.0,0.0,0.0,0.0,0.0,0.0,0.0,0.0,0.0,0.0,0.0,0.0,0.0,0.0,0.0,0.0,0.0,0.0,0.0,0.0,0.0,0.0,0.0,0.0,0.0,0.0,0.0,0.0,0.0,0.0,0.0,0.0,0.0,0.0,0.0,0.0,0.0,0.0,0.0,0.0,0.0,0.0,0.0,0.0,0.0,0.0,0.0,0.0,0.0,0.0,0.0,0.0,0.0,0.0,0.0,0.0,0.0,0.0,0.0,0.0,0.0,0.0,0.0,0.0,0.0,0.0,0.0,0.0,0.0,0.0,0.0,0.0,0.0,0.0,0.0,0.0,0.0,0.0,0.0,0.0,0.0,0.0,0.0,0.0,0.0,0.0,0.0,0.0,0.0,0.0,0.0,0.0,0.0,0.0,0.0,0.0,0.0,0.0,0.0,0.0,0.0,0.0,0.0,0.0,0.0,0.0,0.0,0.0,0.0,0.0,0.0,0.0,0.0,0.0,0.0,0.0,0.0,0.0,0.0,0.0,0.0,0.0,0.0,0.0,0.0,0.0,0.0,0.0,0.0,0.0,0.0,0.0,0.0,0.0,0.0,0.0,0.0,0.0,0.0,0.0,0.0,0.0,0.0,0.0,0.0,0.0,0.0,0.0,0.0,0.0,0.0,0.0,0.0,0.0,0.0,0.0,0.0,0.0,0.0,0.0,0.0,0.0,0.0,0.0,0.0,0.0,0.0,0.0,0.0,0.0,0.0,0.0,0.0,0.0,0.0,0.0,0.0,0.0,0.0,0.0,0.0,0.0,0.0,0.0,0.0,0.0,0.0,0.0,0.0,0.0,0.0,0.0,0.0,0.0,0.0,0.0,0.0,0.0,0.0,0.0,0.0,0.0,0.0,0.0,0.0,0.0,0.0,0.0,0.0,0.0,0.0,0.0,0.0,0.0,0.0,0.0,0.0,0.0,0.0,0.0,0.0,0.0,0.0,0.0,0.0,0.0,0.0,0.0,0.0,0.0,0.0,0.0,0.0,0.0,0.0,0.0,0.0,0.0,0.0,0.0,0.0,0.0,0.0,0.0,0.0,0.0,0.0,0.0,0.0,0.0,0.0,0.0,0.0,0.0,0.0,0.0,0.0,0.0,0.0,0.0,0.0,0.0,0.0,0.0,0.0,0.0,0.0,0.0,0.0,0.0,0.0,0.0,0.0,0.0,0.0,0.0,0.0,0.0,0.0,0.0,0.0,0.0,0.0,0.0,0.0,0.0,0.0,0.0,0.0,0.0,0.0,0.0,0.0,0.0,0.0,0.0,0.0,0.0,0.0,0.0,0.0,0.0,0.0,0.0,0.0,0.0,0.0,0.0,0.0,0.0,0.0,0.0,0.0,0.0,0.0,0.0,0.0,0.0,0.0,0.0,0.0,0.0,0.0,0.0,0.0,0.0,0.0,0.0,0.0,0.0,0.0,0.0,0.0,0.0,0.0,0.0,0.0,0.0,0.0,0.0,0.0,0.0,0.0,0.0,0.0,0.0,0.0,0.0,0.0,0.0,0.0,0.0,0.0,0.0,0.0,0.0,0.0,0.0,0.0,0.0,0.0,0.0,0.0,0.0,0.0,0.0,0.0,0.0,0.0,0.0,0.0,0.0,0.0,0.0,0.0,0.0,0.0,0.0,0.0,0.0,0.0,0.0,0.0,0.0,0.0,0.0,0.0,0.0,0.0,0.0,0.0,0.0,0.0,0.0,0.0,0.0,0.0,0.0,0.0,0.0,0.0,0.0,0.0,0.0,0.0,0.0,0.0,0.0,0.0,0.0,0.0,0.0,0.0,0.0,0.0,0.0,0.0,0.0,0.0,0.0,0.0,0.0,0.0,0.0,0.0,0.0,0.0,0.0,0.0,0.0,0.0,0.0,0.0,0.0,0.0,0.0,0.0,0.0,0.0,0.0,0.0,0.0,0.0,0.0,0.0,0.0,0.0,0.0,0.0,0.0,0.0,0.0,0.0,0.0,0.0,0.0,0.0,0.0,0.0,0.0,0.0,0.0,0.0,0.0,0.0,0.0,0.0,0.0,0.0,0.0,0.0,0.0,0.0,0.0,0.0,0.0,0.0,0.0,0.0,0.0,0.0,0.0,0.0,0.0,0.0,0.0,0.0,0.0,0.0,0.0,0.0,0.0,0.0,0.0,0.0,0.0,0.0,0.0,0.0,0.0,0.0,0.0,0.0,0.0,0.0,0.0,0.0,0.0,0.0,0.0,0.0,0.0,0.0,0.0,0.0,0.0,0.0,0.0,0.0,0.0,0.0,0.0,0.0,0.0,0.0,0.0,0.0,0.0,0.0,0.0,0.0,0.0,0.0,0.0,0.0,0.0,0.0,0.0,0.0,0.0,0.0,0.0,0.0,0.0,0.0,0.0,0.0,0.0,0.0,0.0,0.0,0.0,0.0,0.0,0.0,0.0,0.0,0.0,0.0,0.0,0.0,0.0,0.0,0.0,0.0,0.0,0.0,0.0,0.0,0.0,0.0,0.0,0.0,0.0,0.0,0.0,0.0,0.0,0.0,0.0,0.0,0.0,0.0,0.0,0.0,0.0,0.0,0.0,0.0,0.0,0.0,0.0,0.0,0.0,0.0,0.0,0.0,0.0,0.0,0.0,0.0,0.0,0.0,0.0,0.0,0.0,0.0,0.0,0.0,0.0,0.0,0.0,0.0,0.0,0.0,0.0,0.0,0.0,0.0,0.0,0.0,0.0,0.0,0.0,0.0,0.0,0.0,0.0,0.0,0.0,0.0,0.0,0.0,0.0,0.0,0.0,0.0,0.0,0.0,0.0,0.0,0.0,0.0,0.0,0.0,0.0,0.0,0.0,0.0,0.0,0.0,0.0,0.0,0.0,0.0,0.0,0.0,0.0,0.0,0.0,0.0,0.0,0.0,0.0,0.0,0.0,0.0,0.0,0.0,0.0,0.0,0.0,0.0,0.0,0.0,0.0,0.0,0.0,0.0,0.0,0.0,0.0,0.0,0.0,0.0,0.0,0.0,0.0,0.0,0.0,0.0,0.0,0.0,0.0,0.0,0.0,0.0,0.0,0.0,0.0,0.0,0.0,0.0,0.0,0.0,0.0,0.0,0.0,0.0,0.0,0.0,0.0,0.0,0.0,0.0,0.0,0.0,0.0,0.0,0.0,0.0,0.0,0.0,0.0,0.0,0.0,0.0,0.0,0.0,0.0,0.0,0.0,0.0,0.0,0.0,0.0,0.0,0.0,0.0,0.0,0.0,0.0,0.0,0.0,0.0,0.0,0.0,0.0,0.0,0.0,0.0,0.0,0.0,0.0,0.0,0.0,0.0,0.0,0.0,0.0,0.0,0.0,0.0,0.0,0.0,0.0,0.0,0.0,0.0,0.0,0.0,0.0,0.0,0.0,0.0,0.0,0.0,0.0,0.0,0.0,0.0,0.0,0.0,0.0,0.0,0.0,0.0,0.0,0.0,0.0,0.0,0.0,0.0,0.0,0.0,0.0,0.0,0.0,0.0,0.0,0.0,0.0,0.0,0.0,0.0,0.0,0.0,0.0,0.0,0.0,0.0,0.0,0.0,0.0,0.0,0.0,0.0,0.0,0.0,0.0,0.0,0.0,0.0,0.0,0.0,0.0,0.0,0.0,0.0,0.0,0.0,0.0,0.0,0.0,0.0,0.0,0.0,0.0,0.0,0.0,0.0,0.0,0.0,0.0,0.0,0.0,0.0,0.0,0.0,0.0,0.0,0.0,0.0,0.0,0.0,0.0,0.0,0.0,0.0,0.0,0.0,0.0,0.0,0.0,0.0,0.0,0.0,0.0,0.0,0.0,0.0,0.0,0.0,0.0,0.0,0.0,0.0,0.0,0.0,0.0,0.0,0.0,0.0,0.0,0.0,0.0,0.0,0.0,0.0,0.0,0.0,0.0,0.0,0.0,2.6168,0.0,0.0,0.0,0.0,0.0,0.0,0.0,0.0,0.0,0.0,0.0,0.0,0.0,0.0,0.0,0.0,0.0,0.0,0.0,0.0,0.0,0.0,0.0,0.0,0.0,0.0,0.0,0.0,0.0,0.0,0.0,0.0,0.0,0.0,0.0,0.0,0.0,0.0,0.0,0.0,0.0,0.0,0.0,0.0,0.0,0.0,0.0,0.0,0.0,0.0,0.0,0.0,0.0,0.0,0.0,0.0,0.0,0.0,0.0,0.0,0.0,0.0,0.0,0.0,0.0,0.0,0.0,0.0,0.0,0.0,0.0,0.0,0.0,0.0,0.0,0.0,0.0,0.0,0.0,0.0,0.0,0.0,0.0,0.0,0.0,0.0,0.0,0.0,0.0,0.0,0.0,0.0,0.0,0.0,0.0,0.0,0.0,0.0,0.0,0.0,0.0,0.0,0.0,0.0,0.0,0.0,0.0,0.0,0.0,0.0,2.7592,2.775,2.7259,2.705,2.7206,0.0,0.0,0.0,0.0,0.0,0.0,0.0,0.0,0.0,0.0,0.0,0.0,0.0,0.0,0.0,0.0,0.0,0.0,0.0,0.0,0.0,0.0,0.0,0.0,0.0,0.0,0.0,0.0,0.0,0.0,0.0,0.0,0.0,0.0,0.0,0.0,0.0,0.0,0.0,0.0,0.0,0.0,0.0,0.0,0.0,0.0,0.0,0.0,0.0,0.0,0.0,0.0,0.0,0.0,0.0,0.0,0.0,0.0,0.0,0.0,0.0,0.0,0.0,0.0,0.0,0.0,0.0,0.0,0.0,0.0,0.0,0.0,0.0,0.0,0.0,0.0,0.0,0.0,0.0,0.0,0.0,0.0,0.0,0.0,0.0,0.0,0.0,0.0,0.0,0.0,0.0,0.0,0.0,0.0,0.0,0.0,0.0,0.0,0.0,0.0,0.0,0.0,0.0,0.0,0.0,0.0,0.0,0.0,0.0,0.0,0.0,0.0,2.7953,2.7569,2.7381,0.0,0.0,0.0,0.0,0.0,0.0,0.0,0.0,0.0,0.0,0.0,0.0,0.0,0.0,0.0,0.0,0.0,0.0,0.0,0.0,0.0,0.0,0.0,0.0,0.0,0.0,0.0,0.0,0.0,0.0,0.0,0.0,0.0,0.0,0.0,0.0,0.0,0.0,0.0,0.0,0.0,0.0,0.0,0.0,0.0,0.0,0.0,0.0,0.0,0.0,0.0,0.0,0.0,0.0,0.0,0.0,0.0,0.0,0.0,0.0,0.0,0.0,0.0,0.0,0.0,0.0,0.0,0.0,0.0,0.0,0.0,0.0,0.0,0.0,0.0,0.0,0.0,0.0,0.0,0.0,0.0,0.0,0.0,0.0,0.0,0.0,0.0,0.0,0.0,0.0,0.0,0.0,0.0,0.0,0.0,0.0,0.0,0.0,0.0,0.0,0.0,0.0,0.0,0.0,0.0,0.0,0.0,0.0,0.0,0.0,2.8535,2.8685,2.7953,0.0,2.5516,0.0,0.0,0.0,0.0,0.0,0.0,0.0,0.0,0.0,0.0,0.0,0.0,0.0,0.0,0.0,0.0,0.0,0.0,0.0,0.0,0.0,0.0,0.0,0.0,0.0,0.0,0.0,0.0,0.0,0.0,0.0,0.0,0.0,0.0,0.0,0.0,0.0,0.0,0.0,0.0,0.0,0.0,0.0,0.0,0.0,0.0,0.0,0.0,0.0,0.0,0.0,0.0,0.0,0.0,0.0,0.0,0.0,0.0,0.0,0.0,0.0,0.0,0.0,0.0,0.0,0.0,0.0,0.0,0.0,0.0,0.0,0.0,0.0,0.0,0.0,0.0,0.0,0.0,0.0,0.0,0.0,0.0,0.0,0.0,0.0,0.0,0.0,0.0,0.0,0.0,0.0,0.0,0.0,0.0,0.0,0.0,0.0,0.0,0.0,0.0,0.0,0.0,0.0,0.0,0.0,0.0,0.0,0.0,0.0,0.0,2.8662,2.898,2.8842,2.7805,0.0,0.0,0.0,0.0,0.0,0.0,0.0,0.0,0.0,0.0,0.0,0.0,0.0,0.0,0.0,0.0,0.0,0.0,0.0,0.0,0.0,0.0,0.0,0.0,0.0,0.0,0.0,0.0,0.0,0.0,0.0,0.0,0.0,0.0,0.0,0.0,0.0,0.0,0.0,0.0,0.0,0.0,0.0,0.0,0.0,0.0,0.0,0.0,0.0,0.0,0.0,0.0,0.0,0.0,0.0,0.0,0.0,0.0,0.0,0.0,0.0,0.0,0.0,0.0,0.0,0.0,0.0,0.0,0.0,0.0,0.0,0.0,0.0,0.0,0.0,0.0,0.0,0.0,0.0,0.0,0.0,0.0,0.0,0.0,0.0,0.0,0.0,0.0,0.0,0.0,0.0,0.0,0.0,0.0,0.0,0.0,0.0,0.0,0.0,0.0,0.0,0.0,0.0,0.0,0.0,0.0,0.0,0.0,0.0,0.0,2.8936,0.0,2.8957,2.9232,2.8455,2.6432,0.0,0.0,0.0,0.0,0.0,0.0,0.0,0.0,0.0,0.0,0.0,0.0,0.0,0.0,0.0,0.0,0.0,0.0,0.0,0.0,0.0,0.0,0.0,0.0,0.0,0.0,0.0,0.0,0.0,0.0,0.0,0.0,0.0,0.0,0.0,0.0,0.0,0.0,0.0,0.0,0.0,0.0,0.0,0.0,0.0,0.0,0.0,0.0,0.0,0.0,0.0,0.0,0.0,0.0,0.0,0.0,0.0,0.0,0.0,0.0,0.0,0.0,0.0,0.0,0.0,0.0,0.0,0.0,0.0,0.0,0.0,0.0,0.0,0.0,0.0,0.0,0.0,0.0,0.0,0.0,0.0,0.0,0.0,0.0,0.0,0.0,0.0,0.0,0.0,0.0,0.0,0.0,0.0,0.0,0.0,0.0,0.0,0.0,0.0,0.0,0.0,0.0,0.0,0.0,0.0,0.0,0.0,0.0,0.0,2.9299,2.8701,2.8376,2.8724,2.8153,0.0,0.0,0.0,0.0,0.0,0.0,0.0,0.0,0.0,0.0,0.0,0.0,0.0,0.0,0.0,0.0,0.0,0.0,0.0,0.0,0.0,0.0,0.0,0.0,0.0,0.0,0.0,0.0,0.0,0.0,0.0,0.0,0.0,0.0,0.0,0.0,0.0,0.0,0.0,0.0,0.0,0.0,0.0,0.0,0.0,0.0,0.0,0.0,0.0,0.0,0.0,0.0,0.0,0.0,0.0,0.0,0.0,0.0,0.0,0.0,0.0,0.0,0.0,0.0,0.0,0.0,0.0,0.0,0.0,0.0,0.0,0.0,0.0,0.0,0.0,0.0,0.0,0.0,0.0,0.0,0.0,0.0,0.0,0.0,0.0,0.0,0.0,0.0,0.0,0.0,0.0,0.0,0.0,0.0,0.0,0.0,0.0,0.0,0.0,0.0,0.0,0.0,0.0,0.0,0.0,0.0,0.0,0.0,0.0,2.9658,2.9186,2.8567,2.7795,2.8795,2.8484,0.0,0.0,0.0,0.0,0.0,0.0,0.0,0.0,0.0,0.0,0.0,0.0,0.0,0.0,0.0,0.0,0.0,0.0,0.0,0.0,0.0,0.0,0.0,0.0,0.0,0.0,0.0,0.0,0.0,0.0,0.0,0.0,0.0,0.0,0.0,0.0,0.0,0.0,0.0,0.0,0.0,0.0,0.0,0.0,0.0,0.0,0.0,0.0,0.0,0.0,0.0,0.0,0.0,0.0,0.0,0.0,0.0,0.0,0.0,0.0,0.0,0.0,0.0,0.0,0.0,0.0,0.0,0.0,0.0,0.0,0.0,0.0,0.0,0.0,0.0,0.0,0.0,0.0,0.0,0.0,0.0,0.0,0.0,0.0,0.0,0.0,0.0,0.0,0.0,0.0,0.0,0.0,0.0,0.0,0.0,0.0,0.0,0.0,0.0,0.0,0.0,0.0,0.0,0.0,0.0,0.0,0.0,0.0,0.0,2.9484,0.0,2.9039,0.0,2.8888,2.8594,0.0,0.0,0.0,0.0,0.0,0.0,0.0,0.0,0.0,0.0,0.0,0.0,0.0,0.0,0.0,0.0,0.0,0.0,0.0,0.0,0.0,0.0,0.0,0.0,0.0,0.0,0.0,0.0,0.0,0.0,0.0,0.0,0.0,0.0,0.0,0.0,0.0,0.0,0.0,0.0,0.0,0.0,0.0,0.0,0.0,0.0,0.0,0.0,0.0,0.0,0.0,0.0,0.0,0.0,0.0,0.0,0.0,0.0,0.0,0.0,0.0,0.0,0.0,0.0,0.0,0.0,0.0,0.0,0.0,0.0,0.0,0.0,0.0,0.0,0.0,0.0,0.0,0.0,0.0,0.0,0.0,0.0,0.0,0.0,0.0,0.0,0.0,0.0,0.0,0.0,0.0,0.0,0.0,0.0,0.0,0.0,0.0,0.0,0.0,0.0,0.0,0.0,0.0,0.0,0.0,0.0,0.0,0.0,3.0838,2.9619,3.0425,3.0155,2.8683,2.8974,2.843,0.0,0.0,0.0,0.0,0.0,0.0,0.0,0.0,0.0,0.0,0.0,0.0,0.0,0.0,0.0,0.0,0.0,0.0,0.0,0.0,0.0,0.0,0.0,0.0,0.0,0.0,0.0,0.0,0.0,0.0,0.0,0.0,0.0,0.0,0.0,0.0,0.0,0.0,0.0,0.0,0.0,0.0,0.0,0.0,0.0,0.0,0.0,0.0,0.0,0.0,0.0,0.0,0.0,0.0,0.0,0.0,0.0,0.0,0.0,0.0,0.0,0.0,0.0,0.0,0.0,0.0,0.0,0.0,0.0,0.0,0.0,0.0,0.0,0.0,0.0,0.0,0.0,0.0,0.0,0.0,0.0,0.0,0.0,0.0,0.0,0.0,0.0,0.0,0.0,0.0,0.0,0.0,0.0,0.0,0.0,0.0,0.0,0.0,0.0,0.0,0.0,0.0,0.0,0.0,0.0,0.0,0.0,0.0,0.0,3.0403,3.0225,2.995,2.9459,2.9533,2.8966,0.0,0.0,0.0,0.0,0.0,0.0,0.0,0.0,0.0,0.0,0.0,0.0,0.0,0.0,0.0,0.0,0.0,0.0,0.0,0.0,0.0,0.0,0.0,0.0,0.0,0.0,0.0,0.0,0.0,0.0,0.0,0.0,0.0,0.0,0.0,0.0,0.0,0.0,0.0,0.0,0.0,0.0,0.0,0.0,0.0,0.0,0.0,0.0,0.0,0.0,0.0,0.0,0.0,0.0,0.0,0.0,0.0,0.0,0.0,0.0,0.0,0.0,0.0,0.0,0.0,0.0,0.0,0.0,0.0,0.0,0.0,0.0,0.0,0.0,0.0,0.0,0.0,0.0,0.0,0.0,0.0,0.0,0.0,0.0,0.0,0.0,0.0,0.0,0.0,0.0,0.0,0.0,0.0,0.0,0.0,0.0,0.0,0.0,0.0,0.0,0.0,0.0,0.0,0.0,0.0,0.0,0.0,0.0,0.0,3.1962,3.1063,3.0304,2.967,2.9816,2.9297,2.7993,0.0,0.0,0.0,0.0,0.0,0.0,0.0,0.0,0.0,0.0,0.0,0.0,0.0,0.0,0.0,0.0,0.0,0.0,0.0,0.0,0.0,0.0,0.0,0.0,0.0,0.0,0.0,0.0,0.0,0.0,0.0,0.0,0.0,0.0,0.0,0.0,0.0,0.0,0.0,0.0,0.0,0.0,0.0,0.0,0.0,0.0,0.0,0.0,0.0,0.0,0.0,0.0,0.0,0.0,0.0,0.0,0.0,0.0,0.0,0.0,0.0,0.0,0.0,0.0,0.0,0.0,0.0,0.0,0.0,0.0,0.0,0.0,0.0,0.0,0.0,0.0,0.0,0.0,0.0,0.0,0.0,0.0,0.0,0.0,0.0,0.0,0.0,0.0,0.0,0.0,0.0,0.0,0.0,0.0,0.0,0.0,0.0,0.0,0.0,0.0,0.0,0.0,0.0,0.0,0.0,0.0,0.0,0.0,3.4013,3.2744,3.1265,2.9581,2.9868,2.9389,0.0,0.0,0.0,0.0,0.0,0.0,0.0,0.0,0.0,0.0,0.0,0.0,0.0,0.0,0.0,0.0,0.0,0.0,0.0,0.0,0.0,0.0,0.0,0.0,0.0,0.0,0.0,0.0,0.0,0.0,0.0,0.0,0.0,0.0,0.0,0.0,0.0,0.0,0.0,0.0,0.0,0.0,0.0,0.0,0.0,0.0,0.0,0.0,0.0,0.0,0.0,0.0,0.0,0.0,0.0,0.0,0.0,0.0,0.0,0.0,0.0,0.0,0.0,0.0,0.0,0.0,0.0,0.0,0.0,0.0,0.0,0.0,0.0,0.0,0.0,0.0,0.0,0.0,0.0,0.0,0.0,0.0,0.0,0.0,0.0,0.0,0.0,0.0,0.0,0.0,0.0,0.0,0.0,0.0,0.0,0.0,0.0,0.0,0.0,0.0,0.0,0.0,0.0,0.0,0.0,0.0,0.0,0.0,0.0,3.5038,3.3958,3.2499,3.067,3.0176,2.9478,0.0,0.0,0.0,0.0,0.0,0.0,0.0,0.0,0.0,0.0,0.0,0.0,0.0,0.0,0.0,0.0,0.0,0.0,0.0,0.0,0.0,0.0,0.0,0.0,0.0,0.0,0.0,0.0,0.0,0.0,0.0,0.0,0.0,0.0,0.0,0.0,0.0,0.0,0.0,0.0,0.0,0.0,0.0,0.0,0.0,0.0,0.0,0.0,0.0,0.0,0.0,0.0,0.0,0.0,0.0,0.0,0.0,0.0,0.0,0.0,0.0,0.0,0.0,0.0,0.0,0.0,0.0,0.0,0.0,0.0,0.0,0.0,0.0,0.0,0.0,0.0,0.0,0.0,0.0,0.0,0.0,0.0,0.0,0.0,0.0,0.0,0.0,0.0,0.0,0.0,0.0,0.0,0.0,0.0,0.0,0.0,0.0,0.0,0.0,0.0,0.0,0.0,0.0,0.0,0.0,0.0,0.0,0.0,3.7324,3.5904,3.5102,3.367,3.1539,3.0964,3.0069,0.0,0.0,0.0,0.0,0.0,0.0,0.0,0.0,0.0,0.0,0.0,0.0,0.0,0.0,0.0,0.0,0.0,0.0,0.0,0.0,0.0,0.0,0.0,0.0,0.0,0.0,0.0,0.0,0.0,0.0,0.0,0.0,0.0,0.0,0.0,0.0,0.0,0.0,0.0,0.0,0.0,0.0,0.0,0.0,0.0,0.0,0.0,0.0,0.0,0.0,0.0,0.0,0.0,0.0,0.0,0.0,0.0,0.0,0.0,0.0,0.0,0.0,0.0,0.0,0.0,0.0,0.0,0.0,0.0,0.0,0.0,0.0,0.0,0.0,0.0,0.0,0.0,0.0,0.0,0.0,0.0,0.0,0.0,0.0,0.0,0.0,0.0,0.0,0.0,0.0,0.0,0.0,0.0,0.0,0.0,0.0,0.0,0.0,0.0,0.0,0.0,0.0,0.0,0.0,0.0,0.0,0.0,0.0,3.8344,3.662,3.6061,3.4574,3.209,3.1815,3.0807,0.0,0.0,0.0,0.0,0.0,0.0,0.0,0.0,0.0,0.0,0.0,0.0,0.0,0.0,0.0,0.0,0.0,0.0,0.0,0.0,0.0,0.0,0.0,0.0,0.0,0.0,0.0,0.0,0.0,0.0,0.0,0.0,0.0,0.0,0.0,0.0,0.0,0.0,0.0,0.0,0.0,0.0,0.0,0.0,0.0,0.0,0.0,0.0,0.0,0.0,0.0,0.0,0.0,0.0,0.0,0.0,0.0,0.0,0.0,0.0,0.0,0.0,0.0,0.0,0.0,0.0,0.0,0.0,0.0,0.0,0.0,0.0,0.0,0.0,0.0,0.0,0.0,0.0,0.0,0.0,0.0,0.0,0.0,0.0,0.0,0.0,0.0,0.0,0.0,0.0,0.0,0.0,0.0,0.0,0.0,0.0,0.0,0.0,0.0,0.0,0.0,0.0,0.0,0.0,0.0,0.0,0.0,0.0,3.9406,3.7017,3.6206,3.4346,3.1319,3.1196,3.0667,0.0,0.0,0.0,0.0,0.0,0.0,0.0,0.0,0.0,0.0,0.0,0.0,0.0,0.0,0.0,0.0,0.0,0.0,0.0,0.0,0.0,0.0,0.0,0.0,0.0,0.0,0.0,0.0,0.0,0.0,0.0,0.0,0.0,0.0,0.0,0.0,0.0,0.0,0.0,0.0,0.0,0.0,0.0,0.0,0.0,0.0,0.0,0.0,1.714,0.0,0.0,0.0,0.0,0.0,0.0,0.0,0.0,0.0,0.0,0.0,0.0,0.0,0.0,0.0,0.0,0.0,0.0,0.0,0.0,0.0,0.0,0.0,0.0,0.0,0.0,0.0,0.0,0.0,0.0,0.0,0.0,0.0,0.0,0.0,0.0,0.0,0.0,0.0,0.0,0.0,0.0,0.0,0.0,0.0,0.0,0.0,0.0,0.0,0.0,0.0,0.0,0.0,0.0,0.0,0.0,0.0,0.0,0.0,4.0256,3.797,3.6738,3.4748,3.1942,3.1209,3.0391,0.0,0.0,0.0,0.0,0.0,0.0,0.0,0.0,0.0,0.0,0.0,0.0,0.0,0.0,0.0,0.0,0.0,0.0,0.0,0.0,0.0,0.0,0.0,0.0,0.0,0.0,0.0,0.0,0.0,0.0,0.0,0.0,0.0,0.0,0.0,0.0,0.0,0.0,0.0,0.0,0.0,0.0,0.0,0.0,0.0,0.0,0.0,0.0,0.0,0.0,0.0,0.0,0.0,0.0,0.0,0.0,0.0,0.0,0.0,0.0,0.0,0.0,0.0,0.0,0.0,0.0,0.0,0.0,0.0,0.0,0.0,0.0,0.0,0.0,0.0,0.0,0.0,0.0,0.0,0.0,0.0,0.0,0.0,0.0,0.0,0.0,0.0,0.0,0.0,0.0,0.0,0.0,0.0,0.0,0.0,0.0,0.0,0.0,0.0,0.0,0.0,0.0,0.0,0.0,0.0,0.0,0.0,4.2313,4.091,3.8736,3.7175,3.5159,3.2657,3.1331,3.0101,2.8905,0.0,0.0,0.0,0.0,0.0,0.0,0.0,0.0,0.0,0.0,0.0,0.0,0.0,0.0,0.0,0.0,0.0,0.0,0.0,0.0,0.0,0.0,0.0,0.0,0.0,0.0,0.0,0.0,0.0,0.0,0.0,0.0,0.0,0.0,0.0,0.0,0.0,0.0,2.6603,2.3723,0.0,0.0,0.0,0.0,0.0,0.0,0.0,0.0,1.6291,0.0,0.0,0.0,0.0,0.0,0.0,0.0,0.0,0.0,0.0,0.0,0.0,0.0,0.0,0.0,0.0,0.0,0.0,0.0,0.0,0.0,0.0,0.0,0.0,0.0,0.0,0.0,0.0,0.0,0.0,0.0,0.0,0.0,0.0,0.0,0.0,0.0,0.0,0.0,0.0,0.0,0.0,0.0,0.0,0.0,0.0,0.0,0.0,0.0,0.0,0.0,0.0,0.0,0.0,0.0,0.0,4.4031,4.3218,4.131,3.8306,3.6588,3.4545,3.2047,3.067,2.976,2.9375,0.0,0.0,0.0,0.0,0.0,0.0,0.0,0.0,0.0,0.0,0.0,0.0,0.0,0.0,0.0,0.0,0.0,0.0,0.0,0.0,0.0,0.0,0.0,0.0,0.0,0.0,0.0,0.0,0.0,0.0,0.0,0.0,0.0,0.0,0.0,0.0,0.0,0.0,0.0,2.521,2.3723,0.0,0.0,0.0,0.0,0.0,0.0,0.0,0.0,1.6665,0.0,0.0,0.0,0.0,0.0,0.0,0.0,0.0,0.0,0.0,0.0,0.0,0.0,0.0,0.0,0.0,0.0,0.0,0.0,0.0,0.0,0.0,0.0,0.0,0.0,0.0,0.0,0.0,0.0,0.0,0.0,0.0,0.0,0.0,0.0,0.0,0.0,0.0,0.0,0.0,0.0,0.0,0.0,0.0,0.0,0.0,0.0,0.0,0.0,0.0,0.0,0.0,0.0,0.0,0.0,4.428,4.3687,4.2106,3.9538,3.7082,3.457,3.2012,3.0544,2.9493,0.0,0.0,0.0,0.0,0.0,0.0,0.0,0.0,0.0,0.0,0.0,0.0,0.0,0.0,0.0,0.0,0.0,0.0,0.0,0.0,0.0,0.0,0.0,0.0,0.0,0.0,0.0,0.0,0.0,0.0,0.0,0.0,0.0,0.0,0.0,0.0,0.0,0.0,0.0,0.0,2.6508,2.5038,2.2776,0.0,0.0,0.0,0.0,0.0,0.0,1.7678,1.7506,0.0,0.0,0.0,0.0,0.0,0.0,0.0,0.0,0.0,0.0,0.0,0.0,0.0,0.0,0.0,0.0,0.0,0.0,0.0,0.0,0.0,0.0,0.0,0.0,0.0,0.0,0.0,0.0,0.0,0.0,0.0,0.0,0.0,0.0,0.0,0.0,0.0,0.0,0.0,0.0,0.0,0.0,0.0,0.0,0.0,0.0,0.0,0.0,0.0,0.0,0.0,0.0,0.0,0.0,0.0,4.4385,4.391,4.2593,4.0521,3.7603,3.4794,3.212,3.045,2.9116,0.0,0.0,0.0,0.0,0.0,0.0,0.0,0.0,0.0,0.0,0.0,0.0,0.0,0.0,0.0,0.0,0.0,0.0,0.0,0.0,0.0,0.0,0.0,0.0,0.0,0.0,0.0,0.0,0.0,0.0,0.0,0.0,0.0,0.0,0.0,0.0,0.0,0.0,0.0,0.0,0.0,2.6,2.4377,2.2662,0.0,0.0,0.0,0.0,2.0096,1.919,0.0,0.0,0.0,0.0,0.0,0.0,0.0,0.0,0.0,0.0,0.0,0.0,0.0,0.0,0.0,0.0,0.0,0.0,0.0,0.0,0.0,0.0,0.0,0.0,0.0,0.0,0.0,0.0,0.0,0.0,0.0,0.0,0.0,0.0,0.0,0.0,0.0,0.0,0.0,0.0,0.0,0.0,0.0,0.0,0.0,0.0,0.0,0.0,0.0,0.0,0.0,0.0,0.0,0.0,0.0,0.0,4.452,4.3724,4.2071,3.9611,3.7462,3.5008,3.2259,2.9934,2.8552,0.0,0.0,0.0,0.0,0.0,0.0,0.0,0.0,0.0,0.0,0.0,0.0,0.0,0.0,0.0,0.0,0.0,0.0,0.0,0.0,0.0,0.0,0.0,0.0,0.0,0.0,0.0,0.0,0.0,0.0,0.0,0.0,0.0,0.0,0.0,0.0,0.0,0.0,0.0,0.0,0.0,2.7497,2.6167,2.4701,2.3054,0.0,0.0,2.4612,2.261,2.2335,0.0,0.0,0.0,0.0,0.0,0.0,0.0,0.0,0.0,0.0,0.0,0.0,0.0,0.0,0.0,0.0,0.0,0.0,0.0,0.0,0.0,0.0,0.0,0.0,0.0,0.0,0.0,0.0,0.0,0.0,0.0,0.0,0.0,0.0,0.0,0.0,0.0,0.0,0.0,0.0,0.0,0.0,0.0,0.0,0.0,0.0,0.0,0.0,0.0,0.0,0.0,0.0,0.0,0.0,0.0,4.2071,4.3168,4.2843,4.1921,4.0416,3.7778,3.5295,3.2987,3.0703,2.8802,0.0,0.0,0.0,0.0,0.0,0.0,0.0,0.0,0.0,0.0,0.0,0.0,0.0,0.0,0.0,0.0,0.0,0.0,0.0,0.0,0.0,0.0,0.0,0.0,0.0,0.0,0.0,0.0,0.0,0.0,0.0,0.0,0.0,0.0,0.0,0.0,0.0,0.0,0.0,0.0,0.0,0.0,2.7731,2.6327,0.0,0.0,0.0,2.7217,2.593,0.0,0.0,0.0,0.0,0.0,0.0,0.0,0.0,0.0,0.0,0.0,0.0,0.0,0.0,0.0,0.0,0.0,0.0,0.0,0.0,0.0,0.0,0.0,0.0,0.0,0.0,0.0,0.0,0.0,0.0,0.0,0.0,0.0,0.0,0.0,0.0,0.0,0.0,0.0,0.0,0.0,0.0,0.0,0.0,0.0,0.0,0.0,0.0,0.0,0.0,0.0,0.0,0.0,0.0,0.0,0.0,0.0,4.2004,4.1864,4.1416,4.0675,3.8027,3.568,3.3725,3.1405,0.0,0.0,0.0,0.0,0.0,0.0,0.0,0.0,0.0,0.0,0.0,0.0,0.0,0.0,0.0,0.0,0.0,0.0,0.0,0.0,0.0,0.0,0.0,0.0,0.0,0.0,0.0,2.2894,0.0,0.0,0.0,0.0,0.0,0.0,0.0,0.0,0.0,0.0,0.0,0.0,0.0,0.0,2.9818,2.9404,2.8032,2.8136,0.0,0.0,2.8711,2.8431,2.6883,2.5702,0.0,0.0,0.0,0.0,0.0,0.0,0.0,0.0,0.0,0.0,0.0,0.0,0.0,0.0,0.0,0.0,0.0,0.0,0.0,0.0,0.0,0.0,0.0,0.0,0.0,0.0,0.0,0.0,0.0,0.0,0.0,0.0,0.0,0.0,0.0,0.0,0.0,0.0,0.0,0.0,0.0,0.0,0.0,0.0,0.0,0.0,0.0,0.0,0.0,0.0,0.0,0.0,0.0,0.0,0.0,4.1457,4.0942,4.0205,3.9315,3.7902,3.6224,3.4276,3.1566,2.9493,0.0,0.0,0.0,0.0,0.0,0.0,0.0,0.0,0.0,0.0,0.0,0.0,0.0,0.0,0.0,0.0,0.0,0.0,0.0,0.0,0.0,0.0,0.0,0.0,0.0,0.0,0.0,0.0,0.0,0.0,0.0,0.0,0.0,0.0,0.0,0.0,0.0,0.0,0.0,0.0,0.0,3.1478,3.1335,2.9948,2.9557,0.0,0.0,2.8387,2.9265,2.8873,2.8021,2.6818,0.0,0.0,0.0,0.0,0.0,0.0,0.0,0.0,0.0,0.0,0.0,0.0,0.0,0.0,0.0,0.0,0.0,0.0,0.0,0.0,0.0,0.0,0.0,0.0,0.0,0.0,0.0,0.0,0.0,0.0,0.0,0.0,0.0,0.0,0.0,0.0,0.0,0.0,0.0,0.0,0.0,0.0,0.0,0.0,0.0,0.0,0.0,0.0,0.0,0.0,0.0,0.0,0.0,3.8433,3.9565,3.9424,3.9133,3.8682,3.7616,3.6231,3.4668,3.2969,3.1046,0.0,0.0,0.0,0.0,0.0,0.0,0.0,0.0,0.0,0.0,0.0,0.0,0.0,0.0,0.0,0.0,0.0,0.0,0.0,0.0,0.0,0.0,0.0,0.0,0.0,0.0,0.0,0.0,2.4933,2.528,2.5116,0.0,0.0,0.0,0.0,0.0,0.0,0.0,0.0,0.0,0.0,3.3158,3.1999,3.0955,0.0,0.0,3.0379,3.1287,2.9948,3.048,3.0651,2.9579,3.0162,0.0,0.0,0.0,0.0,0.0,0.0,0.0,0.0,0.0,0.0,0.0,0.0,0.0,0.0,0.0,0.0,0.0,0.0,0.0,0.0,0.0,0.0,0.0,0.0,0.0,0.0,0.0,0.0,0.0,0.0,0.0,0.0,0.0,0.0,0.0,0.0,0.0,0.0,0.0,0.0,0.0,0.0,0.0,0.0,0.0,0.0,0.0,0.0,0.0,0.0,0.0,0.0,3.687,3.8004,3.8119,3.8001,3.7731,3.6999,3.6151,3.5161,3.3868,3.23,0.0,0.0,0.0,0.0,0.0,0.0,0.0,0.0,0.0,0.0,0.0,0.0,0.0,0.0,0.0,0.0,0.0,0.0,0.0,0.0,0.0,0.0,0.0,0.0,0.0,0.0,0.0,0.0,2.6542,2.6636,2.5729,0.0,0.0,0.0,0.0,0.0,0.0,0.0,0.0,0.0,0.0,3.445,3.2874,3.2135,3.0908,2.8557,3.1783,3.403,3.2763,3.3072,3.3294,3.2739,0.0,0.0,0.0,0.0,0.0,0.0,0.0,0.0,0.0,0.0,0.0,0.0,0.0,0.0,0.0,0.0,0.0,0.0,0.0,0.0,0.0,0.0,0.0,0.0,0.0,0.0,0.0,1.9874,0.0,0.0,2.0716,0.0,0.0,0.0,0.0,0.0,0.0,0.0,0.0,0.0,0.0,0.0,0.0,0.0,0.0,0.0,0.0,0.0,0.0,0.0,0.0,0.0,0.0,3.637,3.7099,3.7099,3.6813,3.6164,3.6054,3.5947,3.5751,3.4018,3.299,3.2872,0.0,0.0,0.0,0.0,0.0,0.0,0.0,0.0,0.0,0.0,0.0,0.0,0.0,0.0,0.0,0.0,0.0,0.0,0.0,0.0,0.0,0.0,0.0,0.0,0.0,0.0,2.7066,2.7584,2.7465,0.0,0.0,0.0,0.0,0.0,0.0,0.0,0.0,0.0,0.0,3.5612,3.5358,3.4223,3.3607,3.2803,3.1546,3.3702,3.6178,3.8188,3.6901,3.5776,0.0,0.0,0.0,0.0,0.0,0.0,0.0,0.0,0.0,0.0,0.0,0.0,0.0,0.0,0.0,0.0,0.0,0.0,0.0,0.0,0.0,0.0,0.0,0.0,0.0,0.0,0.0,2.2268,2.149,0.0,0.0,0.0,0.0,0.0,0.0,0.0,0.0,0.0,0.0,0.0,2.2876,2.1381,0.0,0.0,0.0,0.0,0.0,0.0,0.0,0.0,0.0,0.0,0.0,0.0,3.4682,3.5877,3.5956,3.555,3.4752,3.5186,3.5028,3.4137,3.4203,3.4102,3.3739,0.0,0.0,0.0,0.0,0.0,0.0,0.0,0.0,0.0,0.0,0.0,0.0,0.0,0.0,0.0,0.0,0.0,0.0,0.0,0.0,0.0,0.0,0.0,0.0,0.0,3.0516,0.0,0.0,0.0,0.0,0.0,0.0,0.0,0.0,0.0,0.0,0.0,3.8022,3.6879,3.7082,3.6791,3.5308,3.4691,3.4209,0.0,0.0,0.0,0.0,0.0,0.0,0.0,0.0,0.0,0.0,0.0,0.0,0.0,0.0,3.9197,3.9174,3.683,3.5037,3.5616,0.0,0.0,0.0,0.0,0.0,0.0,0.0,0.0,0.0,0.0,0.0,0.0,0.0,0.0,2.3934,0.0,2.3617,0.0,0.0,0.0,0.0,0.0,0.0,0.0,0.0,2.771,2.6683,2.4583,2.3077,2.1987,0.0,2.1862,2.2527,0.0,0.0,0.0,0.0,0.0,0.0,0.0,0.0,3.4207,3.5412,3.553,3.5072,3.4068,3.4677,3.4471,3.3319,3.4356,3.4877,3.4729,3.4942,3.4955,0.0,0.0,0.0,0.0,0.0,0.0,0.0,0.0,0.0,0.0,0.0,0.0,0.0,0.0,0.0,0.0,0.0,0.0,0.0,0.0,0.0,0.0,0.0,3.2312,0.0,0.0,0.0,0.0,0.0,0.0,0.0,0.0,0.0,4.0124,4.0124,3.9775,3.8629,3.835,3.7632,3.5831,0.0,0.0,0.0,0.0,0.0,0.0,0.0,4.0942,4.1179,4.0592,4.0294,4.075,3.9851,3.9102,3.9279,0.0,0.0,4.1277,3.9416,3.8011,3.8489,3.8645,3.8831,3.9247,4.0109,4.098,0.0,0.0,0.0,0.0,0.0,0.0,0.0,0.0,2.5041,2.4897,0.0,2.496,0.0,0.0,0.0,0.0,2.6468,2.7659,0.0,0.0,2.7873,2.7189,2.6336,2.441,2.3323,2.3124,2.3994,2.49,2.5854,2.6951,0.0,0.0,0.0,0.0,0.0,0.0,3.4823,3.5546,3.5692,3.5204,3.4011,3.4399,3.4222,3.3405,3.4407,3.529,3.594,3.6479,3.6105,3.476,3.5177,0.0,0.0,0.0,0.0,0.0,0.0,0.0,0.0,0.0,0.0,0.0,0.0,0.0,0.0,0.0,0.0,0.0,0.0,0.0,0.0,3.2782,0.0,0.0,0.0,0.0,0.0,0.0,0.0,0.0,0.0,0.0,4.1749,4.1529,4.118,4.0527,0.0,0.0,0.0,0.0,3.7611,4.1007,4.2684,4.3944,4.5191,4.4604,4.401,4.407,0.0,0.0,4.1435,4.1123,4.0808,3.9783,4.1059,4.2207,4.1945,4.137,4.1047,4.149,4.1519,4.1761,4.2053,4.3048,4.4272,3.2202,0.0,0.0,0.0,0.0,2.9214,2.9492,2.9899,2.9015,2.8479,2.8314,2.8322,0.0,0.0,0.0,0.0,0.0,0.0,2.9943,2.9618,2.8785,2.7999,2.7223,2.5534,2.4741,2.4751,2.5222,2.6066,2.7223,2.8098,2.8984,2.9831,0.0,0.0,0.0,0.0,3.3456,3.4938,3.4437,3.3764,3.3096,3.3186,3.3427,3.3804,3.4683,3.5856,3.7324,3.7664,3.7849,3.7813,3.6363,0.0,0.0,0.0,0.0,0.0,0.0,0.0,0.0,0.0,0.0,0.0,0.0,0.0,0.0,0.0,0.0,0.0,0.0,0.0,3.6305,3.5165,3.5093,0.0,0.0,0.0,0.0,0.0,0.0,0.0,0.0,0.0,4.3319,4.258,4.1611,0.0,0.0,3.8802,3.6423,3.715,3.8811,4.124,4.1923,0.0,4.5578,4.4438,4.3554,4.4393,4.3596,4.2424,4.1288,4.1157,4.1146,4.099,4.1436,4.1913,4.231,4.2002,4.1749,4.1938,4.211,4.23,4.265,4.4124,4.5498,3.5238,3.3168,3.2404,3.1587,3.0772,3.0496,3.0698,3.1096,3.0477,3.0265,3.0358,3.0845,3.0513,2.9624,2.9683,0.0,0.0,0.0,3.1008,3.004,2.9395,2.8555,2.7491,2.62,2.5641,2.5667,2.6002,2.6733,2.7786,2.8981,2.9871,3.0436,0.0,0.0,3.3059,3.3073,3.3577,3.4623,3.444,3.3834,3.2852,3.2645,3.2946,3.3774,3.4592,3.5897,3.7785,3.8211,3.8668,3.9263,3.7984,3.616,0.0,0.0,0.0,0.0,0.0,0.0,0.0,0.0,0.0,0.0,0.0,3.5386,3.5071,0.0,0.0,0.0,3.9957,4.1309,3.9912,3.8686,0.0,0.0,0.0,0.0,0.0,0.0,0.0,4.601,4.5789,4.5086,4.435,4.3478,4.2476,4.1313,4.0381,3.9524,3.8688,0.0,3.969,4.1615,4.1714,4.2236,4.4056,4.3715,4.3338,4.3642,4.2905,4.1966,4.1249,4.1099,4.1203,4.1498,4.1604,4.1758,4.2284,4.2184,4.2103,4.2269,4.2454,4.2689,4.2937,4.4528,4.5992,3.7732,3.6091,3.3426,3.2078,3.164,3.1365,3.1074,3.0792,3.0428,3.0803,3.1803,3.2537,3.258,3.2027,3.2319,0.0,3.1285,3.2166,3.1606,2.9887,2.977,2.8922,2.7465,2.6579,2.6077,2.5956,2.6334,2.6883,2.758,2.9253,3.0333,3.0809,3.1204,3.2014,3.3177,3.4166,3.4621,3.45,3.5143,3.4688,3.3058,3.2587,3.2749,3.3529,3.4267,3.5548,3.7526,3.8088,3.8725,3.9455,3.9774,3.8309,3.4809,0.0,0.0,0.0,0.0,0.0,0.0,0.0,0.0,0.0,0.0,0.0,0.0,0.0,0.0,0.0,4.296,0.0,4.346,4.2545,0.0,0.0,0.0,4.1094,4.0121,4.1891,4.4079,4.6353,0.0,0.0,4.4993,4.4184,4.3545,4.3052,4.0954,4.0029,4.1637,4.0486,4.0268,4.1996,4.1892,4.1604,4.1938,4.2777,4.3241,4.2499,4.2139,4.1804,4.1249,4.0982,4.1105,4.1471,4.1565,4.1692,4.1945,4.2139,4.2328,4.251,4.2709,4.2881,4.3122,4.4546,4.5974,3.7321,3.6245,3.4826,3.3693,3.2838,3.3091,3.3006,3.2647,3.2518,3.2727,3.3221,3.3488,3.3777,3.4018,3.4526,3.4154,3.3187,3.3021,3.221,3.0826,2.9593,2.8502,2.751,2.6925,2.6235,2.5594,2.5838,2.6144,2.6422,2.7039,2.7937,2.9009,3.0178,3.1811,3.3846,3.3786,3.4184,3.5075,3.4457,3.3811,3.3186,3.3051,3.3297,3.4014,3.4068,3.5001,3.6863,3.7319,3.808,3.9279,4.0509,3.9961,3.7313,3.4433,0.0,0.0,0.0,0.0,0.0,0.0,0.0,0.0,0.0,3.9939,3.7964,0.0,4.1857,0.0,4.4358,4.7154,4.4315,4.3263,0.0,0.0,4.324,4.3547,4.4358,4.4635,4.5328,4.6742,4.6875,4.6427,4.531,4.4504,4.3564,4.2333,4.0841,4.0,4.0335,4.0121,4.0426,4.1818,4.1856,4.1604,4.1652,4.2341,4.278,4.2302,4.167,4.1173,4.1105,4.1,4.1006,4.1249,4.1475,4.1688,4.1962,4.2048,4.2157,4.2346,4.2488,4.2667,4.2918,4.4398,4.5828,3.7312,3.667,3.5583,3.4685,3.3988,3.3721,3.3465,3.325,3.3418,3.3597,3.3817,3.4496,3.5046,3.5538,3.5833,3.5136,3.3707,3.3354,3.2254,3.0462,2.9314,2.8194,2.7078,2.652,2.5925,2.5373,2.5521,2.5755,2.6102,2.6616,2.7398,2.8397,2.9548,3.0998,3.2722,3.363,3.4349,3.4929,3.4375,3.3878,3.3499,3.3728,3.3989,3.4188,3.467,3.5457,3.6652,3.7301,3.802,3.8858,3.9866,3.9807,3.8497,3.6546,3.5722,0.0,0.0,0.0,0.0,0.0,0.0,0.0,0.0,0.0,0.0,0.0,4.5522,4.4211,4.7699,4.8994,4.6516,4.5887,4.5561,4.5381,4.4861,4.4941,4.5985,4.5862,4.6102,4.7183,4.6819,4.621,4.55,4.4196,4.2869,4.1647,4.0184,3.9301,3.9413,3.9161,3.92,4.0057,4.1007,4.156,4.1453,4.1673,4.1832,4.1635,4.1235,4.0935,4.107,4.1117,4.1129,4.1209,4.1458,4.1758,4.1962,4.203,4.2118,4.2323,4.2463,4.2606,4.2861,4.4031,4.526,3.7401,3.6867,3.5894,3.531,3.5003,3.3877,3.3388,3.3396,3.3795,3.4053,3.4294,3.5466,3.6263,3.667,3.6657,3.5517,3.3509,3.3365,3.2006,2.9715,2.9019,2.7946,2.6591,2.5912,2.5431,2.5132,2.518,2.5423,2.5862,2.6648,2.7343,2.7935,2.8833,2.9719,3.0714,3.3159,3.4542,3.4742,3.4868,3.4749,3.4319,3.4744,3.4885,3.4701,3.5647,3.6332,3.6664,3.7608,3.8146,3.8243,3.8617,3.8872,3.892,3.8226,3.8127,0.0,3.7916,0.0,0.0,0.0,0.0,0.0,0.0,0.0,0.0,4.4666,4.9376,5.0918,5.1045,5.0436,4.8969,4.8688,4.8183,4.7109,4.5999,4.5493,4.5961,4.6007,4.6371,4.7355,4.6515,4.5773,4.5403,4.3595,4.1961,4.1088,3.9481,3.8524,3.8702,3.8181,3.7718,3.7612,3.9873,4.1538,4.1318,4.1105,4.0993,4.0959,4.0959,4.0982,4.1123,4.1279,4.1353,4.13,4.1547,4.1849,4.2009,4.2026,4.208,4.2407,4.2416,4.2483,4.2899,4.3703,4.473,3.6846,3.5753,3.5854,3.5702,3.5366,3.4868,3.4505,3.4273,3.4575,3.5138,3.5852,3.6335,3.6683,3.6908,3.6908,3.5838,3.3937,3.3293,3.1959,3.0121,2.8823,2.7643,2.6602,2.6186,2.5364,2.4232,2.4544,2.4435,2.3865,2.4399,2.4895,2.5358,2.6703,2.7857,2.8792,0.0,0.0,0.0,3.6129,3.6432,3.7011,3.6677,3.6678,3.6992,3.6485,0.0,3.6465,3.7214,3.7576,3.746,3.8107,0.0,0.0,0.0,0.0,0.0,0.0,0.0,0.0,0.0,0.0,0.0,4.3078,4.2197,3.9887,4.789,5.2598,5.1018,5.0167,4.9497,4.9089,4.7756,4.6678,4.5964,4.5214,4.4854,4.5105,4.5007,4.5235,4.6038,4.5845,4.5441,4.4803,4.323,4.1891,4.1101,3.9389,3.8231,3.8185,3.7737,3.7446,3.7753,3.9944,4.149,4.1403,4.1232,4.118,4.1157,4.114,4.1203,4.1347,4.1353,4.1443,4.1493,4.1675,4.1913,4.2163,4.1747,4.1609,4.2358,4.2122,4.2027,4.2885,4.376,4.4766,3.5887,3.5518,3.5674,3.5645,0.0,3.4924,3.4566,3.4319,3.4725,3.5321,3.6064,3.6179,3.6278,3.6267,3.6035,3.4989,3.3372,3.2612,3.14,2.9831,2.855,2.7581,2.6883,2.6064,2.5228,2.4406,2.452,2.4228,2.3553,2.3843,2.4048,2.4164,2.5249,2.6301,2.743,3.0485,3.3345,3.5927,3.6539,3.716,3.7732,3.7663,3.7792,3.8052,3.7628,0.0,0.0,0.0,0.0,0.0,0.0,0.0,0.0,0.0,0.0,4.0927,4.028,4.0256,4.1111,4.1612,4.2253,4.3088,4.4148,4.461,4.4177,4.9176,5.1899,5.0988,5.003,4.9067,4.8063,4.7281,4.6367,4.525,4.45,4.4307,4.4759,4.4135,4.3863,4.4384,4.4545,4.4547,4.4602,4.286,4.1609,4.1077,3.9504,3.8236,3.7984,3.7504,3.7453,3.8591,4.0279,4.1547,4.1515,4.1582,4.1515,4.1363,4.1363,4.1583,4.2018,4.1773,4.1533,4.1604,4.1758,4.1991,4.2207,4.1948,4.1884,4.2364,4.2343,4.2335,4.2976,4.3506,4.4234,3.4741,3.518,3.5405,3.5408,3.5297,3.4751,3.4362,3.4115,3.4641,0.0,0.0,3.5673,3.5526,3.5213,3.478,3.3843,3.2607,3.198,3.0932,2.9563,2.8475,2.7728,2.7103,2.5878,2.5073,2.4651,2.4463,2.4044,2.3488,2.341,2.3289,2.316,2.3725,2.5013,2.7063,3.0762,3.3725,3.5864,3.6836,3.7593,3.8202,3.8518,3.8718,3.8801,3.8717,3.8464,3.8138,3.8044,3.7709,3.7187,3.823,3.9057,3.959,4.0522,4.1431,4.2286,4.2296,4.2227,4.2226,4.2892,4.3219,4.2963,4.4292,4.6039,4.8204,4.9457,5.031,5.0717,4.9937,4.8717,4.7122,4.6843,4.6215,4.4639,4.388,4.3768,4.4491,4.3534,4.2915,4.3268,4.3588,4.3788,4.4288,4.2722,4.1335,4.0965,3.9749,3.8528,3.8019,3.7449,3.7733,3.9459,4.081,4.1604,4.1648,4.1754,4.1793,4.1493,4.1515,4.185,4.2306,4.2166,4.1797,4.1604,4.1907,4.2193,4.2299,4.2129,4.2206,4.2474,4.2523,4.2585,4.2975,4.3196,4.3771,3.3605,3.3645,3.4825,3.5213,3.5063,3.5009,3.4664,3.4127,3.447,3.4605,3.455,3.5102,3.4803,3.3878,3.3813,3.3224,3.2275,3.2093,3.1408,3.0228,2.9263,2.8152,2.6925,2.6046,2.4942,2.3754,2.3562,2.3168,2.2518,2.1508,2.0914,2.0859,2.1488,2.4162,2.8558,3.1264,3.418,3.7464,3.7683,3.8547,4.0211,3.9962,3.9858,4.0027,3.9486,3.896,3.8535,3.891,3.8908,3.8435,4.0031,4.0652,4.0011,4.0696,4.1393,4.1816,4.1471,4.1754,4.3009,4.3242,4.3598,4.4236,4.4202,4.4844,4.6555,4.9205,5.0524,4.9865,4.8887,4.8081,4.7521,4.6341,4.5181,4.4165,4.3276,4.2963,4.3469,4.3176,4.3087,4.3673,4.391,4.3899,4.3845,4.2959,4.1915,4.1162,4.0024,3.9152,3.8148,3.7557,3.8028,3.9566,4.0863,4.1547,4.1714,4.1692,4.1648,4.1604,4.1582,4.1697,4.1938,4.2219,4.2324,4.1832,4.2383,4.2601,4.2371,4.1716,4.1754,4.221,4.2079,4.2003,4.2774,4.3196,4.3784,3.2241,3.2849,3.4121,3.4912,3.5196,3.487,3.431,3.3649,3.3756,3.3746,3.359,3.3982,3.3751,3.3131,3.2777,3.258,3.2511,3.204,3.1598,3.1106,2.9892,2.8939,2.8101,2.6602,2.5283,2.4218,2.3526,2.2543,2.1158,1.9967,1.8968,1.8361,2.0941,2.4681,2.9016,3.2599,3.5707,3.8408,3.8291,3.8973,4.0595,4.0682,4.0715,4.0729,4.0288,3.9724,3.8955,3.8792,3.8417,3.787,3.9251,3.9909,3.9668,4.0504,4.1146,4.1388,4.1209,4.1476,4.2329,4.2231,4.2346,4.2841,4.3066,4.3411,4.3978,4.7174,4.9085,4.8862,4.8578,4.7958,4.6788,4.5904,4.4898,4.3512,4.2699,4.2267,4.2395,4.2922,4.3189,4.314,4.3755,4.4173,4.3945,4.3074,4.2181,4.1277,3.9951,3.8655,3.809,3.7685,3.7941,3.9348,4.068,4.1508,4.1692,4.1719,4.1697,4.1692,4.1776,4.1952,4.2172,4.2414,4.2743,4.3734,4.3366,4.2512,4.2264,4.2019,4.2024,4.2195,4.2257,4.2307,4.2773,4.2974,4.346,3.0834,3.2032,3.3417,3.4546,3.5413,3.5005,3.4345,3.3561,3.3575,3.3165,3.2678,3.2862,3.2658,3.2175,3.1755,3.1936,3.2368,3.1973,3.1788,3.1788,3.0521,2.9661,2.9095,2.7076,2.5568,2.458,2.3393,2.1815,1.9924,1.8546,1.7394,1.6984,2.1053,2.5491,2.982,3.4283,3.7653,3.9751,3.9489,3.9769,4.0827,4.1047,4.1057,4.0915,4.0688,4.0043,3.9046,3.8428,3.7903,3.7468,3.8289,3.8915,3.9225,4.0008,4.0539,4.0711,4.0817,4.1091,4.1595,4.1272,4.1098,4.1248,4.1787,4.1976,4.1927,4.4287,4.6709,4.7886,4.8394,4.7874,4.647,4.5808,4.4853,4.3156,4.2286,4.1905,4.1811,4.2443,4.2752,4.2365,4.3254,4.3882,4.3696,4.3104,4.2276,4.1233,3.9579,3.839,3.8122,3.781,3.8103,3.9392,4.0701,4.149,4.1626,4.1697,4.174,4.1758,4.1819,4.2027,4.2335,4.2181,4.2617,4.4214,4.3565,4.2516,4.2335,4.2249,4.2251,4.2331,4.2318,4.2404,4.252,4.2402,4.2875,2.9559,3.0913,3.2666,3.4257,3.5669,3.5964,3.5542,3.467,3.463,3.3505,3.1794,3.2013,3.1606,3.0745,3.089,3.1271,3.1684,3.1951,3.2151,3.222,3.1261,3.0228,2.9121,2.7183,2.555,2.4137,2.2485,2.0827,1.9114,1.7032,1.6378,1.7407,2.1294,2.6304,3.1816,3.6262,3.9871,4.2723,4.196,4.1582,4.1693,4.0989,4.0486,4.0394,4.019,3.9531,3.8515,3.825,3.8105,3.7973,3.8277,3.8663,3.8942,3.9103,3.9311,3.9578,3.9746,4.0414,4.1632,4.1071,4.0619,4.0743,4.0564,4.0451,4.0212,4.0704,4.3063,4.6727,4.7804,4.7788,4.7198,4.6269,4.4818,4.3139,4.2122,4.1868,4.2034,4.1563,4.1287,4.1996,4.2239,4.2585,4.3034,4.293,4.2407,4.128,4.006,3.888,3.8177,3.7828,3.8376,4.0083,4.1076,4.1373,4.1648,4.167,4.1723,4.1661,4.1661,4.1864,4.2057,4.2418,4.2846,4.2735,4.2909,4.2797,4.2439,4.2207,4.2142,4.2169,4.216,4.2063,4.1922,4.1634,4.2134,2.8804,3.042,3.1977,3.3987,3.5989,3.6429,3.5822,3.4684,3.4386,3.3225,3.1608,3.141,3.0895,3.0206,3.0613,3.1151,3.1694,3.1994,3.2388,3.2696,3.1818,3.087,2.976,2.7615,2.5767,2.4095,2.1898,1.9938,1.8011,1.5141,1.494,1.7813,2.2092,2.7235,3.2873,3.779,4.1159,4.2868,4.2196,4.2105,4.2642,4.2056,4.1573,4.1326,4.0831,4.0021,3.8964,3.8343,3.7767,3.7279,3.7836,3.8318,3.8588,3.9191,3.9598,3.9759,3.9994,4.0474,4.1293,4.0646,3.9987,3.9564,3.7729,3.7126,3.8414,3.8813,4.1199,4.6106,4.8732,4.9521,4.8142,4.6287,4.451,4.316,4.1665,4.0758,4.0983,4.0293,4.0181,4.1089,4.1028,4.1333,4.2233,4.2356,4.191,4.1176,4.0427,3.9586,3.8291,3.7757,3.8585,4.0323,4.1198,4.1448,4.1577,4.1582,4.182,4.2255,4.2436,4.2436,4.2454,4.2683,4.2745,4.1978,4.2345,4.2587,4.2338,4.2267,4.2225,4.2133,4.1647,4.1393,4.1481,4.0884,4.1148,2.803,2.9933,3.2026,3.4328,3.6533,3.6679,3.6083,3.4934,3.4245,3.2982,3.1329,3.0793,3.032,3.0025,3.05,3.1162,3.1829,3.2115,3.2564,3.3089,3.2256,3.1411,3.044,2.7968,2.5851,2.4058,2.161,1.9229,1.7058,1.4355,1.472,1.8646,2.3304,2.838,3.3697,3.8767,4.18,4.2781,4.2395,4.2558,4.3248,4.305,4.2495,4.1785,4.1328,4.0402,3.8934,3.8373,3.7687,3.6809,3.7436,3.7935,3.8188,3.8696,3.8955,3.8906,3.9117,3.9635,4.0428,3.9871,3.9197,3.8379,3.5993,3.5224,3.679,3.7757,4.0324,4.4716,4.8323,4.9452,4.8532,4.6103,4.409,4.2613,4.0688,3.9546,3.9461,3.9189,3.9445,4.0027,4.0091,4.0469,4.1832,4.2369,4.2396,4.1714,4.1187,4.0366,3.8942,3.8473,3.9,4.0756,4.1386,4.1533,4.1506,4.1858,4.2286,4.2762,4.3089,4.327,4.3129,4.3094,4.2855,4.2157,4.2165,4.2163,4.2267,4.2287,4.2246,4.2121,4.1721,4.1232,4.1326,4.0654,4.0648,2.7095,2.9463,3.3093,3.5503,3.6961,3.693,3.6495,3.5734,3.462,3.2854,3.0956,3.0355,2.99,2.9737,3.042,3.1168,3.1955,3.2333,3.2856,3.3412,3.2544,3.1824,3.1141,2.813,2.5727,2.3985,2.1602,1.8865,1.5931,1.4974,1.6327,2.0025,2.4915,2.9796,3.4542,3.8833,4.1725,4.284,4.2791,4.3047,4.3435,4.3594,4.2728,4.1196,4.127,4.0382,3.8312,3.8362,3.8176,3.7126,3.7316,3.7483,3.7559,3.7023,3.6548,3.6269,3.6366,3.7318,3.8954,3.8758,3.8278,3.7925,3.675,3.5918,3.638,3.7297,3.9476,4.2758,4.529,4.6906,4.743,4.5312,4.3142,4.1069,3.9458,3.8444,3.8039,3.8713,3.8977,3.9078,3.9588,4.053,4.1908,4.3412,4.3349,4.2686,4.2142,4.1504,4.0491,3.9959,4.039,4.1129,4.163,4.1657,4.1727,4.2198,4.274,4.3411,4.3938,4.4031,4.3505,4.3045,4.2753,4.2374,4.2287,4.2246,4.2287,4.2267,4.2184,4.2113,4.205,4.1774,4.1241,4.1469,4.1334,2.8454,3.1245,3.4179,3.5934,3.6779,3.7014,3.6592,3.5645,3.4543,3.2748,3.089,3.061,3.0529,3.0339,3.0713,3.1376,3.2241,3.2568,3.2971,3.3403,3.2681,3.167,3.0371,2.8198,2.5955,2.3737,2.1691,1.9187,1.662,1.6289,1.8201,2.2002,2.6352,3.0762,3.4927,3.8497,4.0678,4.1389,4.139,4.1826,4.2797,4.3069,4.2709,4.1895,4.1386,4.0669,3.9678,3.8831,3.8149,3.7703,3.7254,3.6804,3.6367,3.5758,3.543,3.5459,3.561,3.6334,3.7713,3.8726,3.8896,3.8288,3.7819,3.7391,3.7031,3.6411,3.7358,4.0972,4.1864,4.27,4.3627,4.2806,4.1343,3.9979,3.8259,3.7305,3.765,3.7865,3.8157,3.9107,4.0037,4.0825,4.15,4.2621,4.3262,4.2838,4.2759,4.254,4.2066,4.1651,4.1466,4.1701,4.2429,4.3061,4.3079,4.2906,4.323,4.4274,4.4885,4.4875,4.4539,4.4408,4.4165,4.2678,4.2384,4.2409,4.2445,4.2391,4.2291,4.2107,4.2044,4.1943,4.1121,4.168,4.1307,3.0764,3.3202,3.5342,3.6475,3.6862,3.6954,3.6426,3.5394,3.4245,3.2665,3.1042,3.063,3.0554,3.07,3.0918,3.1492,3.2248,3.2379,3.2627,3.2901,3.2119,3.1134,2.9828,2.7879,2.5659,2.332,2.1129,1.9089,1.7711,1.8421,2.06,2.3849,2.7773,3.1365,3.4686,3.7358,3.89,3.9217,3.9478,4.0388,4.192,4.234,4.2385,4.2187,4.1541,4.0861,4.0389,3.9331,3.8441,3.7838,3.7245,3.6469,3.5439,3.476,3.4351,3.4306,3.4315,3.5021,3.6473,3.8176,3.8919,3.8465,3.8892,3.894,3.8033,3.6315,3.7426,3.9722,3.9086,3.8653,3.9909,3.957,3.8811,3.8421,3.7009,3.6219,3.685,3.6938,3.801,3.987,4.1059,4.1503,4.167,4.2721,4.3256,4.3132,4.3453,4.3542,4.3067,4.265,4.2205,4.1947,4.354,4.4448,4.456,4.429,4.4025,4.4858,4.5552,4.5594,4.5423,4.5423,4.4915,4.3342,4.2668,4.2625,4.2602,4.2567,4.24,4.2231,4.2418,4.2519,4.2149,4.2072,4.1983,3.3916,3.5133,3.6649,3.7237,3.7143,3.6791,3.604,3.5091,3.3832,3.2512,3.1138,3.0148,3.0016,3.048,3.1008,3.1566,3.1941,3.1877,3.1877,3.1938,3.098,3.0249,2.9534,2.7104,2.4823,2.2778,2.0001,1.8708,1.8786,2.0751,2.3014,2.5696,2.8801,3.1515,3.3629,3.5519,3.6562,3.6971,3.7578,3.9053,4.1092,4.1556,4.1749,4.1815,4.1649,4.0969,3.98,3.9764,3.8949,3.7591,3.7238,3.6395,3.4821,3.3971,3.3227,3.2557,3.2329,3.3269,3.5088,3.6864,3.8003,3.8402,3.9793,3.9989,3.8687,3.8027,3.8374,3.9139,3.7074,3.5594,3.7041,3.6556,3.6113,3.6584,3.5773,3.5234,3.5568,3.6261,3.7936,4.0655,4.1962,4.2731,4.3065,4.3669,4.4124,4.4172,4.4351,4.4363,4.367,4.3239,4.2491,4.2665,4.4149,4.5639,4.5708,4.5624,4.538,4.5346,4.59,4.6188,4.5729,4.557,4.5411,4.4271,4.4369,4.4333,4.3854,4.3747,4.317,4.2985,4.3119,4.3307,4.326,4.3233,4.3479,3.6191,3.7452,3.8493,3.8234,3.726,3.7024,3.613,3.4758,3.3441,3.1983,3.0616,3.0133,3.0068,3.0344,3.111,3.1577,3.1715,3.1971,3.1993,3.1632,3.0996,2.9776,2.8215,2.6824,2.4745,2.2178,2.0125,1.9302,1.9807,2.1333,2.3407,2.5932,2.8758,3.1094,3.3007,3.4489,3.5435,3.5759,3.6297,3.7646,3.9676,4.0588,4.1198,4.167,4.1669,4.0969,3.9523,3.8901,3.8084,3.6965,3.6411,3.5497,3.4252,3.3264,3.2329,3.1524,3.1667,3.2169,3.3309,3.5415,3.7187,3.8307,3.978,4.0236,3.9666,3.9342,3.9168,3.8791,3.5771,3.4082,3.4782,3.4896,3.4873,3.5323,3.4737,3.4793,3.5831,3.7507,3.9129,4.0408,4.1631,4.2348,4.2937,4.3881,4.4987,4.5367,4.5511,4.5315,4.4892,4.4435,4.4755,4.5352,4.6371,4.6319,4.6039,4.581,4.5653,4.5551,4.5965,4.6339,4.595,4.5732,4.5574,4.5652,4.5792,4.5726,4.5263,4.4732,4.4118,4.39,4.405,4.4178,4.4268,4.4457,4.4667,3.8318,4.0023,4.0409,3.942,3.7699,3.7188,3.5896,3.4281,3.3442,3.2066,3.0696,3.0322,3.0225,3.037,3.1146,3.1428,3.1412,3.1953,3.1762,3.0912,3.0241,2.8941,2.7113,2.5465,2.3764,2.1678,2.0193,1.9774,2.0218,2.2037,2.4092,2.6498,2.9038,3.0969,3.238,3.3725,3.4376,3.4045,3.4814,3.6288,3.8059,3.9249,4.0098,4.0686,4.0808,3.9652,3.7651,3.715,3.6895,3.6371,3.5624,3.4896,3.4328,3.2947,3.1655,3.1038,3.0675,3.0799,3.1602,3.3657,3.5795,3.7461,3.9688,4.0746,4.0392,4.0179,3.9864,3.9297,3.5774,3.3213,3.3406,3.3687,3.3791,3.3611,3.4122,3.4812,3.6288,3.8702,3.9788,4.0266,4.1157,4.214,4.2945,4.3941,4.5429,4.6139,4.6562,4.6249,4.5945,4.5773,4.6396,4.6644,4.6317,4.6196,4.6065,4.593,4.5846,4.5827,4.5903,4.6087,4.5996,4.5979,4.5916,4.62,4.6404,4.6601,4.6247,4.5609,4.5029,4.5043,4.491,4.5035,4.5142,4.5534,4.5622,4.0055,4.2467,4.216,4.0583,3.8476,3.719,3.5547,3.3798,3.3517,3.2593,3.1289,3.0509,3.0389,3.0583,3.1102,3.1255,3.1196,3.1742,3.1271,2.992,2.8866,2.7716,2.6332,2.3706,2.21,2.1359,2.0312,2.0181,2.1033,2.3056,2.5327,2.7241,2.9376,3.1028,3.1662,3.3051,3.3013,3.2182,3.3327,3.5082,3.6851,3.7879,3.8633,3.9301,3.9381,3.8042,3.546,3.5398,3.5749,3.5813,3.5132,3.4809,3.4615,3.2737,3.1341,3.066,2.9374,2.9299,3.0143,3.1561,3.3662,3.6029,3.9189,4.1521,4.1204,4.1209,4.0776,4.0256,3.604,3.2954,3.2565,3.2786,3.2739,3.234,3.4007,3.5579,3.6754,3.9688,4.0702,3.9866,4.0874,4.25,4.2865,4.3888,4.5366,4.6679,4.7527,4.73,4.6878,4.697,4.716,4.6866,4.6256,4.5972,4.5838,4.5812,4.5736,4.5736,4.577,4.5854,4.6038,4.608,4.6204,4.6542,4.6898,4.7147,4.7074,4.6358,4.5823,4.5583,4.5614,4.5784,4.598,4.6253,4.5891,3.8646,4.1865,4.1914,4.0793,3.8858,3.7432,3.5788,3.414,3.3125,3.2278,3.1275,3.0314,3.0209,3.0672,3.1287,3.1519,3.1536,3.188,3.1409,2.993,2.8074,2.6525,2.4958,2.2816,2.189,2.2034,2.1025,2.1167,2.2751,2.3802,2.5366,2.7212,2.8811,2.9927,3.0589,3.1559,3.1874,3.1834,3.273,3.4307,3.6058,3.7519,3.8308,3.8484,3.8988,3.7789,3.5249,3.5003,3.5292,3.5705,3.5444,3.4903,3.4362,3.2926,3.1383,2.9994,2.9466,2.8723,2.8278,2.9307,3.1521,3.4422,3.8005,4.1074,4.3693,4.3349,4.1554,3.8759,3.4678,3.2407,3.2028,3.2184,3.2303,3.2807,3.4727,3.7095,3.8734,4.088,4.2173,4.0849,4.1651,4.2335,4.2884,4.4363,4.6223,4.7741,4.854,4.901,4.8564,4.8483,4.8721,4.6967,4.6135,4.5804,4.5607,4.5632,4.5589,4.5607,4.5615,4.5641,4.5871,4.6073,4.6253,4.6542,4.7053,4.7341,4.7276,4.6878,4.6529,4.6167,4.6333,4.6507,4.6418,4.6512,4.5831,3.6407,4.0406,4.0859,3.9969,3.826,3.713,3.5775,3.4327,3.3289,3.2206,3.1278,3.0555,3.0275,3.0464,3.1145,3.1392,3.1338,3.1523,3.0772,2.9215,2.7137,2.5518,2.4152,2.2705,2.229,2.2372,2.1639,2.1865,2.2872,2.403,2.5537,2.7083,2.8538,2.9443,2.9961,3.0856,3.1273,3.1529,3.2534,3.3982,3.5372,3.6663,3.7205,3.7336,3.7677,3.6827,3.511,3.4702,3.5072,3.5851,3.5649,3.4966,3.4344,3.2742,3.127,2.9876,2.9156,2.8059,2.7505,2.7977,2.9826,3.3052,3.6751,4.1137,4.4519,4.5141,4.2739,3.7401,3.4313,3.2846,3.2192,3.1555,3.1164,3.162,3.4311,3.7569,4.0835,4.2242,4.2594,4.2295,4.2463,4.2769,4.2668,4.4844,4.7004,4.8672,4.9377,4.9925,5.0289,5.0288,4.9922,4.8365,4.7324,4.7265,4.6352,4.5944,4.5676,4.5615,4.5658,4.5632,4.577,4.6048,4.627,4.6566,4.7098,4.7425,4.7338,4.7272,4.711,4.694,4.712,4.7012,4.6851,4.6463,4.5763,3.3407,3.7938,3.896,3.8499,3.7117,3.6396,3.5336,3.4196,3.3492,3.248,3.1335,3.0979,3.0625,3.0168,3.0851,3.1053,3.0973,3.0832,2.9665,2.8128,2.6268,2.4782,2.3892,2.3253,2.2877,2.2694,2.2452,2.2472,2.3178,2.4539,2.5773,2.7102,2.8654,2.9368,2.962,3.0552,3.0902,3.0905,3.2216,3.3402,3.441,3.5392,3.591,3.573,3.5499,3.534,3.4597,3.4364,3.4862,3.6763,3.5688,3.5076,3.4586,3.2292,3.1041,3.0388,2.8914,2.7755,2.7391,2.7517,2.8755,3.2074,3.6056,4.0891,4.5036,4.614,4.3768,3.7615,3.4644,3.3201,3.2425,3.0587,2.9601,3.0192,3.2364,3.6809,4.1396,4.2775,4.2769,4.3493,4.3627,4.3525,4.4062,4.5273,4.7477,4.9278,4.9871,5.0161,5.0616,5.0677,5.0645,5.0295,4.9573,4.9151,4.7795,4.6359,4.5978,4.5683,4.5736,4.5761,4.5838,4.6048,4.6221,4.6542,4.7098,4.7381,4.7428,4.7403,4.7381,4.7316,4.7183,4.7116,4.6976,4.6391,4.5742,2.9177,3.3681,3.5243,3.6116,3.6322,3.5494,3.4596,3.3724,3.3269,3.2466,3.1474,3.1082,3.0951,3.0899,3.0729,3.0802,3.0972,3.0286,2.8986,2.7138,2.597,2.4644,2.3725,2.3276,2.36,2.3752,2.3526,2.3806,2.4757,2.5349,2.6443,2.7178,2.8137,2.8871,2.9039,2.9542,2.98,3.0071,3.1487,3.2512,3.3214,3.4301,3.4755,3.4283,3.3702,3.3723,3.4083,3.4022,3.4336,3.5029,3.5563,3.5137,3.3611,3.1984,3.0848,3.0203,2.949,2.8305,2.7403,2.7969,2.9301,3.1521,3.5315,3.9816,4.4893,4.7073,4.4773,3.9573,3.5336,3.2908,3.165,2.9894,2.8905,2.9139,3.0398,3.231,3.5084,3.9985,4.3082,4.4209,4.4764,4.5423,4.6369,4.6802,4.8404,4.9771,5.0209,5.0307,5.056,5.0838,5.09,5.0836,5.0554,4.9806,4.8684,4.7132,4.616,4.5814,4.5779,4.5846,4.5922,4.604,4.6221,4.659,4.7093,4.7316,4.7511,4.7428,4.7385,4.7298,4.7249,4.7183,4.6977,4.6346,4.5797,2.5548,2.9505,3.1874,3.3374,3.4128,3.4475,3.4261,3.3652,3.3332,3.2554,3.1609,3.1224,3.1036,3.0863,3.0723,3.0815,3.0534,2.9284,2.7843,2.6382,2.5171,2.4169,2.3658,2.3169,2.3303,2.3833,2.4214,2.4547,2.4824,2.5588,2.6248,2.6856,2.7749,2.8397,2.8731,2.9044,2.955,3.0031,3.0854,3.1692,3.2477,3.3193,3.3628,3.3126,3.2595,3.2581,3.3103,3.3255,3.3333,3.3706,3.457,3.4603,3.2982,3.1516,3.0564,3.0024,2.9192,2.8488,2.7833,2.8361,2.9658,3.1274,3.469,3.7947,4.1635,4.4613,4.3602,3.9043,3.5247,3.2715,3.0789,2.956,2.8576,2.8115,2.9022,2.9761,3.0948,3.6861,4.3151,4.4693,4.5631,4.6842,4.7809,4.8236,4.9174,5.045,5.0214,5.0273,5.0137,5.0432,5.0682,5.07,5.0655,5.0198,4.9276,4.7958,4.642,4.6005,4.5804,4.5871,4.5947,4.6073,4.6214,4.6607,4.7002,4.7446,4.7636,4.7511,4.7464,4.7443,4.7377,4.7312,4.7026,4.6458,4.5954,2.2655,2.5966,2.8885,3.063,3.1588,3.3211,3.3619,3.3179,3.3358,3.2546,3.1599,3.1363,3.1073,3.0562,3.0607,3.0608,2.9771,2.8444,2.6954,2.614,2.4507,2.3738,2.3371,2.2953,2.2576,2.2723,2.3708,2.3999,2.4041,2.4769,2.5787,2.6436,2.7294,2.8104,2.8693,2.9058,2.9418,3.0013,3.0517,3.0974,3.1694,3.2123,3.2343,3.226,3.1911,3.1819,3.2127,3.225,3.2283,3.216,3.3219,3.3172,3.2284,3.1079,3.0144,2.9874,2.9144,2.8652,2.8527,2.9125,3.0345,3.161,3.4136,3.6267,3.8446,4.0474,4.001,3.7513,3.4228,3.2352,3.0229,2.9577,2.8689,2.8088,2.8554,2.8307,2.8719,3.4246,4.0561,4.5159,4.6103,4.7001,4.8234,4.9034,5.0081,5.0828,5.05,5.028,5.0168,5.008,5.0393,5.0644,5.0627,4.9891,4.8953,4.7751,4.6361,4.6109,4.5829,4.593,4.6023,4.6097,4.6221,4.6464,4.6865,4.7449,4.788,4.7871,4.7792,4.7659,4.7504,4.7399,4.702,4.6591,4.6132,2.1477,2.4127,2.6596,2.8515,3.0011,3.1393,3.1794,3.1634,3.251,3.2051,3.1067,3.1542,3.1139,3.0294,3.0041,2.9533,2.8614,2.7574,2.6821,2.5932,2.4385,2.3427,2.2835,2.2469,2.2163,2.2033,2.2659,2.3087,2.3608,2.4279,2.5254,2.6322,2.7196,2.7981,2.8627,2.897,2.9163,2.9584,3.0126,3.0484,3.0415,3.0817,3.1284,3.1301,3.1022,3.1109,3.1347,3.1337,3.1358,3.1659,3.2299,3.2195,3.1456,3.0449,3.0017,2.9863,2.9748,2.9384,2.9287,3.0555,3.1601,3.2682,3.4241,3.5547,3.6683,3.7625,3.7503,3.5386,3.3013,3.1291,3.0674,3.0156,2.9657,2.9175,2.9128,2.9261,2.9068,3.2877,3.9053,4.3769,4.5396,4.6857,4.8083,4.9268,5.0221,5.0743,5.0642,5.0618,5.0617,5.0399,5.0252,5.0478,5.0599,4.9602,4.8501,4.7204,4.6005,4.6038,4.593,4.6048,4.6122,4.6147,4.627,4.644,4.7102,4.7995,4.8239,4.8239,4.8196,4.8132,4.7836,4.7486,4.7154,4.6802,4.6409,2.0788,2.277,2.484,2.6525,2.8122,2.9738,3.0642,3.1103,3.2154,3.2007,3.1381,3.1558,3.1183,3.0131,2.9817,2.898,2.7776,2.7471,2.6538,2.5193,2.3845,2.2818,2.2058,2.1656,2.113,2.0948,2.1352,2.2369,2.3393,2.3665,2.4782,2.6121,2.6863,2.7611,2.8578,2.8935,2.901,2.9252,2.9627,2.9648,2.9034,2.9401,2.9572,2.9916,2.9924,2.9974,3.033,3.0478,3.0446,3.0772,3.1884,3.1544,3.0688,3.0135,2.9972,2.9878,2.9903,2.9908,2.9993,3.1258,3.2327,3.2803,3.4107,3.5263,3.6127,3.6708,3.5907,3.3759,3.2055,3.0676,3.0272,3.0385,2.9937,2.9363,2.9695,2.9738,3.0098,3.2777,3.7208,4.213,4.4195,4.6045,4.7929,4.9091,5.0223,5.0632,5.0703,5.081,5.0975,5.0464,4.9993,5.0432,5.053,4.9714,4.8581,4.7317,4.6296,4.6215,4.6105,4.6221,4.6246,4.6295,4.6246,4.6263,4.7185,4.8367,4.8627,4.8663,4.8645,4.8479,4.7941,4.7475,4.733,4.7031,4.6659,2.0609,2.1959,2.3639,2.5103,2.6509,2.8369,2.9794,3.0794,3.1961,3.1894,3.1227,3.1589,3.1079,2.9859,2.9224,2.8461,2.6991,2.7234,2.6115,2.4293,2.3188,2.2293,2.1402,2.0542,2.0014,2.0041,2.0481,2.1543,2.2757,2.3137,2.4375,2.5804,2.6399,2.7205,2.8493,2.8935,2.8964,2.9089,2.9177,2.8957,2.8457,2.8004,2.809,2.877,2.8723,2.8961,2.9563,2.995,2.9937,3.0206,3.0783,3.1082,2.9663,2.9639,2.9821,2.9745,2.9744,2.9936,3.0428,3.1478,3.2576,3.3121,3.4011,3.5098,3.5677,3.5706,3.479,3.2573,3.1309,3.0586,3.0411,3.0482,3.0324,3.0161,3.0334,3.072,3.1338,3.3323,3.6293,4.0166,4.2894,4.5353,4.7328,4.9095,5.0262,5.0373,5.0439,5.0756,5.076,4.9932,4.9654,5.032,5.038,4.9784,4.8836,4.7766,4.7054,4.684,4.6561,4.6447,4.6447,4.6447,4.6392,4.6427,4.7487,4.85,4.8792,4.8985,4.8757,4.841,4.7847,4.7529,4.7395,4.7183,4.6855,2.1015,2.1897,2.3421,2.47,2.5872,2.7503,2.8879,3.0057,3.1293,3.1411,3.1105,3.1676,3.0935,2.9224,2.8465,2.7632,2.6964,2.6802,2.5835,2.3727,2.2837,2.2002,2.1121,2.0147,1.965,1.9599,2.0016,2.0835,2.1991,2.2584,2.3996,2.5789,2.6456,2.7205,2.8658,2.8982,2.9044,2.9149,2.9241,2.9073,2.8627,2.8004,2.8192,2.8552,2.8742,2.8866,2.9388,2.9791,2.9911,2.9694,2.9237,2.9283,2.93,2.8815,2.9029,2.9544,3.0191,3.0734,3.0869,3.1784,3.2816,3.3522,3.4286,3.4996,3.5245,3.4269,3.29,3.1143,3.0626,3.0746,3.0866,3.1322,3.1421,3.168,3.1893,3.2165,3.2577,3.3115,3.6165,3.9854,4.3145,4.5049,4.6928,4.8683,5.0189,5.0159,5.0216,5.0529,5.056,4.9799,4.9535,5.0246,5.0595,5.0078,4.9442,4.832,4.7738,4.7486,4.7027,4.6708,4.6708,4.6708,4.6637,4.6914,4.7873,4.8734,4.9292,4.9322,4.8894,4.8493,4.8117,4.7803,4.7508,4.7272,4.6985,2.083,2.1418,2.2827,2.4057,2.5218,2.6907,2.8546,2.9948,3.1232,3.1716,3.1599,3.1734,3.0653,2.8736,2.7905,2.7046,2.6377,2.6514,2.5167,2.3191,2.2282,2.1441,2.0189,1.9576,1.9301,1.955,2.0104,2.0914,2.168,2.2386,2.3628,2.5819,2.6375,2.7187,2.8735,2.9074,2.9163,2.9114,2.8898,2.849,2.8101,2.7845,2.7848,2.8172,2.8483,2.895,2.94,2.9513,2.95,2.9222,2.8683,2.8589,2.8905,2.9066,2.9508,2.9988,3.0849,3.1239,3.1302,3.2225,3.3093,3.3815,3.4391,3.4841,3.483,3.3752,3.229,3.1248,3.0612,3.0667,3.12,3.1611,3.2008,3.2445,3.2993,3.3285,3.346,3.3965,3.579,3.9647,4.3165,4.4987,4.6749,4.8559,4.9885,5.0082,5.0121,5.0281,5.0325,4.9933,4.9943,5.0302,5.0532,5.0539,4.9941,4.9114,4.8496,4.8069,4.7342,4.7084,4.703,4.6989,4.6916,4.6957,4.7519,4.846,4.9535,4.942,4.8771,4.859,4.8463,4.7868,4.7309,4.7262,4.7017,2.0646,2.0859,2.2356,2.3625,2.4815,2.654,2.8322,3.0072,3.1101,3.1677,3.1618,3.1139,2.9819,2.8401,2.7436,2.6608,2.561,2.6001,2.4292,2.2637,2.1699,2.0878,1.9809,1.9186,1.9403,1.9423,2.0246,2.101,2.1703,2.257,2.3975,2.6038,2.6586,2.7495,2.8601,2.9141,2.9251,2.9254,2.8726,2.8277,2.7911,2.771,2.7782,2.8041,2.8423,2.8957,2.9438,2.963,2.9419,2.8773,2.8944,2.8832,2.8609,2.8963,2.9524,3.0084,3.0865,3.1441,3.1749,3.2473,3.3351,3.396,3.4555,3.4925,3.4129,3.3278,3.2146,3.0941,3.0555,3.069,3.1288,3.1704,3.2227,3.28,3.3419,3.3796,3.4214,3.4651,3.6216,3.997,4.3087,4.5056,4.6816,4.8532,4.9539,4.9892,5.0023,5.0068,4.9955,4.9797,5.0142,5.0415,5.063,5.0778,5.0503,4.9895,4.9305,4.8634,4.79,4.7365,4.7249,4.7209,4.7143,4.7267,4.7431,4.7998,4.8931,4.8807,4.8665,4.8578,4.8321,4.7542,4.7068,4.7042,4.6968,2.0565,2.0305,2.2213,2.3742,2.4968,2.6339,2.8155,3.0146,3.0703,3.1061,3.0994,2.9775,2.8774,2.7725,2.7137,2.6253,2.4936,2.5368,2.3855,2.2499,2.1765,2.082,1.9838,1.9545,1.978,1.9526,2.0326,2.1127,2.1944,2.3385,2.4651,2.6002,2.6875,2.7995,2.8791,2.9189,2.9339,2.9302,2.8914,2.8613,2.8351,2.8137,2.8058,2.8524,2.8684,2.8907,2.9493,2.978,2.9545,2.8636,2.9127,2.9043,2.8569,2.8919,2.9475,3.0068,3.0801,3.1458,3.2072,3.2556,3.3066,3.3879,3.4627,3.4873,3.3524,3.0905,2.9841,3.0306,3.0206,3.0686,3.1293,3.1812,3.2302,3.3184,3.3858,3.4432,3.4815,3.5182,3.7024,4.0474,4.301,4.491,4.6156,4.7737,4.887,4.9278,4.9419,4.9427,4.9596,4.9581,5.012,5.0499,5.0754,5.0937,5.1086,5.0578,5.002,4.9211,4.8362,4.7773,4.7359,4.7338,4.7341,4.7493,4.767,4.7998,4.8173,4.8191,4.8267,4.8457,4.8179,4.747,4.687,4.6665,4.6664,2.0751,2.1057,2.2617,2.3954,2.511,2.7011,2.8866,3.0464,3.1219,3.1147,3.06,2.9627,2.8466,2.7466,2.6922,2.6163,2.5105,2.5037,2.372,2.2639,2.1826,2.1002,2.0211,1.9976,2.0262,2.0327,2.091,2.1581,2.2457,2.3994,2.5218,2.6331,2.7155,2.8172,2.8865,2.9275,2.9411,2.9474,2.9317,2.9103,2.8714,2.9061,2.9003,2.8733,2.9277,2.9333,2.9501,2.9407,2.9052,2.8915,2.9314,2.9044,2.8761,2.9251,2.9817,3.0316,3.1063,3.1771,3.2412,3.2825,3.311,3.3618,3.4449,3.4522,3.2679,3.0393,2.9768,2.9979,3.0207,3.0641,3.1861,3.1997,3.2249,3.3394,3.4281,3.4866,3.5418,3.5726,3.7422,4.065,4.2782,4.4695,4.5756,4.6761,4.7773,4.8625,4.8713,4.885,4.9089,4.9488,5.0074,5.0582,5.0873,5.1034,5.1174,5.0969,5.067,4.9824,4.8861,4.8297,4.7764,4.7572,4.7611,4.7759,4.7774,4.7856,4.7859,4.7772,4.7868,4.8112,4.794,4.7467,4.6902,4.6284,4.6319,2.08,2.1391,2.2981,2.4331,2.5505,2.7394,2.923,3.0756,3.1249,3.1041,3.0184,2.974,2.8621,2.7312,2.6944,2.5933,2.4996,2.4523,2.3445,2.2436,2.1564,2.0955,2.0455,2.0396,2.0764,2.114,2.1528,2.2059,2.2786,2.4514,2.553,2.6313,2.7072,2.7988,2.9111,2.9411,2.9539,2.9645,2.9635,2.9555,2.915,2.9539,2.9787,2.9227,2.9523,2.9551,2.9506,2.9447,2.929,2.9248,2.9386,2.9468,2.9494,2.9762,3.051,3.1058,3.1524,3.2135,3.2733,3.3269,3.3283,3.3335,3.3653,3.3248,3.1857,3.0176,2.955,3.0091,3.0279,3.0797,3.2118,3.1862,3.2404,3.3539,3.4356,3.4988,3.5698,3.6244,3.8298,4.0719,4.2687,4.4703,4.5487,4.6446,4.7392,4.8294,4.871,4.8826,4.8914,4.9411,5.0103,5.061,5.1008,5.1149,5.1254,5.0937,5.0615,5.0351,4.9465,4.8811,4.8333,4.8064,4.7753,4.7711,4.7711,4.7654,4.7615,4.7554,4.766,4.7824,4.7479,4.7035,4.6272,4.5695,4.5907,2.0762,2.1001,2.3175,2.485,2.6189,2.7265,2.9039,3.0917,3.0781,3.0307,2.9909,2.9901,2.8799,2.7268,2.7162,2.6108,2.4561,2.4321,2.3351,2.1786,2.1685,2.0768,2.0482,2.0662,2.1369,2.1453,2.1917,2.2488,2.3045,2.4265,2.533,2.6323,2.7119,2.7906,2.937,2.9589,2.9682,2.9782,2.979,2.9748,2.9769,2.9861,2.9804,2.9918,2.9644,2.9531,2.9848,2.9659,2.9569,2.9642,3.0155,3.0282,3.0214,3.011,3.0722,3.1676,3.151,3.1914,3.2716,3.3629,3.355,3.2891,3.3052,3.2386,3.1142,2.9978,2.9421,3.0151,3.0291,3.0845,3.1311,3.1569,3.2511,3.3522,3.4317,3.5127,3.5788,3.6309,3.8115,4.0589,4.2879,4.4814,4.5452,4.6227,4.7147,4.7952,4.8597,4.8846,4.8892,4.9303,4.9971,4.9928,5.0346,5.0656,5.0687,5.0706,5.0548,5.0392,5.0159,4.9579,4.8901,4.8445,4.8134,4.7826,4.7678,4.7636,4.7533,4.7407,4.7472,4.746,4.6945,4.6421,4.5626,4.5306,4.5666,2.0928,2.1742,2.3608,2.5456,2.7148,2.8344,2.9904,3.1393,3.1473,3.0907,3.0045,3.0132,2.9086,2.7753,2.7192,2.6403,2.4791,2.4352,2.3406,2.2535,2.2267,2.2121,2.1747,2.1614,2.2116,2.238,2.2699,2.2938,2.3412,2.4268,2.5346,2.6394,2.753,2.8501,2.8699,2.883,2.9016,2.965,2.9808,2.9834,2.9912,2.9933,3.0071,3.0433,2.9859,2.9834,3.0378,3.0104,2.9981,3.0191,3.0777,3.0883,3.0843,3.0754,3.1562,3.2072,3.1956,3.2509,3.2944,3.3373,3.3468,3.284,3.251,3.2106,3.0925,3.0156,2.9982,3.0123,3.0352,3.0943,3.1492,3.1268,3.1985,3.3386,3.4318,3.5108,3.577,3.6098,3.7343,4.0326,4.2894,4.4529,4.5541,4.6159,4.7014,4.7504,4.8098,4.8721,4.8877,4.9229,4.9703,4.9197,4.9263,4.975,5.0077,5.0604,5.0874,5.0872,5.079,5.0538,4.984,4.9006,4.8321,4.7922,4.7751,4.7636,4.7446,4.7254,4.7227,4.7039,4.6735,4.6313,4.571,4.554,4.5771,2.1157,2.2299,2.4095,2.6012,2.7997,2.9395,3.0778,3.1947,3.2297,3.1529,3.0283,3.0261,2.9255,2.7885,2.7433,2.6474,2.4762,2.4522,2.3587,2.2875,2.246,2.2181,2.2198,2.2444,2.2465,2.286,2.3107,2.3301,2.3555,2.4248,2.5108,2.6328,2.8077,2.8465,2.8586,2.8817,2.9248,2.9742,2.9799,2.9952,3.0028,3.0057,3.0058,3.0316,3.0214,3.0016,3.0509,3.0586,3.0438,3.0884,3.1223,3.1481,3.1561,3.1825,3.2454,3.2536,3.2619,3.2898,3.2881,3.2874,3.2879,3.2613,3.2809,3.2491,3.1398,3.0413,3.0283,3.0368,3.0558,3.1008,3.1485,3.1213,3.2271,3.3732,3.4613,3.5433,3.6198,3.6559,3.7457,4.0421,4.2704,4.4247,4.5536,4.6191,4.6842,4.7235,4.7605,4.8211,4.8829,4.9216,4.9577,4.9315,4.9211,4.9906,5.0522,5.0998,5.1233,5.1305,5.1246,5.1144,5.0478,4.963,4.8796,4.7995,4.7766,4.7529,4.7272,4.7138,4.7048,4.7002,4.6868,4.6387,4.5821,4.5831,4.5959,2.1391,2.2594,2.4439,2.6487,2.8662,3.0362,3.1582,3.2362,3.2777,3.1839,3.018,3.0508,2.9477,2.7817,2.7822,2.6665,2.4846,2.4542,2.3509,2.248,2.2487,2.2276,2.2225,2.2268,2.2728,2.3061,2.3253,2.3383,2.3625,2.4404,2.5061,2.5946,2.777,2.8325,2.8725,2.9161,2.9583,2.9735,2.9991,3.0105,3.0151,2.9959,3.0075,3.0264,3.0203,3.0192,3.0607,3.1002,3.1362,3.1777,3.2109,3.2493,3.2669,3.2672,3.2932,3.3104,3.3101,3.2866,3.2657,3.2613,3.2717,3.289,3.3704,3.339,3.2397,3.1017,3.082,3.0976,3.12,3.1343,3.1508,3.2332,3.3181,3.4224,3.5141,3.5993,3.6886,3.7639,3.8476,4.0439,4.2573,4.4128,4.5179,4.5956,4.6528,4.6622,4.7019,4.7671,4.8303,4.9094,4.9488,4.9901,4.9962,5.0417,5.0911,5.1129,5.1562,5.1676,5.1687,5.1524,5.0853,5.0217,4.9419,4.8632,4.785,4.7421,4.716,4.698,4.6842,4.6819,4.6819,4.6217,4.557,4.5927,4.6114,2.1553,2.2711,2.4566,2.6576,2.8758,3.1415,3.2762,3.2967,3.2633,3.1565,3.0236,3.0464,2.961,2.8367,2.8082,2.6961,2.6026,2.5229,2.466,2.3974,2.3464,2.3555,2.3476,2.3319,2.3445,2.3394,2.3478,2.3695,2.4158,2.4834,2.5748,2.662,2.8066,2.8567,2.8848,2.9304,2.9559,2.986,3.0199,3.0197,3.018,3.002,3.0165,3.0229,3.0155,3.0324,3.1077,3.1467,3.1909,3.24,3.2496,3.2705,3.2977,3.2898,3.3011,3.3345,3.3223,3.3008,3.2816,3.2574,3.2649,3.3117,3.3696,3.3128,3.238,3.1907,3.1486,3.1549,3.1776,3.1947,3.2196,3.2926,3.3723,3.4566,3.5461,3.6235,3.6982,3.7469,3.8414,4.0347,4.2508,4.3945,4.4958,4.5662,4.6156,4.6134,4.6392,4.6993,4.7735,4.8536,4.9428,4.9877,5.0235,5.0554,5.0744,5.099,5.1555,5.1986,5.2014,5.1863,5.1311,5.0656,4.9995,4.9043,4.7915,4.7357,4.7066,4.6865,4.6655,4.6725,4.6683,4.5998,4.5534,4.5996,4.6205,2.2335,2.3374,2.5088,2.7318,2.9819,3.1634,3.2659,3.3006,3.2506,3.1435,3.0323,3.0303,2.9661,2.8478,2.787,2.7094,2.6119,2.5378,2.4761,2.4364,2.4772,2.4462,2.4353,2.4417,2.4383,2.4239,2.4337,2.4711,2.5074,2.6052,2.7053,2.729,2.8711,2.8937,2.9101,2.942,2.9786,3.0103,3.0314,3.0232,3.0182,3.0135,3.0176,3.0198,3.0095,3.0744,3.1389,3.1653,3.2359,3.2718,3.2687,3.2898,3.3178,3.3208,3.3313,3.3573,3.3415,3.3114,3.2868,3.2824,3.304,3.3386,3.3708,3.3694,3.3194,3.2714,3.2223,3.196,3.2272,3.2549,3.2946,3.3359,3.4112,3.493,3.5652,3.6339,3.6718,3.6964,3.8491,4.0395,4.21,4.3637,4.4676,4.5337,4.5796,4.5818,4.5805,4.5988,4.6898,4.7892,4.8985,4.9877,5.0178,5.0481,5.0682,5.0967,5.1627,5.2154,5.235,5.2144,5.1653,5.0797,4.9837,4.8811,4.7747,4.7257,4.6795,4.659,4.6447,4.6518,4.6472,4.5964,4.5784,4.6277,4.635,2.3402,2.4067,2.5861,2.83,3.116,3.1266,3.1902,3.2812,3.2303,3.1381,3.0287,3.0046,2.9348,2.8334,2.7726,2.7082,2.6338,2.5673,2.5088,2.4199,2.4807,2.4879,2.4861,2.5013,2.5073,2.5407,2.5572,2.5554,2.629,2.7002,2.7567,2.7995,2.8812,2.9214,2.9342,2.9533,2.9832,3.0097,3.0509,3.0665,3.0304,3.0149,3.0087,3.0051,3.0324,3.0797,3.1112,3.1805,3.2789,3.2802,3.2912,3.3144,3.3368,3.3569,3.3753,3.3671,3.3502,3.319,3.2944,3.2897,3.3095,3.3554,3.4116,3.4357,3.3983,3.3,3.2346,3.2793,3.3186,3.3226,3.3507,3.4284,3.5069,3.5436,3.5909,3.644,3.6777,3.7377,3.8707,4.0494,4.1956,4.3438,4.456,4.5225,4.5589,4.5545,4.5531,4.5509,4.5668,4.6748,4.8034,4.9328,5.0211,5.0502,5.0758,5.1112,5.177,5.2244,5.245,5.2105,5.1417,5.0532,4.9588,4.8497,4.7407,4.6891,4.6471,4.6326,4.6228,4.6186,4.6088,4.5884,4.6024,4.6389,4.6341,2.3437,2.4006,2.6172,2.8276,3.0084,3.0819,3.1302,3.1636,3.1625,3.1045,3.0165,2.9698,2.9138,2.8372,2.7792,2.7253,2.686,2.6202,2.5753,2.5455,2.5576,2.538,2.5292,2.5586,2.5675,2.5515,2.568,2.6322,2.6989,2.7501,2.7946,2.8532,2.9112,2.9324,2.9384,2.9569,2.9804,3.0056,3.0846,3.0909,3.0387,3.0594,3.0711,3.0368,3.0391,3.1002,3.1509,3.2319,3.2885,3.3068,3.3214,3.3419,3.3652,3.3842,3.3881,3.378,3.3553,3.3298,3.3121,3.3142,3.336,3.3685,3.4205,3.4587,3.4294,3.313,3.2872,3.3634,3.4047,3.403,3.429,3.5176,3.5811,3.5983,3.6147,3.6537,3.6929,3.7963,3.9046,4.0464,4.1896,4.3135,4.4302,4.4964,4.5262,4.5414,4.5384,4.5174,4.457,4.5098,4.6457,4.7907,5.0014,5.0587,5.083,5.0865,5.1291,5.1963,5.2324,5.1837,5.114,4.9998,4.8853,4.8005,4.7129,4.6566,4.6204,4.6154,4.6038,4.5938,4.5852,4.5703,4.5778,4.609,4.6017,2.4405,2.4836,2.6498,2.8111,2.9391,3.0077,3.0689,3.1135,3.1096,3.0732,3.0171,2.9549,2.8933,2.8307,2.7718,2.7525,2.728,2.6815,2.6258,2.607,2.6148,2.5962,2.5998,2.6132,2.6169,2.6061,2.6549,2.7157,2.7799,2.8052,2.8469,2.8839,2.9138,2.9322,2.9343,2.9539,2.9785,3.0068,3.1239,3.1293,3.0717,3.0972,3.0982,3.06,3.068,3.1232,3.1838,3.256,3.2978,3.3294,3.3504,3.3792,3.3985,3.4099,3.4061,3.401,3.3856,3.3695,3.3566,3.3633,3.3814,3.4163,3.4851,3.549,3.554,3.4596,3.4601,3.5252,3.5091,3.5044,3.5212,3.5878,3.6056,3.6225,3.6456,3.6805,3.742,3.8232,3.9504,4.0904,4.2198,4.3243,4.4295,4.4964,4.5231,4.5248,4.5227,4.5333,4.4621,4.4297,4.5405,4.6302,4.834,5.016,5.0803,5.0608,5.0426,5.1162,5.194,5.1188,5.0222,4.9165,4.8131,4.7578,4.6916,4.6137,4.5879,4.5811,4.5778,4.5649,4.5598,4.552,4.5675,4.5752,4.5591,2.5591,2.5988,2.68,2.7957,2.909,2.934,3.0114,3.0974,3.0713,3.049,3.0385,2.9507,2.8781,2.8132,2.749,2.7439,2.728,2.6989,2.6575,2.636,2.6543,2.6477,2.6529,2.6613,2.6945,2.7377,2.7847,2.8319,2.8851,2.9,2.9098,2.9071,2.917,2.9384,2.939,2.9556,2.9839,3.0505,3.1284,3.1709,3.1599,3.1493,3.1362,3.1189,3.1077,3.1348,3.2059,3.2601,3.3126,3.3426,3.3765,3.4055,3.4351,3.4474,3.4464,3.4415,3.4557,3.4351,3.4197,3.442,3.4531,3.4852,3.5734,3.6185,3.6199,3.6321,3.6306,3.622,3.6043,3.598,3.6146,3.6324,3.642,3.6473,3.6766,3.7056,3.7723,3.8529,3.9903,4.1323,4.2417,4.3488,4.4211,4.488,4.5132,4.5133,4.5194,4.5251,4.5279,4.5309,4.5815,4.5773,4.6387,4.8175,4.9585,5.0021,4.947,5.0059,5.0591,5.0021,4.9415,4.8608,4.7974,4.7582,4.688,4.5844,4.545,4.5372,4.5353,4.5371,4.5353,4.531,4.5283,4.531,4.5123,2.5976,2.6714,2.7073,2.7894,2.8915,2.9248,2.9909,3.0626,3.0494,3.0542,3.0555,2.9671,2.89,2.8655,2.8139,2.7902,2.7669,2.7313,2.6856,2.6551,2.6856,2.6987,2.7114,2.7278,2.8169,2.8613,2.8931,2.9478,2.9535,2.9837,2.9916,2.9575,2.9934,2.9858,2.9355,2.9599,2.9988,3.0626,3.1351,3.1936,3.2489,3.2428,3.2377,3.2279,3.22,3.2671,3.3158,3.3393,3.3526,3.3707,3.4041,3.4338,3.4657,3.4999,3.5126,3.5081,3.519,3.4961,3.4886,3.4844,3.4844,3.5071,3.584,3.6427,3.6623,3.7011,3.6952,3.679,3.6655,3.651,3.6622,3.6827,3.6982,3.685,3.6985,3.7254,3.7725,3.889,4.0202,4.1534,4.2745,4.3655,4.4395,4.4927,4.5315,4.5363,4.5378,4.5353,4.461,4.5304,4.5968,4.5849,4.5388,4.5171,4.6215,4.8286,4.8491,4.9054,4.9223,4.8629,4.8265,4.8283,4.7752,4.6895,4.6206,4.5302,4.5052,4.4961,4.5059,4.5059,4.5059,4.5059,4.5032,4.4978,4.4852]}]]